GFSCGP_850_spd_000.txt.gz
Wind_Speed
11 5 11 15 16 16 15 16 16 22 11 10 15 19 16 19 27 24 31 36 33 35 34 32 35 36 33 37 39 38 37 36 35 36 36 34 31 29 26 25 25 23 20 14
4 13 21 9 12 7 9 13 20 18 11 7 9 14 13 10 20 34 31 36 34 23 19 25 30 33 34 39 40 39 38 36 37 38 36 34 31 30 27 27 27 25 21 16
19 10 14 7 7 9 12 10 15 15 9 6 6 7 12 9 25 30 35 42 31 25 23 26 29 31 34 41 42 40 39 37 38 38 36 36 33 31 31 31 29 28 23 20
16 20 20 15 18 10 21 9 9 11 6 6 4 15 8 6 12 11 27 38 25 21 22 27 30 30 35 38 38 38 37 37 38 39 40 41 39 38 35 31 30 30 26 24
8 4 6 9 11 9 6 2 2 4 6 6 5 9 5 9 9 11 13 34 30 20 26 27 29 29 30 33 36 36 37 37 39 41 42 40 39 36 32 32 32 31 29 26
14 4 3 4 3 2 3 1 3 3 2 9 11 12 3 6 8 6 9 30 29 18 20 19 23 26 29 30 34 35 36 38 39 41 42 40 39 39 38 36 34 32 31 28
6 16 2 4 4 2 4 3 3 4 1 15 10 10 16 5 8 11 13 25 22 23 21 18 25 30 32 33 35 37 37 39 41 41 40 41 40 41 42 39 36 35 33 29
3 9 14 8 12 8 9 9 6 7 10 21 2 9 9 11 12 20 31 33 16 20 19 20 26 30 32 33 35 37 38 40 42 41 37 40 41 42 43 41 39 37 34 31
7 12 3 6 3 9 6 6 4 1 2 4 12 14 11 11 11 10 13 15 15 16 17 20 23 28 31 32 33 36 39 40 41 40 37 39 42 44 44 43 40 37 35 33
5 11 8 4 3 3 4 1 2 2 2 7 18 13 16 13 18 9 6 8 13 15 18 18 23 28 31 30 31 35 39 42 41 40 39 39 41 44 45 44 42 39 37 33
3 5 8 6 8 11 2 4 5 1 5 7 10 15 4 6 5 8 8 7 7 10 16 18 21 28 30 30 32 36 39 43 44 45 43 42 42 44 46 45 43 40 37 34
8 2 5 15 8 2 6 11 12 10 16 4 12 23 5 5 9 10 8 10 16 20 18 18 19 25 29 31 33 35 40 44 47 47 45 44 44 45 46 46 43 39 36 32
10 3 2 8 14 2 5 6 11 11 11 19 18 22 10 21 18 13 8 8 15 20 22 23 25 28 29 31 34 38 42 43 46 48 48 48 47 47 47 46 42 39 35 31
3 3 10 14 16 15 12 11 11 13 11 20 21 26 31 30 27 25 31 31 29 31 28 34 31 32 34 34 36 38 41 42 44 46 49 49 49 47 44 43 40 37 33 30
6 11 19 24 25 25 23 24 25 23 19 21 25 29 28 31 24 24 36 27 30 31 36 35 35 35 37 36 38 39 39 41 43 45 47 49 49 46 40 41 40 37 33 30
10 10 13 24 31 32 29 29 25 32 30 31 34 30 34 31 39 37 41 43 33 34 40 43 40 38 38 40 39 40 42 43 43 44 47 47 47 44 40 41 41 38 34 31
7 7 8 19 23 27 24 33 38 34 31 30 29 38 38 34 32 33 46 40 40 35 39 37 35 35 31 32 35 38 38 42 42 43 44 47 46 43 39 42 41 38 34 30
17 19 14 18 16 23 17 22 31 36 35 33 34 37 37 33 48 48 32 36 42 43 46 48 44 42 38 31 28 28 34 38 39 41 43 44 43 41 40 44 43 38 33 27
23 22 15 14 19 24 4 23 25 20 33 34 30 32 35 39 38 33 48 47 46 45 50 48 44 41 35 28 27 27 31 35 37 40 42 43 41 40 42 46 43 37 32 26
26 25 20 19 22 25 17 21 26 28 22 13 24 28 26 20 13 18 43 46 45 37 35 29 27 28 26 26 28 28 29 33 36 38 40 41 42 41 45 47 42 36 31 25
7 14 24 23 20 13 5 16 14 15 22 21 27 27 23 16 18 33 40 43 46 42 38 32 28 30 30 27 27 29 31 34 34 37 39 41 41 42 46 46 41 36 30 30
8 8 8 14 20 29 16 10 15 14 23 29 31 31 29 32 30 30 33 32 28 27 29 29 26 30 32 30 31 31 32 32 33 36 38 41 43 47 50 46 40 35 31 25
6 2 4 6 6 10 14 15 33 23 23 24 24 30 29 29 32 33 33 33 34 30 29 27 29 30 31 33 32 33 35 35 35 39 40 44 45 51 51 45 40 33 26 27
9 14 7 14 3 24 44 47 25 24 27 28 26 27 28 28 33 38 40 40 39 36 34 31 30 30 30 31 34 35 38 37 39 41 41 43 49 55 51 45 38 31 30 29
10 17 14 22 21 26 23 26 36 40 37 32 35 29 27 27 30 32 35 35 37 38 36 35 35 35 36 32 34 39 42 43 42 42 41 44 54 54 50 43 36 33 31 26
13 15 13 17 22 23 28 37 33 34 38 35 27 36 39 35 37 39 40 38 42 43 45 41 41 39 38 38 38 39 43 45 46 44 45 49 58 58 50 43 36 32 27 24

GFSCGP_850_spd_003.txt.gz
Wind_Speed
10 5 10 24 14 8 5 6 9 18 10 10 17 18 21 27 23 24 37 43 48 52 52 42 37 36 43 43 42 42 41 40 38 39 40 39 38 35 33 31 30 28 27 25
3 13 20 5 10 10 10 14 15 15 12 10 14 21 16 9 16 28 30 40 51 40 41 35 29 32 42 45 43 41 40 39 39 39 39 40 38 37 33 32 31 29 28 27
20 11 18 12 9 8 19 14 19 19 10 6 9 11 12 11 16 30 39 47 50 42 39 31 30 31 39 44 44 41 39 38 39 38 38 39 36 34 36 37 34 32 31 30
11 13 11 6 7 12 22 10 14 8 4 13 4 16 9 7 12 10 26 44 36 40 35 29 30 33 40 43 40 37 35 37 39 39 40 42 43 44 45 40 36 34 33 32
10 3 8 14 26 9 20 4 5 2 4 5 5 6 3 8 8 12 16 37 44 37 30 27 29 32 38 39 37 35 34 36 38 39 40 43 44 43 40 37 35 35 34 33
11 1 4 7 2 6 2 1 1 2 2 12 8 9 5 7 9 6 11 32 37 33 24 24 30 33 35 34 34 35 36 37 38 38 40 42 44 43 41 39 39 38 36 35
3 10 2 5 3 2 3 5 4 4 1 12 11 10 21 6 8 11 14 29 31 31 19 20 33 33 33 36 36 36 38 39 39 38 38 38 43 43 43 41 41 40 39 39
4 15 12 9 16 12 10 10 7 7 9 18 3 9 8 10 14 27 35 38 33 25 17 26 28 29 31 35 36 37 40 41 40 40 39 39 41 43 44 44 44 42 41 37
6 14 1 5 2 9 5 6 11 2 3 2 10 13 10 8 11 11 20 17 27 24 23 27 25 24 28 34 37 37 39 43 43 43 42 42 41 43 44 44 45 44 40 36
5 12 8 2 1 3 6 1 1 1 3 7 15 6 14 14 20 16 11 10 17 21 21 21 20 21 25 29 34 37 39 44 47 46 46 45 43 42 44 45 44 44 41 39
7 6 17 4 6 9 1 4 5 2 4 12 14 15 6 2 6 10 8 11 14 14 15 15 16 19 21 26 31 36 39 42 46 48 50 49 48 47 46 45 46 45 43 41
2 5 4 8 8 5 5 6 6 9 10 3 6 16 10 5 4 10 6 10 12 7 8 14 15 17 21 25 28 32 39 40 40 48 52 54 52 51 48 46 47 45 43 41
3 2 4 12 9 3 6 8 7 6 2 9 12 15 26 22 19 14 5 18 14 33 28 22 22 24 29 30 31 35 37 37 40 45 50 53 54 52 51 48 46 44 42 42
17 11 9 16 18 7 5 5 8 10 8 20 19 29 26 32 31 27 29 40 44 42 42 37 29 31 33 31 33 36 36 38 41 43 47 51 52 52 53 50 45 43 42 43
13 13 19 27 29 28 25 25 28 26 25 20 29 28 25 30 31 24 35 40 33 31 25 24 28 32 34 37 37 40 42 42 43 44 45 47 48 49 51 48 43 40 42 43
15 23 22 24 28 31 30 34 35 35 34 28 32 31 33 33 46 36 48 51 34 34 40 44 41 36 39 44 43 44 44 43 43 43 44 45 46 48 49 46 43 40 42 43
10 7 10 26 24 25 24 31 37 30 26 24 29 36 36 34 31 33 43 52 38 39 44 44 42 44 39 37 35 38 34 36 42 41 42 42 44 46 46 44 42 42 45 45
23 17 9 15 14 23 10 15 27 33 32 31 35 34 32 30 39 41 45 40 46 53 47 47 42 40 44 40 31 31 32 35 36 35 39 41 42 43 43 42 42 43 45 47
20 15 10 11 14 18 13 7 16 19 30 26 28 28 24 32 38 31 34 31 28 36 45 46 51 49 42 29 23 24 27 30 32 33 37 39 41 42 42 42 43 44 46 48
11 19 18 21 26 32 25 10 14 20 21 21 16 19 15 17 7 5 37 41 43 34 38 35 31 37 33 22 18 20 24 26 29 30 34 38 40 40 41 41 44 45 45 47
14 10 16 15 14 6 10 19 14 9 8 22 21 21 24 15 14 29 36 44 45 46 41 38 35 26 17 17 15 16 19 24 27 30 33 36 38 39 39 42 44 46 48 50
8 5 10 13 21 25 24 8 8 16 23 21 23 21 20 24 30 33 34 39 40 42 42 40 38 33 29 25 19 17 18 21 26 28 30 33 37 39 41 42 45 46 50 50
8 3 4 4 7 22 23 25 29 9 11 17 22 29 27 30 30 30 33 35 38 39 38 37 35 36 36 33 28 27 27 23 23 25 29 32 34 38 40 42 47 49 52 50
5 13 8 11 12 20 37 31 16 25 24 26 28 33 29 27 31 37 36 38 38 39 39 38 35 39 39 33 34 36 31 29 26 27 30 33 35 37 39 43 47 51 54 49
8 11 7 15 17 19 20 21 24 21 23 29 31 27 29 30 33 33 35 37 37 33 35 36 41 39 43 37 29 32 36 38 36 33 33 34 36 37 40 46 50 55 52 46
15 17 12 15 24 13 22 29 21 19 19 23 28 36 38 34 36 32 33 38 37 36 36 36 40 42 37 36 30 28 31 41 42 37 37 40 41 43 44 49 52 54 51 47

GFSCGP_850_spd_006.txt.gz
Wind_Speed
6 4 10 22 14 13 3 6 8 7 10 6 10 17 18 32 22 23 35 41 46 54 58 57 49 40 38 42 46 47 45 43 42 43 43 43 43 42 41 38 36 35 33 31
2 9 18 11 5 10 12 18 20 16 15 6 16 23 19 12 23 34 32 41 47 50 53 56 48 36 32 35 41 47 48 45 43 44 44 43 42 42 41 38 38 36 34 32
19 10 14 10 8 6 15 15 18 19 6 5 9 20 12 14 24 36 38 46 49 56 54 53 46 36 32 35 38 44 47 45 43 43 43 43 41 40 40 42 41 39 36 34
10 12 11 10 8 14 24 12 14 9 4 12 4 24 7 8 12 12 24 38 43 51 50 47 40 32 31 32 35 40 44 42 41 42 43 46 44 45 46 45 44 41 38 37
9 5 6 9 21 11 21 4 6 3 4 5 4 5 4 8 7 12 15 34 42 45 46 43 35 25 25 29 33 37 41 40 40 41 42 43 44 42 42 43 43 41 40 39
10 2 5 9 5 9 1 3 4 4 1 11 10 9 7 6 7 6 11 32 34 33 38 36 20 18 24 29 31 35 38 38 39 39 41 43 41 42 44 44 43 43 43 42
3 6 3 6 5 3 4 5 3 3 1 12 9 6 20 7 9 11 14 30 36 39 37 34 20 22 26 28 31 35 37 39 38 40 40 40 41 43 43 44 42 43 45 45
2 17 9 6 10 9 11 10 7 7 10 20 4 10 11 11 16 26 27 34 40 41 38 30 19 22 24 28 32 35 36 38 41 41 42 41 41 43 43 43 44 44 43 43
5 18 3 4 4 8 2 6 11 2 2 1 9 14 10 2 8 6 16 28 35 33 34 23 23 23 24 27 31 33 35 37 41 44 45 44 43 45 45 43 44 44 42 42
3 7 4 1 2 3 7 3 1 2 5 8 11 6 15 9 5 8 15 22 40 26 21 21 19 18 21 23 27 29 34 38 42 44 45 46 45 46 45 43 43 45 45 43
4 5 11 2 7 10 2 5 5 3 4 12 16 14 6 8 1 6 12 27 32 21 5 5 9 14 17 20 25 28 35 41 43 42 45 49 49 50 49 46 44 45 45 44
6 5 6 15 12 5 7 16 17 10 11 5 5 11 30 29 18 20 22 29 27 15 8 7 9 12 16 22 28 31 35 40 39 40 46 47 52 53 53 52 49 47 47 44
4 4 11 7 12 14 8 12 10 8 8 21 17 14 26 25 21 27 21 32 33 42 27 27 37 35 33 37 40 37 40 38 36 44 47 48 51 54 57 56 54 51 49 45
13 15 19 20 19 4 6 8 9 16 15 19 19 25 25 27 29 30 24 31 29 38 41 39 42 44 43 43 49 44 39 36 40 44 47 48 50 52 54 55 55 54 52 47
10 20 18 28 28 25 29 29 29 27 26 25 30 29 22 25 28 23 41 42 33 30 33 41 45 43 42 43 44 40 38 42 41 45 49 49 47 49 53 54 52 52 51 48
6 14 22 31 29 26 27 33 32 33 33 34 29 30 28 29 42 37 45 44 42 31 28 32 38 45 42 45 51 55 53 49 50 52 53 52 52 50 53 50 50 50 48 46
9 9 14 19 8 21 19 25 36 35 29 24 27 29 17 17 20 24 30 28 29 32 33 36 40 39 38 44 47 53 52 54 49 53 54 54 52 52 50 48 48 48 47 46
17 19 14 20 20 26 15 7 16 27 25 24 13 15 17 21 33 17 30 35 37 38 41 40 43 47 48 40 39 40 46 46 47 49 51 50 51 49 46 47 47 46 46 47
19 17 11 14 20 20 21 8 8 8 5 18 12 14 17 28 30 6 36 41 38 37 36 38 45 46 45 45 41 28 30 36 37 39 40 43 46 46 46 46 46 46 47 48
13 8 8 14 11 13 7 15 26 15 8 20 11 12 15 21 14 15 41 38 36 35 35 43 43 47 47 43 46 43 27 23 27 32 36 40 42 44 42 43 44 44 45 46
4 4 7 12 14 6 8 9 17 6 9 12 10 14 14 11 10 31 37 34 34 42 44 43 46 43 42 44 41 40 38 30 25 26 31 34 36 39 38 39 39 41 44 47
4 3 4 4 4 13 26 13 4 10 12 13 17 19 18 24 24 25 28 33 41 42 42 39 42 44 44 36 38 41 37 32 28 26 25 27 30 32 35 37 38 39 42 45
4 6 3 4 5 23 29 12 26 10 8 11 15 20 23 25 26 27 31 37 39 41 44 41 38 43 44 38 35 36 39 35 31 27 25 23 25 29 30 32 36 38 41 44
4 10 3 3 6 10 27 31 23 8 14 20 21 24 23 22 31 34 34 38 42 42 44 45 45 44 46 42 41 42 40 31 34 34 29 26 25 26 27 29 33 35 42 46
8 1 7 9 15 24 24 21 15 22 24 20 24 27 27 24 30 27 32 36 37 45 49 46 47 50 49 43 41 40 42 36 35 37 34 33 35 36 34 32 32 36 41 45
16 16 11 15 23 20 24 27 23 24 18 22 25 30 32 31 35 35 41 44 44 47 47 49 50 49 50 47 45 42 40 38 38 37 39 38 36 40 39 39 40 42 46 46

GFSCGP_850_spd_012.txt.gz
Wind_Speed
5 4 9 20 14 1 3 5 11 8 9 4 22 22 17 24 27 37 37 36 47 47 49 43 39 38 37 34 32 33 37 39 43 47 50 52 52 50 49 48 46 44 43 42
3 7 15 0 2 6 6 13 17 14 15 5 13 21 17 20 28 35 39 39 37 44 46 46 42 35 32 29 27 25 29 35 41 45 48 51 50 51 50 49 48 47 46 44
11 7 5 5 3 8 7 7 16 15 6 5 10 13 8 10 14 28 37 42 37 40 41 39 37 35 29 25 24 24 26 31 37 41 45 49 49 50 52 53 50 50 47 45
6 4 7 4 6 10 16 11 13 10 6 5 5 14 8 9 10 7 25 28 32 29 24 28 32 33 33 25 20 21 27 33 35 38 42 46 51 53 53 52 50 50 49 48
8 4 4 5 10 7 10 4 6 3 4 5 2 4 3 4 8 11 9 12 11 18 26 33 33 30 29 24 20 21 24 28 33 38 41 43 47 50 49 48 49 49 50 50
8 1 5 8 7 9 2 2 3 4 2 6 11 8 4 4 5 1 9 16 19 14 30 34 35 34 27 18 18 21 22 26 30 33 37 40 43 47 47 47 45 47 50 50
1 5 3 4 2 1 3 4 4 3 1 9 3 3 13 5 10 7 10 17 9 11 26 37 45 41 33 20 18 19 21 21 24 28 31 36 40 42 43 43 44 45 47 50
4 13 7 5 8 8 8 9 6 7 6 13 2 9 13 8 7 16 15 11 8 11 24 39 42 43 29 23 18 14 14 16 20 21 26 31 34 40 42 43 43 43 44 44
5 9 2 5 4 5 5 5 3 1 0 3 11 15 14 6 6 4 6 10 16 24 32 43 42 31 29 29 21 14 12 13 15 18 24 26 30 36 41 42 42 42 41 42
1 11 4 2 4 5 6 3 1 2 3 6 7 8 13 20 10 11 12 21 27 44 47 44 34 28 28 23 23 24 20 18 17 20 21 24 30 34 38 40 42 42 41 42
2 2 7 4 5 8 2 3 4 3 6 9 12 10 16 16 12 9 8 24 35 36 31 25 22 21 18 18 20 21 22 23 27 32 31 31 33 37 38 41 42 44 44 44
6 7 7 14 6 5 5 14 11 11 8 6 12 13 17 24 21 25 16 25 25 26 27 25 25 26 28 27 24 27 24 21 21 25 29 33 37 39 42 44 46 48 48 47
1 4 4 2 3 4 2 3 4 11 10 17 13 11 11 17 20 27 22 26 28 31 32 32 32 33 33 35 35 30 29 31 28 26 22 26 29 34 43 46 48 51 51 50
3 5 11 12 15 10 10 12 11 11 7 12 11 14 18 12 16 19 19 23 26 30 33 34 36 37 37 38 37 39 36 36 36 35 36 32 28 31 32 35 42 50 52 52
2 11 12 14 9 8 9 16 19 21 18 14 18 23 8 12 14 14 16 21 24 29 32 33 34 41 41 39 41 40 39 38 40 41 39 42 38 34 32 33 35 43 50 49
4 3 6 17 21 16 19 17 19 20 21 16 17 9 4 6 8 13 10 16 22 24 24 25 29 36 39 40 41 44 43 42 40 40 42 40 39 36 33 32 35 39 44 49
2 3 3 17 12 8 11 20 19 19 21 1 9 3 0 3 6 12 12 15 19 18 22 21 26 32 33 38 39 42 43 44 42 39 38 41 40 36 36 33 31 37 41 44
7 8 4 11 9 21 8 4 5 7 4 6 5 2 6 7 10 16 3 13 18 19 22 22 29 32 32 33 37 40 40 43 44 43 40 39 39 40 37 35 33 33 36 43
17 9 3 4 7 8 10 4 3 3 5 4 3 6 12 15 14 6 13 20 27 25 28 29 29 30 32 34 36 41 43 42 43 46 46 44 43 40 36 35 33 30 32 39
3 14 9 2 4 6 2 3 5 2 4 6 10 8 7 6 4 7 19 28 31 30 32 32 30 31 32 33 37 41 43 45 46 46 46 46 43 38 37 33 32 29 29 30
3 2 9 7 4 7 4 6 2 5 5 7 5 15 17 6 10 23 32 32 30 31 35 35 35 36 38 39 42 43 46 50 51 50 52 47 45 42 38 36 32 29 28 27
5 4 4 3 2 7 4 4 4 6 19 22 21 26 22 26 25 28 32 35 34 35 36 34 37 39 41 43 43 45 48 49 53 55 54 55 49 48 40 39 36 31 27 27
2 6 4 7 6 5 12 17 32 26 22 26 23 26 26 27 31 33 34 37 38 39 38 38 40 43 45 47 47 50 53 53 53 55 59 55 56 50 47 39 38 34 30 29
6 5 9 13 17 16 29 37 31 36 36 37 33 29 26 27 32 32 33 37 41 44 45 44 44 47 52 52 54 56 57 56 55 58 57 59 55 54 46 45 39 35 36 34
9 6 6 13 19 21 28 35 35 32 31 31 31 28 28 26 30 27 34 42 44 47 49 46 47 52 58 60 62 60 59 58 59 58 58 57 55 50 46 43 41 38 37 39
14 18 10 12 27 23 26 37 29 25 26 26 24 29 28 26 28 32 40 42 43 46 49 50 54 53 60 62 65 64 61 58 56 58 56 55 51 49 45 39 43 40 37 36

GFSCGP_850_spd_015.txt.gz
Wind_Speed
3 4 8 15 14 2 3 5 6 8 8 4 22 19 15 24 27 35 41 38 30 39 33 31 32 23 17 17 20 22 26 28 33 42 47 51 54 53 54 52 50 49 47 46
3 7 15 2 4 7 7 10 14 8 10 4 12 20 20 21 24 31 37 34 29 32 33 27 21 19 16 17 16 20 22 27 31 37 43 49 52 55 56 54 54 52 50 49
9 5 5 7 5 8 5 6 10 10 6 6 7 8 4 7 10 25 29 24 25 21 17 25 30 29 24 20 16 19 22 24 29 34 40 45 50 50 54 58 58 56 53 51
6 4 6 4 6 8 9 10 11 6 4 4 5 9 5 8 10 2 14 16 10 10 21 31 37 37 31 27 23 18 20 24 29 33 39 43 47 49 50 54 55 55 54 53
7 5 4 4 8 7 10 1 2 2 3 3 3 4 6 3 6 7 4 4 5 8 23 41 41 38 37 30 24 17 20 20 26 32 36 40 43 45 47 47 49 53 54 54
7 2 4 7 4 6 3 3 5 4 2 5 10 8 1 4 4 1 11 13 10 11 23 39 33 32 35 38 33 23 18 18 18 26 32 36 39 41 44 45 43 45 51 53
1 4 3 3 1 2 2 4 4 4 1 8 3 3 5 5 5 5 6 18 12 19 32 31 31 30 30 33 36 34 26 20 15 14 23 30 35 38 40 41 40 42 44 49
3 17 8 6 7 7 7 8 5 6 6 12 2 9 7 8 4 15 11 7 14 35 29 28 28 27 28 30 28 28 28 24 20 19 17 21 27 33 38 40 39 39 40 41
5 10 1 5 4 7 4 6 5 2 3 2 8 12 14 5 5 10 21 28 26 26 29 30 31 32 31 30 29 28 24 21 19 17 19 21 24 27 30 34 36 37 38 39
3 7 7 3 2 4 7 3 1 1 3 9 6 5 13 6 9 14 15 20 27 29 30 32 32 31 30 31 30 26 27 25 24 22 20 19 21 24 28 29 30 32 35 38
3 5 7 3 6 8 1 4 4 3 4 5 7 8 4 8 12 8 6 13 22 25 26 26 26 28 30 29 29 28 27 27 25 25 25 25 22 20 23 26 30 33 34 37
6 5 7 13 7 3 3 7 8 5 7 5 6 8 14 13 11 12 13 17 20 22 23 23 25 27 28 32 31 31 30 29 29 28 28 27 25 25 24 24 25 29 31 36
2 4 5 5 3 3 3 3 6 5 2 11 11 5 11 10 13 15 13 15 17 22 26 28 28 30 33 34 35 35 31 31 32 30 30 29 29 29 28 27 25 28 30 34
4 4 13 15 13 4 7 6 4 4 7 11 9 8 11 5 12 10 9 10 12 19 23 22 25 28 29 31 33 35 37 33 32 32 33 32 30 31 32 30 29 28 30 32
5 10 9 12 13 4 8 10 16 16 16 11 15 20 22 1 3 8 8 12 13 14 18 23 22 26 27 29 30 33 34 39 36 35 32 34 34 32 32 33 32 32 32 32
2 4 1 4 11 14 17 17 18 17 17 14 17 21 7 4 2 7 12 11 15 19 23 23 21 22 25 27 29 32 34 35 38 39 37 35 35 35 34 35 34 33 33 36
3 3 8 20 7 4 7 14 14 13 18 12 16 3 1 2 4 7 12 9 12 20 24 25 25 27 28 27 28 30 31 32 34 36 39 41 41 40 37 35 34 34 34 33
9 8 4 8 4 19 7 4 0 5 2 5 6 3 5 8 10 12 14 10 16 24 27 28 28 30 29 29 29 30 29 32 35 38 39 41 42 44 43 39 39 33 33 34
16 11 5 8 14 13 16 4 4 4 5 5 5 3 5 11 9 18 11 15 21 24 28 28 29 33 34 32 31 31 30 33 35 37 41 43 44 47 47 47 44 43 39 35
9 13 10 2 4 6 3 2 1 4 4 7 9 5 7 5 3 10 21 19 21 27 32 33 34 36 39 39 37 37 38 39 38 41 44 44 46 48 50 50 50 47 43 43
3 2 12 11 8 6 5 5 5 5 5 8 9 15 17 5 16 28 29 25 27 35 35 34 35 38 41 41 42 44 45 46 44 44 46 48 49 50 51 53 52 52 48 43
4 4 3 2 2 8 6 3 5 4 20 22 19 19 20 25 26 27 32 35 34 38 39 39 38 43 46 45 47 49 51 51 49 51 52 52 52 53 55 55 56 53 51 46
4 6 4 9 6 4 7 12 30 32 25 31 26 30 27 25 28 31 32 34 37 39 40 39 43 48 50 49 49 50 55 54 56 58 59 59 58 57 57 58 57 55 51 49
6 9 9 13 11 14 27 36 36 34 33 34 33 28 28 27 28 28 30 34 38 40 42 43 43 47 52 53 53 53 56 56 58 61 64 65 64 62 60 57 57 55 51 45
11 4 6 13 15 21 29 34 37 32 29 29 28 24 24 22 24 26 32 35 39 43 45 44 44 45 52 53 58 57 54 53 58 62 63 62 59 59 58 57 53 53 50 40
18 17 10 14 23 21 29 35 27 20 20 24 25 24 23 23 25 28 34 36 40 44 46 48 50 46 52 54 58 57 55 52 53 55 53 48 46 47 49 51 55 51 40 35

GFSCGP_850_spd_018.txt.gz
Wind_Speed
6 7 11 18 19 20 13 17 21 21 18 16 22 22 19 28 32 34 35 26 20 15 15 14 17 16 14 12 13 16 19 22 28 33 38 44 51 52 55 56 55 53 52 51
4 11 17 10 6 11 16 18 21 21 16 4 18 22 26 22 26 28 24 20 16 9 10 17 23 24 17 14 12 16 19 20 23 28 32 36 41 46 49 52 56 56 55 54
17 11 5 8 12 16 17 15 20 21 17 14 13 13 3 7 17 17 14 10 3 8 15 20 22 27 32 30 24 19 17 20 21 23 26 30 36 39 40 44 49 53 54 55
9 4 6 6 12 13 17 12 15 14 7 9 8 11 11 13 14 7 5 5 14 16 21 23 26 28 28 29 31 27 19 13 13 16 22 26 27 31 35 40 41 46 50 53
4 4 4 7 8 5 7 3 2 2 7 10 4 7 4 2 5 4 8 13 17 21 20 20 22 24 28 30 32 30 27 19 12 9 11 18 23 24 24 30 33 34 37 45
16 1 4 5 4 5 1 5 3 1 4 8 8 7 3 3 1 3 12 16 17 17 18 21 25 28 32 30 27 26 26 24 21 16 12 13 15 19 24 29 32 32 32 32
3 5 3 4 5 3 5 5 8 7 6 10 5 5 7 11 5 8 13 15 15 18 24 27 31 31 29 29 28 28 26 24 21 18 15 12 12 14 19 23 27 29 31 32
9 18 8 8 8 10 10 9 8 7 12 17 6 13 10 9 14 17 20 19 20 19 20 23 25 27 28 28 28 26 26 26 25 21 18 16 15 14 16 17 20 24 28 30
12 17 2 4 1 4 6 8 6 7 10 10 16 24 11 7 8 12 14 15 15 15 18 20 20 23 24 26 27 27 25 25 26 26 24 23 20 17 17 17 18 20 23 27
4 10 3 1 0 5 6 3 8 5 7 17 13 18 13 9 5 5 8 12 14 15 16 17 17 19 21 21 22 23 23 24 24 25 26 26 26 24 21 18 18 19 20 21
4 6 10 4 7 17 7 6 8 6 5 5 5 11 4 8 7 6 7 9 12 14 15 14 14 16 19 21 21 22 25 27 26 25 25 24 25 25 24 24 21 20 21 21
12 5 10 25 19 5 4 14 15 11 8 10 12 15 7 10 8 8 6 5 6 9 11 12 12 15 18 21 23 24 24 24 26 26 24 24 23 23 26 27 25 24 21 22
2 4 5 5 7 2 5 8 14 12 6 20 18 6 7 10 8 7 6 5 2 6 9 11 11 13 16 20 23 24 26 27 24 24 26 25 24 24 25 26 27 28 26 25
1 4 14 17 20 15 10 9 5 4 5 7 8 10 12 16 11 1 2 2 1 2 6 9 13 16 19 21 23 26 27 28 30 29 26 28 29 27 25 25 27 27 27 27
4 7 13 17 20 20 19 19 23 21 20 12 19 20 25 23 12 2 2 1 2 3 6 8 10 13 18 20 22 23 24 27 30 32 32 31 29 31 31 30 28 28 27 27
2 11 15 20 16 13 13 18 23 23 23 24 25 26 11 1 2 3 5 7 9 7 9 11 11 12 14 19 22 23 24 25 27 28 30 33 37 36 32 33 33 33 33 32
7 9 12 21 18 19 16 21 23 24 25 23 22 12 5 1 6 9 9 13 14 11 12 15 17 17 18 24 25 26 27 28 27 27 29 33 35 39 42 38 36 37 37 37
13 13 9 13 8 21 14 8 11 15 12 1 5 4 3 3 10 13 14 18 18 15 14 17 21 23 23 29 30 30 32 32 31 31 32 34 36 39 41 43 44 41 41 42
20 15 10 14 18 22 25 21 20 15 18 8 9 3 5 7 9 17 14 18 19 19 19 23 28 32 34 36 35 36 39 39 39 39 40 39 39 41 41 43 46 49 49 47
8 14 10 4 8 14 8 1 2 2 6 9 3 5 9 8 9 12 20 15 17 22 29 31 30 36 40 39 38 43 46 48 48 47 45 45 44 43 45 45 45 48 52 54
2 3 12 13 14 11 4 5 5 6 4 8 11 16 14 9 17 23 21 19 22 26 31 35 35 40 42 40 43 47 49 50 45 47 50 51 52 53 53 53 50 50 52 56
6 5 4 1 3 10 4 7 6 2 15 17 17 19 18 18 20 19 21 23 25 25 29 31 35 41 42 44 44 48 52 49 46 46 50 52 57 61 61 62 61 58 56 56
7 10 5 8 8 6 6 11 17 25 27 28 24 22 18 19 20 20 21 21 22 24 28 34 38 43 45 46 46 47 53 47 52 58 61 59 57 57 59 60 61 58 60 57
14 18 11 11 19 23 32 34 34 35 29 29 25 22 22 19 18 21 20 22 25 28 33 36 40 44 48 51 53 51 53 52 53 58 60 57 51 50 48 48 46 43 46 48
14 5 10 14 20 26 31 34 36 35 32 26 23 22 20 19 19 20 22 26 27 29 32 34 39 45 51 52 53 51 50 50 51 51 49 46 43 43 42 41 41 40 41 40
22 19 11 14 26 23 30 31 29 24 23 22 22 21 20 19 20 22 24 25 28 30 34 39 42 45 47 46 47 47 44 42 41 43 41 40 41 42 42 41 44 40 39 40

GFSCGP_850_spd_021.txt.gz
Wind_Speed
9 8 10 15 16 20 20 21 23 21 20 22 21 21 20 26 32 30 27 21 12 4 11 14 16 16 11 8 5 6 10 12 17 19 23 27 31 34 34 35 33 36 40 41
4 12 15 15 13 13 18 21 21 20 17 13 17 21 25 22 22 17 15 13 3 12 13 15 18 21 22 20 16 11 7 5 10 13 16 16 14 19 21 26 31 33 38 41
17 15 5 9 12 18 18 19 22 22 18 17 13 15 12 10 24 13 8 12 18 15 15 17 19 22 23 24 24 23 19 11 2 6 9 12 16 19 15 19 25 31 35 39
11 8 6 11 15 14 15 12 7 12 9 10 7 11 11 17 12 9 17 18 16 16 15 16 19 23 24 24 23 25 23 20 16 8 3 6 8 10 9 12 18 24 28 33
0 5 4 8 9 4 8 2 7 8 11 16 14 9 5 15 8 13 13 13 14 15 15 19 21 22 23 23 23 22 21 21 20 16 10 7 6 8 9 11 17 20 21 22
17 2 4 10 3 7 6 7 14 13 8 8 6 6 4 4 5 12 11 12 13 13 14 16 15 16 18 20 23 25 25 26 23 18 15 12 9 7 7 11 14 16 18 20
5 7 6 4 7 5 6 8 7 8 8 13 5 6 9 6 3 5 10 9 11 12 12 13 13 12 14 18 20 24 23 25 25 25 23 18 14 11 10 10 11 13 13 18
13 17 7 10 6 12 10 9 7 10 14 16 8 12 10 5 14 14 12 12 10 9 9 9 11 12 14 18 24 24 25 23 22 21 22 22 22 19 15 13 13 12 13 15
10 9 5 4 4 2 5 7 8 6 11 8 14 23 18 12 12 10 11 10 8 7 7 10 14 16 15 17 18 19 21 22 21 21 20 20 21 21 21 19 16 15 14 15
1 10 3 1 2 8 6 5 7 4 5 15 12 18 13 7 12 10 8 8 7 10 13 13 13 13 14 15 16 19 20 20 19 19 19 20 20 20 20 20 20 20 19 17
4 3 9 6 7 12 10 10 11 12 11 13 16 13 8 9 8 7 7 7 9 9 9 9 8 10 12 15 18 19 19 21 21 21 19 18 19 20 20 20 20 20 20 20
10 5 10 23 21 19 14 15 16 12 9 11 13 12 10 8 7 6 4 7 6 5 6 7 7 9 13 16 17 17 19 21 22 22 20 20 20 21 21 22 23 23 24 22
3 2 5 8 10 2 4 6 12 14 12 17 14 12 7 4 3 2 5 8 5 5 4 5 7 9 11 13 14 15 19 21 24 26 26 25 25 24 24 25 26 26 26 26
2 5 11 13 17 19 19 18 15 11 9 17 16 14 15 14 9 8 13 8 7 5 6 5 7 10 10 13 14 17 19 21 25 27 28 29 31 31 30 28 27 27 28 29
4 10 15 18 21 19 18 19 24 24 23 23 24 23 24 23 17 9 3 2 7 9 8 6 7 10 12 13 16 19 19 21 24 27 29 31 32 32 33 34 33 30 29 29
7 10 11 16 19 20 21 24 24 22 22 24 25 28 23 11 3 3 3 6 9 12 12 9 9 10 12 13 14 17 22 22 23 25 28 30 33 35 38 41 42 43 39 34
11 8 8 18 16 18 16 24 23 26 26 25 22 12 7 5 4 5 7 9 12 13 13 13 12 13 13 14 15 17 19 24 27 28 29 30 34 37 38 40 42 45 48 49
12 13 9 15 13 20 14 14 12 16 14 10 5 1 2 2 8 12 13 14 14 16 16 18 19 20 19 19 19 22 29 31 35 37 39 40 39 39 41 43 44 44 45 47
19 16 10 11 15 19 25 21 20 17 17 11 7 5 2 10 15 19 13 9 14 15 16 19 23 23 21 22 22 27 36 38 36 38 39 38 40 43 45 46 46 46 48 49
7 14 12 10 14 17 15 5 2 2 13 7 8 3 8 10 9 12 17 17 17 17 20 22 22 24 29 26 34 38 40 41 40 37 40 43 43 45 51 55 57 58 58 58
3 5 14 14 16 12 8 4 3 7 9 14 6 8 14 10 16 22 21 19 18 20 22 23 25 28 31 32 37 43 45 43 41 45 47 48 47 47 49 50 56 57 61 62
8 7 7 5 6 12 4 5 5 6 3 7 13 20 20 21 19 18 19 20 19 20 19 21 27 32 36 37 41 45 48 50 52 55 56 54 51 49 48 46 51 48 48 49
7 11 7 7 8 6 11 12 18 21 23 27 31 30 21 21 18 17 19 19 18 19 24 27 32 36 38 39 42 48 52 53 56 57 58 58 57 55 50 45 45 44 42 43
15 25 12 14 16 25 30 33 31 29 28 31 28 25 21 20 18 16 16 18 21 22 26 29 33 36 39 42 46 48 49 49 50 53 55 55 53 51 47 41 38 39 39 41
14 6 13 14 21 29 29 32 33 31 28 28 25 21 22 18 19 17 18 20 21 24 26 30 33 38 43 45 47 45 44 46 48 49 50 47 44 40 41 40 38 38 39 39
24 21 13 15 26 23 26 29 27 20 26 27 25 23 23 21 20 19 19 20 22 25 27 30 34 39 43 43 43 42 41 41 44 46 45 43 43 42 41 41 42 37 36 37

GFSCGP_850_spd_024.txt.gz
Wind_Speed
8 4 6 11 12 11 4 8 10 9 9 10 10 9 9 21 27 28 26 15 27 22 11 13 15 16 15 13 9 2 5 10 10 13 14 18 23 20 21 25 23 25 28 34
3 6 13 9 8 9 8 9 10 8 7 6 8 10 15 18 18 23 9 26 24 19 14 14 16 20 24 24 23 18 11 4 5 6 8 10 10 11 15 16 22 23 23 28
9 7 8 4 5 10 9 9 9 9 7 7 6 7 9 12 15 23 28 26 21 17 14 15 19 22 22 24 25 22 18 12 5 1 8 10 13 14 13 16 19 21 24 24
9 5 4 5 9 6 8 6 3 3 3 4 8 7 2 10 3 14 21 21 16 13 13 16 20 23 25 24 23 23 21 18 13 7 3 3 4 4 5 6 12 15 20 24
1 4 2 5 6 2 2 5 4 4 6 6 8 5 4 7 11 9 14 17 14 13 13 15 18 20 22 23 22 23 22 22 18 13 9 4 4 4 7 8 11 13 15 16
7 5 3 4 1 2 4 4 7 8 3 3 7 4 3 4 7 6 12 17 14 13 14 14 15 17 19 19 20 20 20 20 21 20 17 13 8 7 4 4 7 8 10 11
4 7 5 2 2 3 2 3 4 3 2 5 7 6 6 3 11 11 16 19 16 13 13 14 15 16 16 16 15 16 17 19 18 17 16 18 15 16 12 8 6 6 8 9
4 5 6 5 2 2 5 3 3 5 2 7 5 7 5 5 20 26 24 20 15 13 12 12 12 11 12 13 13 13 12 13 14 14 15 13 15 17 15 15 14 11 9 10
3 2 3 2 2 3 2 3 1 2 2 1 5 6 10 8 10 17 20 19 14 10 8 6 6 8 8 8 9 11 13 12 11 10 11 13 16 15 15 15 15 15 14 13
3 4 3 3 4 4 2 1 2 0 3 5 5 5 7 8 9 11 12 14 9 5 4 3 4 6 6 7 9 11 12 16 16 16 17 18 17 16 17 18 18 18 18 18
4 0 3 5 3 2 2 3 4 4 5 3 9 7 5 7 8 9 10 7 2 1 3 3 6 5 6 6 9 11 13 15 17 18 17 17 18 18 20 19 18 19 20 22
2 1 4 7 10 8 7 11 6 4 6 6 11 13 5 9 9 11 9 7 5 5 5 5 2 2 6 9 11 14 18 21 22 22 23 22 22 23 22 22 22 22 21 21
2 1 2 9 2 4 3 3 4 8 0 9 9 6 5 9 8 9 11 13 12 9 5 4 3 4 8 11 14 17 19 23 25 25 26 26 27 27 27 26 26 25 24 23
3 2 5 8 9 9 6 12 12 3 5 10 14 18 22 7 6 13 17 15 11 7 6 7 6 8 8 11 13 16 19 21 23 25 27 29 28 29 30 32 33 34 33 33
3 6 7 13 13 13 10 14 16 13 15 15 23 22 23 21 12 2 4 4 4 4 9 9 8 11 13 14 16 18 21 22 23 23 25 27 29 32 34 36 37 40 40 40
4 4 1 7 4 8 15 21 16 17 20 21 21 23 17 11 7 3 4 3 3 5 8 9 9 10 12 13 16 21 24 26 26 27 29 30 32 34 38 40 41 41 41 43
2 3 2 6 1 3 8 19 18 15 18 17 18 12 2 3 4 5 4 6 9 9 9 9 13 15 15 16 16 19 21 21 24 30 33 35 37 38 39 39 40 42 44 45
4 4 2 4 4 4 9 2 4 8 10 5 1 3 6 4 2 5 7 14 12 7 8 12 13 15 20 24 24 23 26 25 32 35 37 38 38 41 43 45 47 48 50 52
16 7 4 3 6 8 12 8 9 5 12 1 3 6 6 4 8 10 7 3 6 11 13 14 15 17 19 21 25 28 30 33 36 38 39 39 40 43 47 50 53 55 55 57
7 11 6 2 4 7 1 5 5 2 10 8 7 5 3 3 1 5 10 16 20 19 18 17 18 21 24 25 28 31 34 36 39 38 41 44 47 48 49 50 51 53 52 54
3 1 11 12 7 7 1 6 7 4 10 7 13 6 7 5 12 24 20 18 18 16 16 18 22 23 24 27 31 34 37 38 41 44 48 51 51 52 51 52 51 52 52 53
6 5 4 2 3 10 3 5 6 4 2 6 12 17 18 22 27 21 20 20 17 15 20 24 26 25 27 30 34 36 40 45 49 51 52 53 52 52 52 51 51 49 45 44
3 7 4 8 5 4 10 13 14 16 17 24 23 25 27 28 23 22 21 17 19 22 23 25 26 28 29 31 34 39 44 48 50 50 51 51 51 51 48 46 43 42 39 37
5 17 7 1 8 16 33 32 31 33 32 28 23 27 25 24 25 23 22 23 24 23 24 25 26 28 29 31 36 42 44 44 46 48 49 49 49 49 44 41 40 40 40 39
12 3 9 14 16 26 31 33 35 36 34 33 31 27 25 27 24 22 23 23 23 24 23 24 25 27 30 35 40 40 39 41 44 45 46 47 47 43 41 39 38 36 37 38
23 21 14 13 19 22 24 29 27 24 24 20 24 28 29 29 27 23 22 23 23 23 22 23 24 27 32 37 38 36 36 37 40 43 44 43 41 41 40 40 42 35 33 34

GFSCGP_850_spd_027.txt.gz
Wind_Speed
5 4 6 11 10 6 3 3 4 5 9 4 9 6 10 21 28 20 7 20 19 19 15 16 17 17 17 15 11 5 5 6 8 10 11 13 15 16 17 18 19 23 24 25
4 6 13 6 5 6 4 4 6 5 5 2 7 9 13 17 4 4 23 22 18 17 18 20 20 21 24 23 22 17 10 4 2 4 4 4 7 13 14 15 18 18 19 23
8 8 8 7 5 4 3 4 5 8 3 4 4 6 8 3 21 23 22 21 19 20 21 21 22 23 23 24 24 21 18 13 9 4 2 6 8 6 7 9 13 13 16 19
6 6 7 7 6 6 5 3 4 3 2 3 3 5 4 2 7 9 15 20 20 20 20 20 21 23 25 25 23 22 19 17 14 11 7 5 3 2 4 5 8 13 16 18
6 6 3 3 5 7 7 2 2 3 4 2 5 0 7 9 5 4 12 20 20 18 19 20 21 21 21 21 23 22 21 20 20 17 13 9 5 2 4 7 9 11 12 13
5 1 3 6 2 2 3 2 4 2 3 1 5 5 5 4 8 6 13 20 19 16 16 17 17 16 17 17 17 17 18 18 17 16 16 15 12 8 5 5 8 9 9 8
2 5 2 3 2 4 4 4 3 4 1 5 2 2 7 5 5 14 16 21 17 14 14 14 14 15 15 15 16 15 14 14 14 13 12 12 12 12 11 11 10 9 10 11
4 4 7 3 5 5 5 5 4 5 3 4 7 5 4 9 25 28 27 20 14 11 11 12 12 13 14 14 14 13 13 12 12 13 14 13 12 13 14 13 14 13 13 13
5 5 2 2 3 7 4 4 3 2 1 3 4 5 8 9 12 18 20 18 14 10 6 7 9 10 10 10 9 10 9 10 11 11 12 13 13 13 15 15 15 17 17 15
2 3 3 1 4 2 2 1 2 2 1 4 5 4 4 5 10 8 9 13 11 7 3 2 5 8 8 7 6 7 8 10 11 10 10 11 14 14 15 15 16 17 19 20
3 4 4 3 4 5 1 1 2 2 4 4 2 5 4 6 11 10 13 14 12 8 6 5 4 3 2 2 6 8 8 10 12 14 15 14 14 15 16 17 17 16 18 22
2 4 4 8 5 3 6 6 5 3 5 3 3 11 3 8 15 17 17 15 11 10 8 7 7 4 2 1 3 6 11 14 15 17 18 19 19 19 19 21 22 22 22 21
5 1 2 8 4 2 1 1 4 3 2 6 5 5 2 7 10 13 15 16 13 13 9 7 7 6 4 1 3 6 11 15 18 19 21 23 24 26 26 27 28 28 30 29
6 3 6 8 4 2 3 7 1 4 2 3 8 7 16 13 6 12 18 17 13 15 10 8 8 8 6 6 7 7 9 16 17 19 21 23 25 28 30 32 34 36 37 38
6 6 4 6 2 3 4 10 11 6 10 8 20 17 19 17 9 7 4 4 11 13 13 14 13 15 11 11 13 14 16 20 22 24 25 26 29 32 34 36 37 37 37 38
1 2 2 4 2 4 8 18 12 14 16 15 19 22 18 5 3 6 8 8 8 8 5 6 11 15 15 14 14 15 17 19 23 26 27 29 33 35 36 37 39 42 45 47
5 5 3 6 2 4 7 15 16 12 11 7 9 10 1 4 5 7 6 5 6 8 7 6 7 9 11 11 13 17 19 21 23 26 28 32 34 36 37 40 43 46 48 51
5 6 3 4 4 2 9 4 5 8 7 4 2 5 10 8 7 6 6 9 11 9 10 12 13 13 14 16 17 20 21 24 26 29 32 34 35 37 40 44 48 51 52 54
9 5 1 4 5 6 13 6 5 5 7 6 5 4 9 8 3 5 5 3 3 9 14 14 11 13 15 18 21 21 22 25 29 31 33 35 39 44 47 49 50 50 51 53
6 5 6 2 5 9 7 4 10 7 8 10 12 9 10 6 1 5 6 13 19 20 21 18 15 19 21 22 22 24 26 29 31 33 36 41 44 46 47 47 48 48 49 52
4 1 15 14 6 7 7 8 8 5 8 6 9 15 13 5 13 16 16 20 20 21 18 18 20 21 21 21 24 26 27 29 33 38 42 44 44 45 45 47 47 48 48 48
7 7 5 2 1 9 12 4 7 9 10 11 13 13 15 20 23 22 25 21 19 21 21 21 21 21 22 23 24 26 27 31 37 41 42 43 42 43 44 44 46 45 42 42
1 7 5 10 7 6 20 11 17 19 17 15 15 20 24 24 23 21 22 22 24 22 24 24 23 24 24 24 25 26 29 36 39 40 42 41 42 42 41 42 44 41 38 39
5 3 5 3 5 12 23 29 28 25 24 28 30 28 25 22 25 22 23 25 25 25 24 25 26 25 23 23 23 27 32 36 37 39 39 40 41 41 41 39 35 34 35 37
10 6 6 8 12 21 28 33 34 35 34 33 33 30 29 26 25 24 26 27 27 28 27 26 25 23 23 22 24 28 31 34 36 36 36 38 39 39 39 34 32 33 33 33
19 18 11 13 22 19 25 33 29 27 27 27 24 26 22 23 26 25 26 26 27 27 26 26 24 24 23 23 26 28 30 32 33 33 34 36 37 37 36 35 36 31 31 31

GFSCGP_850_spd_030.txt.gz
Wind_Speed
3 4 7 12 11 4 3 4 5 4 7 2 8 5 13 20 19 4 17 17 17 19 17 17 18 18 17 15 11 8 2 3 4 5 7 8 8 9 10 11 13 15 16 18
4 7 14 3 5 7 4 5 6 6 5 1 7 9 12 8 6 12 19 17 17 18 18 19 20 21 23 23 22 18 16 11 7 3 2 1 4 7 9 9 10 12 14 13
8 7 6 6 5 5 5 5 5 7 5 3 4 6 7 6 16 20 17 18 17 18 19 20 21 24 25 27 27 25 22 19 17 12 5 1 3 3 5 8 6 9 11 11
5 9 5 4 4 4 5 6 6 4 3 3 3 5 6 3 6 11 15 17 17 18 19 20 22 24 26 26 24 24 24 24 22 19 15 12 8 6 4 5 5 10 14 14
6 4 3 4 7 8 7 4 3 1 2 1 3 0 6 6 4 5 11 16 16 16 18 19 20 21 21 20 21 21 20 20 21 21 20 18 15 12 9 6 6 8 10 12
6 1 5 7 2 4 4 4 5 4 3 2 6 6 5 4 5 7 12 16 16 15 15 17 17 18 19 19 19 20 19 19 18 17 17 17 16 16 14 13 13 12 11 9
1 4 2 3 4 2 5 5 2 3 2 5 5 3 6 7 2 15 17 18 15 13 13 14 16 17 16 16 17 18 17 16 16 16 14 14 13 13 14 16 16 16 16 16
6 4 8 4 5 7 5 7 5 6 3 4 5 5 3 4 13 23 21 19 15 12 10 11 10 11 10 10 10 10 8 7 7 8 10 10 9 11 12 12 13 14 15 17
5 5 1 1 2 6 4 4 2 5 2 3 4 1 3 3 5 13 17 15 14 12 8 4 4 6 6 6 6 6 7 8 8 9 11 11 11 12 15 16 17 16 15 16
5 1 2 1 2 2 4 5 3 2 2 5 5 5 5 8 9 7 10 14 13 12 8 4 4 5 6 6 5 3 3 4 6 8 8 9 11 13 15 17 18 19 19 19
5 4 3 3 5 8 2 2 2 3 5 5 2 6 3 9 12 13 17 20 19 16 11 9 8 6 7 5 1 2 2 4 5 6 7 9 11 13 15 17 19 20 21 23
4 4 4 6 2 1 3 6 6 4 5 3 3 11 2 8 17 19 19 18 19 16 13 13 12 9 7 6 4 2 2 4 7 9 11 13 14 16 18 19 21 23 25 26
7 1 2 6 5 2 4 3 4 5 3 5 4 6 1 5 9 18 10 14 19 18 17 15 13 12 9 7 5 3 2 6 11 14 15 17 19 20 22 24 25 27 29 30
9 5 7 9 5 3 3 5 4 5 3 3 8 5 6 5 7 10 12 15 20 22 21 17 15 13 12 9 7 7 8 10 14 16 18 20 21 24 27 28 30 31 32 34
4 5 3 3 5 3 5 8 7 8 6 7 16 9 15 7 5 13 13 10 12 18 21 18 15 14 13 12 10 12 12 13 17 19 20 23 25 27 29 31 33 35 38 42
3 1 3 2 3 5 6 14 6 11 13 11 14 19 15 21 11 4 7 9 10 15 18 17 17 19 19 17 17 16 16 17 19 21 23 26 28 30 31 32 35 39 43 46
6 6 4 5 2 3 8 9 16 12 9 8 11 13 1 5 9 13 13 12 10 11 12 14 13 13 16 18 19 19 18 19 20 21 23 26 30 31 32 36 41 45 48 50
5 5 2 2 3 2 6 2 3 10 7 7 2 4 7 10 13 13 16 14 13 13 13 15 14 15 16 17 17 17 18 19 21 23 25 28 29 32 36 42 44 46 48 50
2 4 3 4 5 6 12 6 7 7 8 7 7 3 11 14 8 10 14 13 11 8 9 13 16 19 21 21 20 20 21 21 23 25 28 28 31 36 40 42 45 46 47 49
3 0 5 4 5 10 7 1 11 6 5 9 15 12 11 12 3 6 17 14 14 14 17 19 20 20 22 22 21 21 20 22 23 25 26 31 36 38 41 41 43 44 45 48
3 1 13 10 4 8 8 8 6 5 7 10 11 14 14 6 18 12 11 18 18 18 18 20 22 23 23 22 21 22 23 24 25 26 29 33 34 38 39 40 42 43 44 45
7 8 5 3 4 8 13 6 7 6 6 7 14 19 22 23 20 19 22 23 21 19 19 22 24 25 25 24 23 24 25 25 25 28 33 33 34 35 36 38 40 40 42 43
2 7 6 11 7 4 21 16 29 25 18 18 21 23 24 22 24 26 25 22 22 17 20 22 25 27 25 24 24 25 25 25 26 31 33 33 34 33 34 36 37 38 38 37
4 5 4 4 5 8 15 24 21 20 26 28 27 26 27 26 28 27 24 26 25 21 22 22 24 27 25 24 24 25 26 26 28 31 32 32 33 33 34 33 32 33 34 34
7 7 4 3 7 18 22 26 29 35 36 34 33 31 33 33 29 27 28 26 23 23 24 25 26 27 25 24 24 25 25 25 28 30 31 30 31 32 33 32 29 30 31 29
14 13 5 7 24 21 23 28 29 31 31 31 32 27 27 28 26 26 25 25 25 24 25 27 27 26 24 24 24 24 25 26 28 29 30 29 29 30 30 31 31 23 27 28

GFSCGP_850_spd_033.txt.gz
Wind_Speed
3 4 7 13 11 3 2 4 4 3 5 1 6 5 12 14 11 16 15 14 15 17 17 18 18 19 18 17 16 15 9 10 6 4 2 2 2 3 3 6 9 10 12 13
4 7 13 4 5 5 2 2 5 6 4 3 6 10 3 10 7 12 16 15 16 17 17 20 21 23 24 26 26 25 24 20 17 12 10 8 5 2 1 3 6 8 9 11
8 6 5 7 4 5 4 5 5 8 3 1 3 6 2 6 15 16 15 15 15 16 18 20 22 24 25 27 28 28 28 27 25 20 14 9 5 4 1 2 2 5 8 10
5 5 4 4 5 7 4 8 7 3 3 4 1 5 6 5 5 7 13 14 15 16 18 19 20 22 24 26 25 26 26 26 27 24 23 22 20 18 15 12 10 10 10 11
7 5 4 5 8 6 7 4 4 2 2 3 4 1 6 6 3 5 9 13 15 16 17 18 19 21 22 22 23 23 23 23 24 23 24 23 21 19 16 14 12 12 12 11
6 1 4 6 3 6 5 4 6 4 3 1 7 7 4 5 3 6 12 15 15 15 15 16 18 18 17 17 16 16 15 17 16 14 14 14 13 12 10 11 11 11 11 11
1 4 2 3 5 3 4 5 2 4 2 5 3 1 7 4 5 11 16 20 18 16 15 15 14 12 11 10 12 12 10 10 10 10 11 12 11 10 11 12 12 11 13 15
7 3 8 4 6 6 6 7 5 7 3 4 2 6 5 1 2 19 27 24 20 17 16 13 9 7 6 6 7 7 7 8 8 8 9 9 9 11 12 13 15 15 15 17
6 4 2 3 2 5 5 5 3 5 2 3 4 4 2 3 4 11 19 20 22 20 17 13 8 4 1 3 3 3 4 5 5 6 7 7 8 9 10 12 13 14 16 17
5 2 1 1 3 4 4 6 4 2 2 5 4 5 5 7 10 7 10 21 20 19 18 15 10 5 2 2 1 0 1 2 3 4 5 7 8 9 11 12 14 16 18 19
5 4 2 3 5 8 2 2 3 3 5 6 2 6 5 11 13 14 19 22 20 21 20 15 11 7 6 5 4 4 4 2 1 2 4 6 8 10 12 14 16 18 20 22
5 4 4 8 1 1 3 7 7 5 6 3 1 12 5 6 15 22 23 19 19 19 19 17 15 12 11 9 8 8 6 3 1 4 6 8 10 12 14 15 17 19 21 22
8 1 2 6 4 2 4 4 4 4 4 7 6 6 3 5 11 21 21 14 11 17 24 22 20 18 14 12 11 10 8 6 4 7 10 13 15 17 19 21 23 24 26 27
9 5 8 13 6 5 5 5 5 5 3 4 12 5 2 4 7 13 15 9 14 19 26 27 23 19 16 15 13 11 9 8 8 10 13 16 18 20 23 25 26 27 28 31
4 5 2 1 4 4 3 5 9 8 7 11 8 12 6 10 9 17 18 17 17 19 23 26 24 20 18 16 15 12 10 11 13 15 16 19 21 24 26 28 28 29 32 36
1 2 3 2 2 1 4 7 9 10 7 8 9 18 7 7 13 13 12 13 14 14 16 21 21 19 18 16 16 15 16 17 18 19 20 23 25 27 29 30 30 33 37 41
6 6 4 7 2 3 8 12 15 10 6 8 11 17 3 6 9 12 13 13 12 11 13 16 18 19 17 19 20 21 23 23 22 23 23 25 27 29 31 31 33 37 40 43
6 5 2 3 2 6 3 2 3 8 10 7 3 3 7 6 6 11 10 12 13 12 13 15 16 16 15 16 22 26 28 26 24 24 24 26 28 31 30 32 36 38 40 42
3 6 4 4 5 7 9 5 7 7 9 9 10 8 6 5 8 17 15 17 16 14 15 15 15 17 18 21 25 25 25 25 26 26 26 28 29 29 31 34 35 38 41 41
3 4 4 3 5 8 6 2 5 6 6 10 16 10 11 6 1 7 18 19 19 17 17 17 17 21 25 25 26 27 27 27 27 27 27 28 27 29 33 34 36 38 39 40
4 1 9 6 7 8 6 6 6 6 8 14 19 14 13 6 16 21 15 14 16 18 21 20 21 24 24 27 29 30 30 29 27 27 26 27 27 30 32 33 35 37 39 40
7 7 4 2 3 9 12 8 8 5 12 17 18 14 13 18 21 23 22 18 17 22 26 25 24 23 26 30 33 33 32 29 26 26 27 27 28 29 30 32 34 35 36 38
2 7 6 11 8 1 22 8 24 19 16 16 16 11 17 22 25 29 27 25 26 25 26 28 26 26 28 32 34 34 31 27 26 27 27 27 28 28 28 31 32 34 34 36
4 6 4 4 4 7 12 16 16 19 27 26 22 21 25 28 30 30 29 27 30 27 28 29 30 29 30 32 34 33 30 28 27 28 28 27 28 28 28 29 29 31 31 34
6 10 5 2 4 5 15 21 25 24 27 28 30 31 28 28 30 32 34 35 31 28 29 28 29 29 31 34 33 31 29 28 27 28 28 27 27 27 28 28 27 28 28 30
11 7 4 5 12 13 16 25 22 22 26 28 29 29 30 31 32 31 33 32 27 27 26 28 28 29 31 32 31 29 28 28 29 29 27 26 27 27 27 28 29 21 25 25

GFSCGP_850_spd_036.txt.gz
Wind_Speed
3 4 8 12 10 2 5 4 5 3 3 2 6 7 7 6 11 11 11 11 12 14 15 16 18 19 20 20 20 18 14 14 11 9 8 7 5 6 4 2 4 7 7 9
4 7 10 4 4 5 3 3 5 5 3 5 4 9 3 5 3 9 14 13 13 15 16 19 22 24 25 26 27 26 26 23 20 17 16 14 12 9 8 6 5 6 8 10
8 5 7 7 5 6 5 6 4 7 2 1 2 7 3 4 9 9 10 13 14 15 17 19 20 23 24 25 26 27 29 29 29 29 26 22 18 13 9 9 7 8 9 8
6 4 6 4 6 7 5 8 6 4 3 4 1 4 4 4 5 6 11 13 15 15 16 18 19 21 23 26 25 24 24 23 23 21 19 17 18 17 16 14 13 11 9 9
7 7 5 7 6 7 6 5 6 4 4 1 3 1 6 4 5 6 11 13 14 15 15 17 18 19 20 20 18 18 18 18 17 17 17 16 16 15 13 12 10 11 11 11
4 2 6 7 2 5 9 6 7 5 3 1 8 7 3 5 4 5 14 17 19 19 18 18 18 17 16 15 13 13 13 15 13 13 13 13 13 12 9 10 10 11 12 12
1 4 2 3 5 3 5 6 1 3 1 5 1 2 8 7 5 7 19 25 21 18 18 18 16 14 12 10 9 9 9 10 9 8 9 10 9 9 10 11 11 11 12 14
7 3 10 6 6 7 6 6 5 7 4 4 1 6 6 2 5 8 22 26 22 20 18 16 12 10 7 6 5 5 5 6 6 6 7 8 9 9 10 10 11 12 14 15
6 4 1 2 3 4 5 4 4 6 2 2 5 4 3 1 3 7 19 25 25 23 21 16 12 9 6 3 1 1 2 3 3 3 5 6 6 6 7 8 10 12 14 15
6 3 1 2 4 5 3 6 4 3 1 5 4 4 5 6 8 6 11 26 27 24 22 19 14 10 7 4 3 3 2 2 1 1 2 4 5 6 8 9 11 13 15 16
6 3 2 4 6 9 3 3 3 4 4 5 2 5 5 7 8 14 18 28 26 25 24 21 16 12 9 8 6 7 5 4 3 2 3 5 7 9 10 12 14 16 17 18
8 5 4 6 2 2 1 6 6 5 5 2 2 8 3 3 14 24 26 28 24 22 21 20 19 17 14 11 11 10 10 8 6 4 4 6 8 10 12 14 15 18 19 20
9 2 2 5 3 3 4 4 3 4 4 7 5 8 3 4 10 21 24 24 19 16 17 20 24 25 19 15 14 13 13 11 9 8 8 10 12 13 16 18 20 22 23 24
8 5 7 9 6 6 5 5 5 5 4 5 12 13 2 4 7 12 19 19 15 12 12 19 26 27 24 19 17 17 17 14 13 12 13 14 15 18 20 22 23 25 26 27
4 6 3 3 3 4 6 7 11 10 11 12 14 14 8 11 10 20 27 20 15 15 17 19 22 26 26 23 20 19 18 17 16 16 17 17 18 20 22 24 26 28 28 29
3 2 3 1 2 4 3 9 8 15 5 5 4 12 5 10 10 12 20 22 21 17 16 14 18 23 25 23 21 20 20 20 19 20 21 20 19 22 24 27 28 30 30 32
6 6 4 5 3 5 8 11 14 6 7 10 12 13 5 5 12 21 21 20 18 16 15 17 18 20 22 21 19 20 21 22 24 25 24 22 23 25 26 28 31 32 33 35
6 5 1 4 3 7 3 4 2 13 6 6 1 4 8 7 14 14 14 13 14 17 19 17 15 15 16 16 17 18 22 27 29 28 27 24 25 28 28 31 32 32 35 35
2 5 3 4 6 7 3 5 7 7 9 10 11 12 9 9 6 11 12 11 13 14 14 13 12 13 14 17 20 21 24 28 30 29 27 26 27 29 31 32 32 33 34 34
4 3 5 3 4 8 2 2 8 6 8 11 21 11 11 10 2 5 8 8 10 13 15 15 13 14 17 20 23 26 26 27 29 29 29 29 29 29 32 32 32 34 34 34
3 1 7 4 5 7 5 7 12 6 7 9 21 16 17 5 11 9 12 14 15 16 17 15 16 20 22 21 22 24 27 30 30 31 32 30 28 29 31 32 32 33 33 33
7 8 4 2 3 10 14 5 8 5 6 12 15 17 18 13 10 11 14 18 19 20 19 17 21 25 25 24 23 24 28 30 32 33 31 29 29 29 32 32 32 31 31 33
3 6 6 10 6 1 28 4 17 9 9 13 15 19 19 14 13 14 16 20 24 25 24 21 22 25 29 29 28 28 29 32 33 32 31 30 30 31 31 31 30 29 28 31
4 4 2 3 4 6 21 18 8 14 15 15 16 18 19 18 18 21 19 21 24 25 27 24 28 29 31 32 32 30 31 33 34 33 32 31 31 30 30 31 28 28 26 29
5 9 6 1 0 4 12 16 16 17 17 17 18 19 21 23 25 20 24 24 24 25 30 30 30 29 30 32 32 32 33 34 33 32 32 31 31 31 30 29 27 26 24 27
9 7 5 4 12 11 9 16 17 21 20 17 18 22 23 22 24 23 25 24 22 22 26 28 26 26 27 29 30 33 34 33 32 32 32 31 31 30 29 29 26 22 24 24

GFSCGP_850_spd_042.txt.gz
Wind_Speed
4 7 12 18 16 5 1 4 8 3 1 3 11 13 12 8 6 8 7 7 6 6 8 10 11 13 15 17 18 20 20 20 20 18 16 15 12 11 7 5 5 3 2 1
4 13 15 2 9 8 6 9 13 5 3 5 9 14 15 12 9 10 11 11 11 11 12 14 15 17 18 19 19 20 19 19 17 16 15 15 14 13 12 10 8 6 4 3
13 2 9 9 8 11 11 13 12 9 2 4 6 15 19 6 7 9 11 13 14 16 18 20 21 22 23 24 26 27 27 25 24 22 19 18 15 13 11 10 9 9 7 7
9 5 7 11 12 13 15 13 10 7 4 10 3 8 4 8 10 13 16 17 18 19 21 24 26 27 28 27 26 25 24 22 22 19 16 12 11 11 11 10 9 8 7 6
6 10 11 11 8 12 6 5 10 8 10 6 8 7 4 3 11 15 18 19 19 17 20 24 26 27 27 25 23 22 21 19 18 15 12 10 10 12 11 9 7 7 7 8
4 1 5 5 3 4 13 7 5 2 3 9 16 13 6 7 8 12 20 22 22 21 23 24 25 26 25 24 22 20 18 17 16 14 12 9 10 11 10 8 6 6 6 7
4 9 4 4 5 3 6 10 4 5 6 8 2 11 12 8 8 10 26 30 27 25 27 29 29 26 24 22 20 18 15 13 13 11 10 9 8 7 5 3 2 1 0 1
10 8 15 13 18 9 15 18 6 7 6 3 2 8 5 1 5 6 21 28 28 27 29 30 29 26 24 21 19 16 12 9 10 9 9 9 8 7 6 5 4 2 1 3
10 7 3 4 3 13 8 11 3 4 1 3 6 4 6 4 5 6 16 24 28 31 33 34 33 29 26 23 19 15 12 12 11 12 12 11 11 9 7 4 2 1 3 4
4 5 2 3 4 1 6 11 5 5 5 6 4 5 8 9 13 11 16 26 29 29 33 34 34 30 26 22 19 17 15 14 13 13 13 12 10 7 5 4 2 1 3 5
6 4 3 5 12 18 7 7 6 3 4 4 3 5 5 11 15 17 22 27 32 33 36 38 36 32 28 25 23 20 18 16 15 15 13 12 9 8 6 4 2 3 6 8
9 3 6 11 0 2 12 11 15 7 6 4 2 6 5 4 8 16 20 24 28 32 35 37 37 35 31 28 26 23 20 18 17 16 15 14 12 9 7 5 4 6 8 11
12 4 4 4 4 2 8 10 11 8 2 11 7 5 3 3 5 11 16 22 27 32 35 37 38 37 33 31 28 25 22 20 20 20 19 17 14 12 10 8 7 8 10 12
22 9 13 16 6 10 11 16 17 17 11 14 19 8 7 9 10 13 17 21 27 33 35 36 36 37 35 32 30 27 25 23 23 23 22 20 17 15 13 11 11 10 13 15
12 13 21 26 15 7 6 17 22 25 31 16 21 18 15 17 15 21 23 21 24 30 34 37 37 37 35 32 32 29 28 26 26 26 26 24 21 19 18 15 14 14 15 16
3 12 17 19 16 12 10 15 27 29 27 24 15 15 8 22 13 14 19 23 28 34 35 35 35 32 30 30 29 30 31 30 29 29 28 26 24 23 21 20 19 18 18 18
12 12 7 18 20 3 7 32 20 21 21 23 21 15 7 7 13 20 20 26 33 33 35 33 31 25 23 23 23 25 29 31 30 30 28 28 27 27 26 24 23 23 21 20
7 10 5 3 7 10 7 1 17 18 11 11 1 4 12 8 15 16 19 25 25 29 30 29 22 21 19 18 19 21 24 28 28 27 28 29 31 30 30 29 28 27 24 21
2 8 4 5 9 7 1 4 8 12 12 10 12 5 7 8 8 8 18 17 17 20 24 22 17 16 17 19 20 21 22 24 25 26 27 29 30 32 32 32 31 29 27 24
1 3 7 4 6 10 2 5 5 4 6 7 13 8 10 13 6 7 19 17 16 17 18 16 16 18 19 20 20 20 19 20 23 26 26 24 26 28 30 31 31 30 28 27
5 3 12 7 6 4 2 6 7 7 3 7 18 20 22 7 8 6 15 20 19 17 15 14 16 16 17 20 21 19 19 22 24 23 24 25 25 26 29 31 32 30 29 28
10 9 5 3 5 10 9 7 8 3 6 13 17 20 24 17 13 17 20 20 18 16 14 10 10 13 18 22 23 19 20 20 22 23 24 25 25 26 30 32 31 30 30 30
5 4 5 9 4 2 20 3 9 18 22 14 18 20 18 19 22 21 20 18 15 14 12 11 13 17 23 26 25 20 19 22 25 27 27 29 30 29 30 31 31 30 30 31
5 2 0 2 2 2 18 6 15 14 17 17 16 17 17 16 20 22 19 17 14 13 14 16 20 22 24 28 30 23 23 24 27 31 32 32 32 31 30 31 31 31 31 32
1 7 5 1 1 4 14 16 21 17 16 19 17 15 17 19 19 20 20 19 18 16 17 18 20 21 22 26 35 32 27 27 30 31 31 30 31 31 30 30 31 31 31 31
7 6 5 3 11 6 16 27 25 25 23 19 17 17 17 17 19 19 22 22 22 21 19 20 21 22 22 25 30 36 35 33 29 28 28 29 29 29 30 31 31 31 31 32

GFSCGP_850_spd_045.txt.gz
Wind_Speed
11 9 14 18 16 17 8 10 12 8 4 4 13 15 12 17 15 16 14 13 11 9 8 8 9 12 13 16 17 18 19 20 18 17 17 16 15 15 11 8 7 5 4 2
5 16 18 13 11 14 13 15 16 13 4 4 12 17 15 17 23 21 18 16 14 11 9 10 12 15 17 19 20 20 20 20 19 18 18 17 16 15 14 13 10 9 7 6
17 4 8 10 8 12 16 16 14 14 2 10 12 19 22 24 19 14 15 15 14 14 13 12 14 15 18 19 20 20 19 17 16 17 19 20 20 18 15 13 10 9 7 6
14 14 5 10 16 15 16 14 14 12 7 10 6 10 12 11 16 17 18 19 19 18 16 15 16 18 20 22 23 23 23 23 23 21 18 15 15 16 14 12 10 7 5 4
6 10 12 13 12 11 8 2 7 11 14 15 18 9 13 7 14 18 23 24 23 22 20 20 20 24 26 27 27 26 24 23 20 16 14 13 13 13 13 11 9 7 5 5
14 2 7 11 3 7 10 5 2 3 8 12 18 16 14 13 14 13 23 26 27 26 24 23 26 28 29 29 28 26 24 21 18 16 14 12 11 12 12 10 7 5 5 5
14 16 6 6 6 3 12 7 4 5 6 8 1 13 17 2 5 9 24 30 29 26 25 24 29 29 29 28 27 25 22 19 18 16 15 14 12 10 8 7 5 4 3 3
15 10 22 17 22 10 18 17 6 6 6 5 2 9 7 3 8 6 20 27 28 28 27 28 31 30 30 29 27 24 22 19 18 16 13 12 11 9 6 4 4 4 3 2
12 11 6 7 10 16 7 12 13 4 2 4 7 10 7 7 7 8 21 28 31 32 31 33 32 32 33 31 28 25 22 19 18 16 14 12 10 11 9 8 6 5 4 3
5 6 5 5 4 4 9 8 6 6 6 8 9 14 10 9 15 14 20 28 29 30 31 34 37 37 35 32 29 26 22 19 17 16 16 15 13 11 10 9 7 6 4 4
8 7 6 7 11 17 7 9 8 6 9 4 5 7 9 13 16 20 21 28 34 36 36 37 40 39 37 34 32 29 25 22 20 19 18 16 15 15 13 11 8 7 5 3
14 4 11 14 4 9 17 14 20 6 6 6 4 11 3 3 11 21 24 28 31 35 36 37 39 40 38 37 34 31 28 25 22 21 20 19 19 17 15 12 10 8 5 5
13 5 3 4 1 2 9 15 16 19 1 14 8 8 3 6 8 17 23 26 30 32 33 34 37 42 42 39 35 33 30 27 25 24 23 23 22 20 17 14 12 10 7 6
15 6 11 18 6 8 9 16 22 17 12 17 25 17 6 10 12 15 20 23 28 34 36 37 38 42 43 40 38 35 32 29 27 25 25 26 24 21 19 16 15 12 10 9
11 9 17 23 22 11 8 14 23 28 34 17 32 24 14 16 15 22 23 23 26 29 33 37 38 39 41 41 38 34 32 31 29 27 28 29 27 25 23 20 18 15 13 13
3 5 13 22 21 20 21 19 23 30 30 31 32 29 5 20 22 16 21 23 26 29 34 37 37 39 41 42 40 35 32 32 31 31 31 30 30 29 26 22 21 19 18 18
11 7 6 17 10 14 5 38 24 26 30 24 28 31 4 6 11 16 17 19 25 31 35 35 39 40 41 42 36 32 29 30 32 33 32 31 32 30 27 25 24 24 23 23
10 13 7 9 5 11 20 10 15 29 26 21 21 1 2 10 16 20 16 27 29 27 26 30 33 30 34 31 28 26 27 29 31 33 33 31 30 30 30 29 28 28 28 27
3 10 5 6 11 11 16 5 8 12 23 22 10 9 8 14 9 8 18 22 20 22 27 28 28 28 25 24 23 23 24 26 28 29 31 29 30 31 32 31 31 30 30 30
1 5 7 4 6 10 2 5 2 7 10 10 17 13 10 14 7 7 22 16 19 18 18 21 24 23 21 21 21 21 22 23 24 25 25 26 28 29 30 30 31 30 31 31
4 3 13 13 6 5 3 7 6 7 2 4 17 18 18 6 6 8 16 23 19 19 20 22 22 19 17 17 18 20 22 23 21 19 21 23 24 26 26 28 29 31 32 32
11 9 6 6 5 10 11 4 7 1 6 14 15 18 21 15 11 10 17 21 22 22 21 19 17 14 13 14 19 23 24 20 18 19 22 23 24 26 28 28 30 30 31 32
5 4 4 3 1 3 9 1 7 5 6 5 12 16 17 17 13 17 22 23 23 22 19 17 14 12 11 15 20 24 23 22 19 21 23 25 27 28 30 32 32 31 31 31
3 3 4 4 1 1 3 3 7 7 7 7 10 14 18 19 18 20 22 22 21 20 17 14 13 13 13 15 21 25 27 26 23 24 25 28 31 31 32 33 34 33 32 32
2 7 5 4 4 5 8 9 12 14 14 10 13 15 17 18 18 18 20 20 19 15 14 15 16 17 17 19 22 23 27 33 30 29 28 30 32 33 33 33 33 34 33 32
6 5 4 3 17 8 16 23 26 26 23 18 17 17 15 13 14 18 22 21 19 17 16 18 20 21 20 21 22 25 27 34 38 35 33 32 32 33 32 32 33 33 33 33

GFSCGP_850_spd_048.txt.gz
Wind_Speed
9 4 9 13 12 11 9 8 8 5 4 6 9 11 10 23 22 21 22 21 18 15 16 11 9 10 9 11 13 15 18 19 17 17 17 16 15 14 15 13 10 10 10 8
3 10 12 9 9 6 10 10 9 8 8 3 7 11 9 16 21 32 30 26 23 22 16 13 13 14 15 16 17 20 22 22 22 20 19 17 17 17 14 15 15 13 11 9
9 4 8 13 5 5 8 8 7 8 5 4 6 8 12 11 25 28 28 27 26 28 20 18 19 20 21 21 22 23 23 22 20 19 19 20 20 20 19 17 15 14 11 9
10 16 4 6 8 8 9 7 11 7 4 4 7 5 6 9 13 16 27 23 27 25 21 21 23 24 25 26 25 25 24 21 20 20 22 24 23 21 18 16 13 11 9 7
6 8 10 8 7 9 5 4 2 1 6 5 8 9 9 15 18 13 20 29 26 27 27 26 26 27 27 26 27 26 25 25 27 27 24 21 20 19 17 14 12 10 8 6
6 2 4 5 5 0 8 5 2 1 1 6 12 13 7 13 14 7 19 28 30 30 28 26 27 28 30 30 28 28 29 29 26 23 20 18 17 16 15 13 10 8 7 5
7 8 3 5 5 4 5 6 2 2 2 7 1 9 16 4 2 6 18 30 34 34 33 32 33 33 33 34 33 32 30 28 25 23 21 19 17 15 13 11 9 7 5 4
11 5 17 9 12 7 9 9 5 7 5 4 3 7 6 2 9 3 27 32 34 36 35 36 35 36 37 37 36 34 32 30 26 24 22 20 18 16 13 10 8 5 2 0
8 8 7 9 4 8 5 9 9 3 2 2 6 7 7 5 3 4 21 31 33 37 37 38 38 39 40 39 37 35 33 30 27 24 21 20 18 14 11 8 6 7 6 5
4 3 1 3 6 3 4 5 3 2 3 6 5 9 10 6 11 8 15 28 32 35 37 39 40 41 40 39 36 35 32 29 27 25 22 20 17 14 12 11 11 10 8 6
5 3 1 6 8 13 4 4 5 5 5 4 5 8 3 13 14 18 17 30 37 40 41 43 43 44 43 40 39 37 34 31 29 27 24 21 18 16 16 15 13 11 9 6
10 2 5 8 3 3 7 9 10 5 7 7 2 20 2 5 9 20 23 29 33 38 41 43 45 46 44 43 42 39 36 34 30 27 24 22 20 20 17 16 15 13 10 8
12 5 1 4 2 3 6 8 18 14 2 19 6 13 4 7 4 17 21 28 33 37 38 39 42 45 47 47 45 41 39 36 31 28 25 24 23 21 19 18 17 15 13 11
20 5 10 18 5 6 8 11 19 19 10 6 25 14 2 4 6 9 23 30 32 37 39 41 43 46 48 48 46 44 41 37 33 30 27 25 24 22 22 20 19 17 15 12
12 14 9 20 16 4 5 12 20 24 28 16 25 25 17 12 12 23 28 28 32 35 38 42 45 47 48 48 47 45 42 38 35 32 29 27 25 25 24 23 21 19 16 15
2 6 10 23 11 17 18 11 15 25 25 28 26 32 7 19 28 18 25 28 29 33 42 43 43 43 46 48 49 47 44 41 37 32 29 28 28 28 27 25 24 22 21 19
8 6 6 14 9 13 10 32 24 22 24 23 25 35 6 7 9 20 28 31 33 33 38 40 41 42 43 45 46 47 45 40 34 31 30 30 29 30 29 27 26 26 24 22
12 14 7 8 6 11 10 7 25 27 28 24 25 14 7 12 27 31 36 38 37 34 32 33 34 34 36 39 39 42 37 34 33 31 30 31 31 31 29 29 28 28 27 25
15 12 6 7 11 10 11 5 8 10 21 21 25 18 10 12 11 7 24 28 27 23 23 22 18 27 32 34 35 33 32 34 31 29 29 30 31 30 29 29 29 29 28 27
1 13 10 3 6 9 2 4 3 7 13 8 18 15 10 17 8 4 19 16 14 11 11 14 23 27 28 27 27 30 32 31 29 26 24 25 27 29 28 28 28 28 29 28
4 3 13 13 8 5 4 5 1 6 6 3 4 14 19 8 7 15 15 12 11 14 20 24 22 24 23 23 25 27 25 23 19 19 20 21 22 23 24 25 27 28 29 30
9 9 4 5 4 8 5 1 8 2 3 2 7 13 19 9 13 16 18 21 22 24 23 21 21 22 21 19 17 16 16 14 16 17 18 17 17 19 21 23 25 27 30 31
4 5 6 6 4 2 5 2 3 3 4 3 7 11 17 15 13 14 16 18 19 20 20 20 20 19 16 13 11 11 12 15 17 19 19 19 20 22 23 25 26 28 30 32
2 2 3 4 2 3 3 6 10 4 3 3 3 8 14 16 15 16 18 21 22 21 21 21 19 16 12 10 10 11 15 18 20 23 22 22 24 26 27 28 29 30 32 33
1 5 5 1 0 3 13 13 12 8 10 4 2 4 9 11 14 15 20 21 22 21 20 18 14 11 10 11 11 13 14 16 21 26 28 27 28 29 29 29 30 31 32 32
4 5 4 4 10 4 7 18 17 17 14 7 5 6 9 11 15 16 17 18 19 20 18 15 12 11 11 13 15 17 18 21 22 25 30 31 30 29 29 29 30 32 33 33

GFSCGP_850_spd_051.txt.gz
Wind_Speed
6 4 8 12 9 5 3 3 4 5 4 5 9 8 10 23 22 23 27 30 30 28 25 21 17 15 14 14 14 14 17 21 23 23 24 23 22 20 18 16 15 12 10 11
3 8 11 8 8 8 8 8 9 6 4 5 6 11 9 11 22 32 37 37 37 32 29 24 20 19 17 17 17 20 22 23 24 24 24 23 22 22 20 19 16 15 13 12
8 7 10 9 6 7 7 7 5 8 1 3 4 7 8 9 26 31 37 39 40 42 36 28 24 22 21 20 21 25 28 27 26 25 26 26 25 24 23 21 20 18 15 13
9 11 4 5 7 8 8 6 6 6 1 5 4 9 7 5 10 11 34 39 41 43 36 28 25 26 26 24 26 28 27 27 26 25 26 26 26 27 26 24 22 19 15 13
9 8 8 14 8 9 7 2 2 3 4 1 3 4 6 9 12 18 23 31 42 46 40 33 29 28 29 30 32 31 29 29 28 26 26 26 27 28 28 25 22 19 16 12
6 3 7 8 2 6 7 5 6 4 2 5 12 9 7 9 16 11 11 28 40 43 38 32 29 31 34 34 33 33 32 30 29 28 28 28 30 29 28 25 21 18 14 10
3 5 3 6 6 3 5 7 1 3 1 8 5 8 20 5 8 10 12 27 37 42 39 35 35 37 38 38 37 35 33 32 32 32 31 28 27 25 23 21 19 16 14 12
11 7 13 8 8 8 8 9 6 8 5 4 3 8 6 10 14 13 16 26 40 41 40 39 37 39 39 39 38 37 36 36 35 33 30 29 26 24 22 19 17 15 13 11
7 7 4 1 4 12 6 9 4 2 2 1 6 7 7 4 7 4 13 28 38 43 43 41 37 38 39 41 40 39 39 37 35 32 31 30 27 25 21 19 17 15 13 9
4 2 3 1 5 3 7 6 3 1 2 6 5 6 9 6 13 8 9 20 29 37 40 39 38 39 40 40 41 40 39 38 35 33 31 29 27 24 21 19 18 15 11 9
5 4 2 3 6 13 5 5 5 5 5 5 3 8 6 11 11 12 15 29 35 39 41 40 39 39 41 41 42 42 41 39 37 34 32 29 28 25 23 21 18 14 13 12
13 4 5 9 4 3 3 7 6 5 7 5 2 20 5 3 4 15 20 27 33 36 39 40 40 42 44 45 45 44 43 41 38 35 33 30 29 27 25 21 18 17 16 15
10 5 1 4 3 2 6 8 17 1 3 15 5 18 3 2 3 10 16 24 31 34 36 38 41 45 47 47 47 46 44 41 38 36 34 32 30 28 25 21 20 19 18 17
21 6 14 20 6 7 7 10 13 18 9 8 24 27 1 4 6 7 16 22 29 34 38 40 43 46 49 49 49 48 45 42 40 38 36 34 32 29 25 23 23 21 19 18
13 13 8 18 5 5 7 13 20 21 31 15 32 25 17 10 11 18 18 20 27 33 38 43 46 48 50 51 51 49 46 45 42 40 37 35 32 29 27 26 25 23 23 21
3 10 12 19 9 8 8 9 19 24 23 26 28 34 7 18 20 17 26 29 34 37 41 44 45 46 49 53 53 51 49 47 44 42 39 36 33 32 30 29 27 27 25 24
10 7 5 18 8 8 8 33 21 20 17 22 25 40 5 11 10 17 27 33 39 40 41 44 47 47 47 49 51 52 51 48 46 43 40 37 35 34 31 30 29 28 27 26
7 12 6 11 6 12 14 9 28 30 33 24 24 21 9 18 32 37 33 33 38 40 40 41 42 42 42 42 43 45 45 45 44 45 41 37 37 35 32 31 29 30 30 29
18 12 7 7 13 10 14 5 9 13 25 26 29 29 30 24 18 20 25 34 36 38 38 38 38 36 35 33 32 33 34 38 42 43 40 39 37 34 33 30 35 33 31 29
5 18 12 5 7 11 6 2 5 6 17 11 23 25 22 14 9 18 24 20 27 27 26 27 28 28 26 23 25 28 29 33 38 40 38 35 32 29 35 34 33 30 29 28
6 6 16 15 10 4 5 5 1 8 6 2 4 8 14 8 13 13 15 18 18 19 19 18 20 22 17 21 24 27 30 31 31 31 31 30 30 29 28 29 29 28 27 27
9 9 5 6 4 9 11 3 8 3 1 0 1 3 14 11 10 15 19 19 19 18 20 21 23 21 20 20 22 23 23 20 22 23 23 23 23 24 25 25 25 26 27 29
5 6 6 9 5 1 7 2 3 2 3 3 4 6 13 13 13 17 19 18 18 17 18 18 17 20 18 17 17 16 14 16 17 18 20 21 22 22 22 23 24 26 27 29
2 1 3 3 5 4 9 11 10 6 4 3 2 4 8 9 10 12 14 16 17 17 18 18 17 16 17 17 14 12 11 13 15 17 18 20 22 22 22 23 25 27 28 29
3 6 4 3 3 3 13 17 14 10 7 6 5 4 6 7 9 10 14 15 15 15 15 16 17 17 15 14 12 11 11 13 15 17 19 21 24 23 24 26 26 27 28 29
5 5 5 4 7 4 2 25 20 13 9 4 2 3 7 8 10 12 15 15 15 16 17 19 17 14 13 12 11 12 13 15 16 17 19 21 24 26 26 27 27 28 30 31

GFSCGP_850_spd_054.txt.gz
Wind_Speed
4 3 7 13 9 4 4 4 5 4 4 6 9 9 11 18 21 25 28 31 34 34 30 28 27 24 21 20 19 19 22 25 26 29 29 28 26 24 22 19 17 16 14 14
4 8 12 4 5 6 5 4 8 6 5 7 7 11 11 8 17 32 37 37 39 37 35 34 32 28 24 21 20 21 22 26 29 29 29 28 27 26 23 21 20 18 15 16
8 6 7 9 5 6 7 8 5 8 2 3 4 7 9 10 26 31 37 42 42 46 44 40 36 31 27 26 24 23 24 28 32 30 31 31 29 27 25 24 22 19 19 18
7 6 5 5 6 8 8 7 6 5 1 5 3 7 5 6 11 10 34 38 46 45 44 43 39 34 31 28 24 25 28 31 31 31 32 30 30 29 27 26 24 24 21 19
9 7 8 6 7 9 7 4 5 3 3 2 5 4 5 3 8 12 24 36 38 44 46 47 46 38 33 29 29 30 31 31 32 31 31 31 30 30 30 29 28 27 24 20
4 3 7 8 3 7 5 5 6 4 3 5 11 8 5 7 11 8 23 29 34 38 43 45 45 38 34 32 32 32 33 32 33 32 31 31 33 33 33 33 31 28 25 20
3 5 4 6 5 3 4 7 2 3 1 9 3 8 19 6 10 12 16 28 23 29 37 42 47 43 38 38 38 37 36 35 34 33 32 33 33 31 33 33 31 27 24 20
11 7 12 7 12 8 10 9 6 7 5 5 1 8 6 11 21 24 28 25 19 25 32 38 46 44 41 40 40 40 39 37 35 35 35 34 34 34 33 30 27 23 21 18
7 7 1 1 4 12 7 9 6 2 2 2 6 8 8 10 9 15 28 17 16 24 32 38 44 43 41 40 41 41 40 38 37 36 36 35 35 35 33 30 26 23 20 18
5 3 1 1 5 3 6 8 2 1 2 6 5 6 9 5 11 12 11 11 19 23 31 36 42 40 38 39 41 41 40 39 38 38 38 37 37 35 32 30 27 24 21 18
5 5 1 3 7 11 3 5 3 5 5 5 3 7 7 11 11 10 11 26 23 25 31 36 38 38 36 38 41 42 42 40 41 41 40 39 39 37 33 30 26 23 21 19
10 4 5 8 2 2 1 4 6 5 5 5 2 17 4 6 6 9 13 15 21 25 29 33 36 37 37 39 42 43 42 43 43 42 40 40 40 38 35 31 27 25 23 20
10 5 1 5 3 2 5 6 12 1 2 11 5 17 1 4 4 8 14 14 16 21 27 31 35 38 39 41 43 44 45 45 44 43 43 42 41 39 36 32 30 28 26 22
22 6 10 17 4 7 7 8 14 19 10 8 22 21 6 4 5 7 13 12 16 20 26 31 35 39 40 42 45 46 47 46 45 45 44 43 42 39 36 33 32 30 27 24
13 11 12 22 13 8 9 13 21 24 31 13 34 19 24 9 11 17 18 15 17 22 25 31 36 40 42 44 46 48 48 49 48 47 46 45 42 38 36 35 33 30 28 26
4 18 21 27 19 11 8 12 23 30 28 27 30 32 7 11 15 14 28 24 24 27 30 33 35 39 43 46 49 51 52 50 50 49 48 45 42 39 38 36 34 31 30 29
11 13 7 19 17 5 5 34 12 14 21 21 23 37 9 15 12 20 27 30 33 34 35 36 38 40 42 46 49 53 52 52 51 50 48 45 42 40 39 37 35 33 32 31
4 16 12 14 6 14 22 18 25 25 22 19 20 29 11 20 33 39 36 33 35 34 34 36 37 39 40 42 45 48 51 51 50 49 47 45 43 41 39 38 36 34 33 30
17 10 6 7 14 9 9 6 9 12 28 29 28 31 32 33 21 37 32 33 34 32 32 36 37 37 36 36 40 44 45 46 47 48 47 45 44 40 40 39 37 34 32 28
21 20 12 4 10 13 8 4 6 6 17 11 21 28 25 10 9 20 27 30 32 30 28 28 28 29 29 31 33 35 36 39 42 44 45 44 41 43 44 39 34 31 31 32
4 10 19 18 13 5 5 5 11 10 8 0 3 7 9 8 14 9 6 11 16 18 20 19 19 23 23 22 25 28 28 30 27 29 32 35 38 41 39 35 33 33 33 38
6 4 4 7 8 12 11 4 9 4 2 2 3 4 8 13 13 12 12 12 11 11 14 15 16 18 19 20 21 22 21 21 20 20 23 29 32 33 33 34 35 36 34 32
5 8 5 8 5 2 12 2 7 5 4 4 3 4 5 7 7 9 12 12 13 14 16 16 17 20 20 19 20 19 18 17 18 20 20 21 24 26 28 30 30 30 29 31
4 2 3 2 5 5 7 9 8 8 3 3 4 4 8 6 8 10 13 14 14 14 14 15 16 16 16 15 15 12 13 13 15 15 16 18 21 23 24 25 26 26 28 30
2 7 6 4 4 4 13 14 8 5 8 6 5 6 6 6 8 9 12 13 13 13 14 14 14 15 17 18 18 17 15 14 13 14 15 17 18 20 22 24 24 26 27 28
6 5 6 4 5 3 4 17 18 12 7 5 3 5 6 6 8 9 11 12 14 16 17 18 18 18 19 18 15 13 11 11 12 14 16 17 18 19 22 23 24 25 27 28

GFSCGP_850_spd_057.txt.gz
Wind_Speed
2 3 7 13 8 3 5 4 5 4 3 4 8 10 12 16 18 22 28 32 37 39 35 33 33 32 32 31 29 26 24 23 26 30 30 30 29 29 26 23 20 20 21 18
4 7 10 4 5 4 2 3 6 5 5 6 8 12 11 7 15 30 34 37 40 40 41 37 37 36 35 32 29 27 24 23 25 31 33 31 31 28 27 25 23 20 19 18
8 5 5 8 5 5 5 6 5 7 3 4 4 8 8 11 22 29 34 40 41 45 46 43 41 41 38 36 32 29 26 25 29 35 33 32 32 30 29 28 24 21 20 18
6 4 4 4 5 9 7 8 6 5 2 5 2 8 5 6 11 10 32 40 48 50 47 45 44 45 43 39 33 30 27 29 32 32 34 34 34 33 31 28 25 24 22 21
9 8 7 6 7 9 7 4 5 1 3 3 4 3 3 1 8 14 24 40 46 44 45 46 45 46 44 39 35 32 30 31 32 35 34 33 35 31 30 29 28 27 26 24
5 3 7 8 2 6 7 5 5 4 3 4 15 8 10 6 13 8 20 32 33 33 37 37 36 39 45 39 36 34 35 34 34 35 35 35 34 33 34 32 32 30 30 29
2 5 3 5 5 3 4 6 2 3 0 9 4 5 18 5 9 12 15 31 25 18 20 26 31 36 43 43 40 38 37 36 36 36 37 36 35 34 34 33 34 35 35 32
10 9 12 7 14 8 7 9 6 8 4 5 1 7 7 11 20 25 29 32 29 20 15 20 26 31 37 44 42 40 38 38 38 37 37 36 35 34 34 34 36 36 34 31
7 7 2 2 3 12 6 7 6 2 2 2 6 8 8 12 11 17 26 21 22 18 20 23 25 28 35 44 43 41 39 38 38 38 38 37 37 37 36 37 38 36 33 29
4 3 1 2 4 3 6 7 3 2 2 5 5 7 8 6 10 11 12 19 20 15 16 19 23 27 32 41 42 41 39 39 38 38 38 37 37 37 38 39 39 36 33 30
4 4 1 3 7 11 3 5 2 5 5 5 3 8 8 12 10 10 9 16 17 17 17 18 20 24 29 38 41 40 41 41 41 41 39 39 40 39 40 41 40 37 33 31
8 4 5 9 2 3 2 6 9 5 5 5 2 16 4 8 7 10 12 9 8 9 10 15 19 22 30 37 40 41 41 43 42 41 41 40 40 41 43 44 41 38 34 31
8 3 2 7 2 3 5 5 11 4 3 10 5 15 4 2 5 10 12 8 8 6 10 15 21 24 30 36 39 41 42 44 44 42 42 42 42 44 45 44 41 38 35 32
17 6 9 14 3 5 7 9 11 17 9 13 20 23 7 5 7 8 14 11 11 10 15 17 22 25 29 34 38 40 43 45 44 44 44 44 46 46 45 44 42 39 36 33
10 8 15 23 10 5 7 9 16 20 29 12 33 17 26 16 10 19 24 24 19 16 19 23 24 27 30 34 37 40 42 45 45 46 46 46 46 46 47 46 43 40 37 34
9 5 9 18 16 11 11 8 20 28 26 26 31 26 5 2 17 8 27 29 25 24 25 27 28 29 32 34 37 40 43 46 47 48 48 48 47 48 47 45 43 41 38 36
13 9 8 16 13 10 10 31 28 18 21 24 25 38 6 16 11 24 34 32 29 32 33 34 34 33 32 33 36 39 43 46 48 49 49 50 49 48 47 45 43 42 40 37
6 12 6 12 2 12 21 21 20 24 25 21 25 31 18 17 29 37 40 28 37 38 37 37 36 35 32 32 34 38 42 45 47 50 51 50 48 47 46 44 43 41 40 38
13 6 7 9 15 15 13 11 9 12 28 25 29 30 31 31 18 42 32 41 44 41 38 35 35 33 31 31 32 35 39 42 46 50 50 49 47 47 46 45 43 42 40 34
17 17 10 5 6 12 11 3 13 8 14 24 17 25 28 13 8 21 14 21 24 26 29 31 32 33 32 31 29 30 35 39 42 47 48 45 45 46 45 43 43 41 35 33
4 7 18 15 12 5 5 5 9 10 8 4 16 29 18 9 14 16 4 8 13 15 16 17 19 19 20 21 22 26 29 32 32 35 40 42 43 43 43 40 38 34 34 33
10 8 6 7 10 18 7 2 10 3 2 1 2 6 10 14 15 17 17 19 14 10 8 9 9 11 11 13 15 19 19 19 22 25 29 33 36 37 34 32 36 35 29 34
3 6 5 8 5 8 24 12 14 3 4 2 6 6 7 6 7 6 5 4 4 4 5 8 8 10 11 11 13 15 15 15 16 18 20 21 23 25 27 29 28 28 34 41
3 2 3 1 5 5 11 17 11 12 8 5 5 5 5 3 4 3 4 6 7 8 8 9 11 11 12 13 12 10 10 11 12 14 15 16 18 20 21 24 28 32 33 34
3 3 4 5 4 4 16 19 18 13 10 8 5 5 5 4 6 6 7 7 6 7 9 9 9 10 11 12 14 13 12 11 11 12 12 13 14 16 17 20 22 24 26 27
6 6 4 4 2 3 4 14 23 18 12 7 7 6 5 6 7 9 11 11 11 11 13 13 13 13 15 15 15 14 13 12 10 10 10 11 12 13 15 17 19 22 23 24

GFSCGP_850_spd_060.txt.gz
Wind_Speed
2 3 7 13 6 3 5 4 4 4 3 3 8 11 11 21 17 26 31 30 32 36 34 35 34 33 33 34 35 34 32 30 27 25 27 29 29 29 27 26 24 25 26 26
4 6 10 6 5 4 3 3 5 5 3 4 9 14 13 13 18 31 35 37 38 37 37 37 36 38 39 37 37 36 35 32 28 27 30 30 32 30 29 28 27 24 24 23
8 5 4 7 4 5 5 6 5 7 3 4 4 8 8 9 22 32 37 39 38 42 43 42 40 41 41 41 39 37 36 33 30 29 31 32 31 32 32 32 29 25 22 23
6 4 5 4 4 8 6 8 5 3 1 5 2 6 6 7 10 9 30 36 44 46 46 45 44 44 45 43 41 39 37 34 32 30 33 35 36 37 35 31 29 27 25 24
8 9 7 6 7 7 7 6 6 3 3 4 4 1 4 2 8 14 19 38 41 41 41 41 40 40 41 44 43 41 38 36 34 31 32 36 38 35 33 32 31 30 27 26
4 2 7 8 3 5 8 6 5 4 2 5 11 9 10 7 12 7 18 31 31 27 26 27 28 28 32 37 43 43 40 38 35 33 34 38 37 36 37 35 34 31 29 29
2 5 3 4 6 3 3 6 2 3 1 10 3 3 16 4 7 11 14 30 25 18 14 14 17 20 25 31 38 44 41 41 38 35 35 37 37 36 34 35 34 33 31 33
9 9 12 8 11 8 9 8 6 8 4 6 5 8 7 12 19 27 33 35 31 24 18 17 15 17 21 25 32 43 44 43 40 36 37 37 36 37 37 35 34 33 32 34
6 7 2 2 2 12 7 8 4 1 2 2 5 7 8 8 13 11 26 24 22 17 14 13 15 17 20 24 29 40 45 43 40 38 38 38 38 40 38 37 36 35 33 37
4 4 1 1 3 3 6 6 3 2 3 5 6 6 7 7 10 12 13 21 23 16 13 12 12 14 16 20 25 34 42 42 40 38 38 38 38 39 39 38 37 36 39 41
6 5 1 2 7 10 4 5 2 4 5 5 3 9 8 11 11 8 8 10 6 7 10 10 9 11 14 18 24 32 40 42 40 37 38 38 39 39 38 38 38 38 41 42
9 4 6 10 2 2 2 6 8 5 5 3 3 15 3 7 6 9 10 5 3 4 6 6 6 11 15 17 22 30 38 40 39 37 40 37 38 39 38 38 40 41 43 43
7 4 2 7 3 2 5 5 8 4 3 11 7 15 3 3 4 5 9 7 5 5 6 5 8 14 15 17 22 29 36 40 38 38 41 38 39 40 40 40 41 43 45 44
17 5 8 13 4 5 5 7 11 15 7 17 14 34 11 3 6 7 13 14 11 11 10 11 17 17 17 19 22 29 36 40 40 41 43 42 43 42 42 41 43 44 46 44
12 8 11 20 10 4 7 7 14 21 28 10 35 19 31 17 10 17 25 17 19 24 21 23 21 21 21 22 24 28 35 40 42 43 45 46 43 43 43 43 44 47 48 45
9 5 10 17 17 17 13 8 17 22 23 24 31 28 15 10 19 14 27 37 38 38 33 27 26 24 25 27 28 30 34 39 42 44 45 45 43 44 44 43 46 48 48 46
15 9 9 17 10 8 9 30 24 17 19 21 23 35 17 16 10 25 32 36 35 32 37 38 34 32 28 29 31 30 33 37 40 43 45 46 47 46 45 44 46 48 48 45
3 15 8 11 5 12 16 7 23 25 24 21 25 33 29 24 29 31 44 36 37 40 40 36 33 34 34 34 33 30 31 35 38 41 43 46 47 47 46 45 46 48 49 46
12 7 6 9 15 9 9 7 9 11 24 23 28 31 35 39 15 37 43 44 44 43 41 34 28 29 30 30 30 29 29 32 37 39 42 45 46 46 45 46 47 48 47 44
12 14 8 5 6 7 8 2 8 7 14 9 19 25 27 11 8 20 12 13 16 20 20 20 22 23 23 23 23 24 26 29 32 36 38 39 40 42 43 43 43 44 43 41
4 6 15 13 12 5 5 4 7 7 7 3 6 18 14 6 15 20 9 8 15 18 18 17 15 14 14 15 17 19 21 24 25 26 28 31 35 38 38 38 40 40 38 36
7 6 5 5 7 7 9 4 9 5 3 3 3 6 10 11 12 18 21 17 19 17 11 8 6 7 7 7 7 9 11 12 15 17 20 23 28 33 34 34 34 34 32 31
8 12 6 8 5 3 22 5 16 9 11 13 11 11 12 13 10 9 9 9 7 5 4 5 5 6 8 8 7 6 7 8 9 10 11 14 19 24 27 29 28 27 28 31
3 2 2 1 5 7 11 18 12 14 15 13 11 9 10 10 10 9 8 7 4 6 7 9 10 11 14 16 14 11 10 10 10 10 10 11 15 20 25 29 30 30 33 36
2 1 2 4 7 8 20 16 18 19 18 15 10 8 7 7 8 8 8 8 8 8 10 11 11 13 15 16 16 15 14 11 9 10 10 10 10 12 14 16 18 21 22 24
4 4 3 4 5 2 7 12 14 17 17 14 11 8 6 6 6 7 8 7 10 13 14 15 15 15 16 16 16 15 14 13 11 11 11 10 10 11 12 13 15 17 18 20

GFSCGP_850_spd_063.txt.gz
Wind_Speed
3 5 6 12 5 3 5 2 3 4 3 3 7 11 12 25 22 27 30 31 33 35 32 30 33 34 34 35 36 35 34 34 33 31 30 30 30 30 29 30 30 30 29 27
5 5 10 6 6 4 4 3 5 6 3 4 8 14 16 12 22 33 36 42 44 41 38 35 33 36 39 39 38 37 37 36 35 32 31 30 28 29 28 29 34 29 30 28
8 5 6 7 5 6 4 6 5 7 3 3 6 7 8 8 23 34 42 48 44 43 42 41 39 37 38 41 40 39 38 37 36 35 33 32 30 30 32 34 33 29 30 28
6 5 6 5 5 8 5 8 5 4 3 4 1 6 8 7 13 7 29 34 39 42 43 44 42 39 41 40 40 41 40 38 37 37 35 34 35 38 37 37 34 33 32 31
8 10 7 5 8 8 7 5 6 3 3 4 2 4 7 0 8 11 23 37 36 35 35 35 32 31 34 38 41 42 42 41 40 38 36 34 35 36 33 35 34 35 33 29
3 1 6 8 3 4 9 6 6 4 2 4 9 7 9 6 7 6 11 27 28 23 17 18 19 19 25 29 33 38 43 43 42 39 38 36 36 38 35 36 37 35 34 32
2 4 3 4 6 4 2 6 1 3 0 9 2 5 18 6 9 8 13 30 24 17 11 10 11 12 14 20 27 33 40 45 45 42 40 37 36 37 35 36 37 37 35 35
8 8 11 7 9 9 9 8 6 8 4 4 3 8 7 9 17 25 31 34 33 27 19 16 14 13 14 17 20 26 34 42 45 43 41 38 35 36 39 39 37 37 35 34
6 6 2 2 2 9 6 8 3 1 3 2 6 9 9 9 13 16 27 25 22 19 14 11 9 9 11 14 18 22 28 36 43 42 40 38 35 38 39 39 39 37 36 33
5 4 0 1 2 2 6 6 3 1 4 4 6 6 9 5 9 10 8 22 26 20 14 10 9 7 8 12 16 20 25 30 37 40 40 37 35 37 37 38 38 38 37 36
5 4 1 3 6 10 4 5 2 4 5 5 2 8 8 10 9 9 8 8 8 9 14 11 8 6 8 13 15 17 22 28 33 36 38 37 35 37 38 39 39 38 38 39
8 4 7 11 3 3 3 6 8 5 5 3 2 16 4 6 6 5 10 3 2 4 7 11 10 8 12 6 12 16 20 25 29 33 36 36 33 38 39 39 39 38 39 41
8 4 1 7 2 2 5 5 7 3 3 10 7 16 2 4 5 5 7 5 4 7 11 12 9 8 6 9 14 15 18 23 28 33 36 37 35 38 39 38 38 38 40 41
15 5 9 13 5 5 6 7 9 13 4 18 11 32 17 3 5 9 12 11 11 11 14 15 14 13 16 17 17 18 19 23 28 33 37 38 36 38 36 36 37 37 39 41
10 12 8 20 10 3 4 6 14 17 25 12 31 18 31 12 10 21 33 35 38 37 29 28 29 33 30 24 20 22 23 25 29 35 39 39 35 37 37 37 37 37 38 40
5 9 12 21 21 20 19 9 10 21 21 20 29 26 29 26 24 17 28 37 40 40 41 36 34 36 34 27 27 25 28 29 32 35 39 39 37 40 41 39 39 39 39 42
6 7 8 21 21 13 11 25 27 21 18 21 19 32 19 18 14 20 32 38 39 39 42 44 39 39 36 35 32 32 33 33 34 35 37 40 40 42 43 41 40 42 43 43
9 10 4 11 9 15 15 18 22 25 27 25 24 29 27 25 22 25 42 37 42 43 43 45 42 43 40 34 34 35 36 34 34 36 38 40 42 42 43 41 41 42 42 43
19 10 7 4 6 9 10 8 8 11 24 21 24 29 35 37 19 38 44 40 45 42 39 36 32 29 28 30 30 31 33 32 33 34 36 38 40 42 42 42 41 42 41 43
17 18 12 9 11 12 9 8 9 7 14 11 22 25 27 10 6 18 21 18 17 16 18 19 16 19 21 23 24 25 26 27 29 30 30 33 35 38 40 39 40 41 39 42
5 5 15 15 13 6 6 1 1 7 6 4 11 22 11 7 15 20 16 20 23 23 24 25 25 22 19 17 18 19 19 20 20 21 21 23 26 29 33 35 35 36 36 34
4 4 7 6 6 9 12 4 8 6 3 5 5 8 12 14 14 18 20 18 16 19 20 17 14 13 12 10 10 11 12 12 14 14 14 16 18 22 26 27 28 28 26 28
8 8 5 6 3 3 11 11 18 8 8 5 9 13 15 13 12 12 13 11 9 10 12 10 8 8 7 8 8 6 8 9 10 12 12 12 13 15 18 21 22 21 23 24
4 3 3 3 4 5 20 21 19 11 12 21 16 16 17 16 12 10 10 9 6 5 5 3 4 7 11 13 14 13 14 14 12 12 12 11 12 14 15 16 18 20 23 26
5 1 3 4 7 16 22 16 17 15 15 18 17 14 13 12 11 9 8 7 4 5 7 8 8 12 15 17 18 18 16 14 14 13 13 12 12 13 16 18 19 21 21 23
6 5 3 5 9 9 15 8 14 20 20 17 15 11 10 9 8 6 5 6 5 8 9 9 11 13 16 15 16 17 17 14 11 13 14 13 13 13 12 12 14 15 16 17

GFSCGP_850_spd_066.txt.gz
Wind_Speed
2 6 10 16 10 1 4 3 5 4 2 4 12 20 19 22 24 26 27 28 28 31 30 28 29 32 35 37 40 39 39 37 37 37 37 36 36 35 36 37 38 36 35 34
4 11 13 5 7 5 5 8 12 9 2 5 12 21 21 23 28 28 29 30 31 31 31 34 34 34 37 39 40 41 41 40 39 38 37 37 35 34 33 34 38 38 36 37
13 4 9 7 7 9 8 11 10 9 3 7 11 15 15 10 19 25 31 35 34 36 34 30 34 39 38 40 42 43 42 41 40 39 38 38 35 33 34 34 37 39 37 36
10 5 6 9 10 12 12 12 8 6 5 7 2 10 18 18 17 13 23 29 32 33 33 32 30 37 36 38 37 42 44 43 42 41 41 40 38 38 38 37 35 36 39 41
5 10 11 10 8 14 3 5 7 2 5 6 10 7 10 2 11 15 23 26 27 28 26 27 27 26 26 33 37 38 42 44 44 44 42 40 39 38 38 36 32 34 31 36
2 1 5 2 4 7 12 8 5 3 1 8 11 10 10 11 7 5 8 12 14 14 13 13 16 20 22 27 32 36 41 43 45 46 44 43 41 41 40 38 39 40 39 39
5 7 2 4 7 3 4 9 3 4 5 10 3 7 15 6 10 7 14 24 11 14 12 11 10 11 14 18 23 29 34 39 43 46 45 45 42 42 39 39 40 39 42 41
12 11 13 11 13 9 12 10 7 8 6 9 3 11 8 9 11 20 22 28 25 25 19 15 15 13 13 15 17 19 26 32 38 43 45 44 41 41 38 37 38 37 40 41
7 9 1 2 5 12 8 11 10 6 1 4 9 19 18 12 16 17 23 25 26 22 19 14 12 11 12 14 16 18 21 25 32 37 40 43 43 41 38 37 39 36 38 41
6 9 2 1 2 1 8 8 5 4 6 10 12 13 15 6 7 10 11 12 14 18 18 13 11 11 10 10 12 16 18 21 26 29 36 40 42 40 39 36 40 40 40 39
9 5 2 4 10 13 6 10 3 3 5 6 8 11 8 12 11 10 8 11 9 9 13 19 13 10 9 10 11 11 14 17 22 25 31 37 40 39 38 37 38 41 39 40
5 1 10 18 3 2 6 15 21 8 7 5 5 15 3 4 1 2 9 6 5 2 4 13 14 10 7 7 7 10 12 14 18 21 25 31 35 37 37 36 38 38 40 40
7 2 4 5 2 2 8 11 8 18 2 11 12 15 1 5 7 6 4 5 6 5 6 10 16 13 10 11 12 14 14 16 18 21 24 28 34 38 38 36 39 39 40 40
6 9 10 13 5 4 7 15 18 18 10 22 19 30 22 7 5 7 10 11 11 9 14 13 17 17 18 20 21 19 18 21 21 23 25 29 35 37 38 35 38 40 40 41
3 6 10 22 23 17 15 11 20 22 29 22 29 25 34 18 18 24 31 40 30 34 36 34 32 33 32 30 26 21 24 26 27 27 27 31 34 35 37 35 38 39 40 38
12 12 15 22 25 24 19 16 18 24 26 20 29 30 35 35 35 26 28 29 29 33 39 42 46 44 37 29 29 29 28 29 34 32 32 31 35 37 39 37 38 38 37 38
3 0 2 19 21 15 14 27 30 25 23 24 24 34 27 25 20 27 29 29 33 37 40 42 43 43 43 44 42 40 36 36 38 36 36 35 36 38 40 38 37 40 38 37
9 8 4 8 9 14 5 16 23 26 27 26 24 28 29 30 30 29 33 32 34 35 38 42 44 45 44 39 36 37 38 38 38 36 36 36 37 38 39 38 38 41 39 38
20 12 7 8 11 12 17 8 7 12 23 25 27 31 41 47 26 38 43 33 38 39 37 33 31 28 27 26 25 27 28 31 34 36 35 35 36 38 39 40 38 40 39 38
15 18 12 10 12 10 12 6 5 5 14 20 20 24 28 25 10 17 23 19 18 18 19 21 22 23 20 21 28 29 27 28 29 29 30 31 33 34 36 37 37 38 38 37
2 6 17 17 13 6 7 4 7 8 6 6 7 17 15 7 15 22 14 17 20 23 24 24 25 27 28 25 23 23 24 23 21 21 22 23 24 27 29 32 34 35 35 35
7 4 3 8 8 8 13 1 5 9 17 25 27 16 13 16 17 18 19 17 17 20 22 22 19 17 16 16 15 15 16 16 15 15 15 16 16 19 22 25 26 27 28 27
11 9 5 5 6 12 13 21 26 15 12 12 17 27 18 21 24 21 19 16 15 16 17 17 15 14 13 11 11 9 10 9 9 11 11 12 13 14 16 18 19 21 21 20
10 14 9 13 18 12 12 7 7 6 8 14 17 25 23 22 22 21 21 16 12 14 15 13 12 10 8 7 7 6 7 8 9 9 10 11 11 13 13 13 13 16 17 19
9 3 6 9 10 11 9 6 12 14 15 19 22 22 24 25 22 17 17 14 10 8 10 9 8 7 6 7 9 12 12 11 12 12 12 12 13 14 15 16 16 16 14 13
19 19 12 14 21 10 13 17 11 14 18 16 18 19 18 20 21 17 15 11 9 8 8 9 9 9 11 12 14 14 14 13 9 12 12 12 12 12 13 14 13 12 10 12

GFSCGP_850_spd_069.txt.gz
Wind_Speed
6 8 10 14 14 14 6 7 9 3 3 4 11 18 17 22 26 26 27 29 28 29 27 24 26 31 34 34 36 37 38 39 39 40 40 39 39 39 40 39 40 40 38 35
5 13 14 3 1 6 10 13 14 14 3 4 13 20 18 20 28 28 28 30 28 28 27 26 26 30 33 36 38 39 40 40 40 41 40 39 38 39 40 38 39 40 43 40
16 3 9 7 7 10 14 15 13 14 3 12 13 16 16 16 21 21 28 32 30 32 30 25 27 33 34 37 38 38 40 42 41 41 39 38 37 38 40 41 39 41 43 43
12 9 6 10 15 13 16 12 14 12 8 8 2 10 17 17 18 16 22 26 29 26 23 22 26 29 35 38 39 38 40 42 42 42 42 43 42 41 39 39 39 39 41 43
6 9 12 13 10 10 5 3 6 6 9 10 14 8 8 11 10 15 20 24 22 21 18 17 19 24 31 31 33 35 39 40 41 44 43 44 44 41 37 36 38 39 39 43
6 1 5 7 4 6 9 5 4 2 4 9 14 15 14 14 11 8 7 9 8 9 9 11 13 18 22 24 27 29 34 38 40 42 43 45 44 42 40 40 38 39 38 41
13 10 4 3 5 4 10 7 4 5 6 11 5 6 16 9 9 10 12 15 17 10 9 10 12 11 12 14 17 22 28 33 37 40 42 43 43 41 41 42 39 38 39 41
15 12 16 14 16 10 14 15 8 9 8 12 5 10 9 3 7 12 16 22 22 18 18 16 14 13 14 15 16 18 21 26 32 35 39 42 40 40 40 41 40 39 38 40
12 13 4 3 11 14 8 11 14 13 3 5 10 20 19 11 8 17 23 25 25 18 18 21 16 18 19 18 16 16 17 19 23 28 32 36 38 40 41 42 40 38 38 40
8 17 4 4 3 8 9 2 8 8 6 12 14 19 15 10 13 13 10 14 13 12 13 13 14 14 14 13 11 11 13 15 17 21 25 27 31 36 40 40 41 38 37 38
11 7 3 4 11 15 8 10 8 6 9 7 12 13 13 8 7 5 5 6 8 13 13 9 12 13 11 9 7 7 9 13 14 16 19 23 26 31 36 38 39 38 37 39
9 6 12 19 7 7 14 22 22 11 12 7 11 19 0 6 4 5 11 13 7 7 8 5 8 11 8 8 6 4 10 14 15 15 16 19 22 27 33 37 37 36 38 39
4 5 3 5 10 2 8 15 14 16 9 10 12 13 4 6 4 13 9 5 8 10 9 10 8 10 9 9 10 11 15 17 20 20 18 19 21 25 29 34 36 37 36 36
6 4 9 11 6 4 6 17 19 17 10 20 19 27 26 22 19 12 11 12 17 17 18 25 29 27 22 22 23 23 24 20 23 28 27 24 24 25 28 30 34 36 35 36
2 5 13 21 22 23 20 14 12 19 23 22 27 23 32 23 20 25 31 29 33 34 32 30 27 28 29 33 32 32 29 26 26 29 30 31 29 29 30 31 34 35 33 32
8 5 9 18 22 19 20 22 24 24 25 23 27 28 28 33 31 28 32 32 33 32 32 35 37 33 32 35 36 31 31 30 34 33 35 32 34 34 32 32 34 34 33 32
3 1 3 11 12 6 7 22 24 26 26 24 23 28 23 24 21 28 31 24 28 32 35 37 35 31 32 34 36 38 36 35 36 34 34 35 36 36 35 32 33 34 35 32
8 7 3 7 8 10 7 10 9 14 20 21 24 26 28 31 43 49 37 29 36 36 37 33 32 30 29 30 31 31 28 27 29 31 34 36 36 36 35 34 33 35 35 32
19 12 8 11 18 19 24 22 13 14 19 17 16 20 31 40 37 39 31 29 32 32 31 29 30 32 27 24 24 25 22 22 25 26 28 28 29 32 33 34 32 33 35 32
12 16 11 12 11 14 14 14 15 5 9 13 15 15 16 22 11 14 18 16 15 17 19 21 23 24 26 26 27 30 31 30 28 25 23 23 24 27 29 29 29 30 31 30
5 4 13 14 12 7 8 9 8 12 7 22 18 22 18 8 9 25 26 22 21 22 22 20 22 23 23 23 23 24 23 23 21 20 20 19 19 19 20 22 25 26 29 31
9 7 8 8 9 15 4 3 2 3 24 24 22 11 16 18 19 19 28 26 22 23 24 23 23 21 19 19 19 19 19 18 17 16 15 15 14 14 15 17 19 21 23 24
12 14 10 8 5 5 13 9 19 18 19 18 18 15 16 20 24 22 22 30 26 23 25 25 24 22 21 20 19 17 16 14 12 11 10 10 10 10 10 12 14 15 16 17
14 17 13 14 18 22 32 26 21 16 14 12 14 17 18 23 25 25 23 25 27 22 21 23 22 21 19 18 17 15 12 10 8 5 4 5 5 6 7 9 10 10 11 13
10 7 11 12 17 22 26 26 21 13 16 15 19 21 20 19 23 24 28 26 25 21 20 19 18 18 16 14 13 10 7 5 5 6 6 6 6 6 8 8 7 7 6 5
17 18 13 14 23 21 25 24 23 24 20 21 23 23 21 19 21 22 23 23 23 20 18 16 16 15 12 9 8 6 7 7 6 7 8 8 9 9 7 6 7 6 5 4

GFSCGP_850_spd_075.txt.gz
Wind_Speed
4 4 6 10 8 5 4 4 1 1 4 4 6 8 11 21 24 24 28 29 31 30 27 26 25 29 30 29 34 37 41 43 42 41 40 41 43 43 40 39 38 37 38 34
5 3 10 5 5 6 3 3 3 2 2 3 6 11 11 13 21 31 33 34 34 32 29 29 29 29 32 32 31 36 40 44 44 45 43 42 42 44 44 42 41 40 39 39
6 5 11 5 2 4 2 4 3 5 1 2 4 8 7 7 11 19 24 29 28 28 30 29 26 29 33 35 35 35 37 42 44 44 43 43 44 44 44 45 44 45 43 39
6 6 3 5 4 5 2 0 4 4 3 3 3 6 6 7 13 6 20 22 23 25 24 20 18 25 28 33 35 36 35 36 40 42 43 44 45 47 47 47 47 45 44 41
7 6 7 4 5 5 6 2 2 2 2 2 4 1 8 5 6 11 13 14 10 9 8 8 10 13 19 23 30 35 36 35 36 40 43 44 45 46 46 46 46 45 44 44
3 2 2 6 2 2 8 5 7 5 3 3 8 8 4 4 5 3 3 3 4 6 4 6 7 9 13 20 22 28 33 34 35 38 42 44 44 44 44 45 44 43 42 42
2 3 2 3 6 7 5 6 2 3 2 6 4 1 6 6 5 4 4 7 6 8 12 10 15 17 16 16 18 21 25 30 32 34 37 40 41 42 42 42 43 43 43 43
7 5 8 6 7 8 7 7 6 7 4 4 5 6 4 7 4 8 7 11 12 11 10 13 12 13 12 12 15 18 21 24 26 29 32 34 36 38 39 40 41 42 43 42
6 6 2 3 4 9 5 6 6 4 2 3 5 7 8 9 7 16 19 13 13 13 15 15 14 12 15 12 15 17 19 20 21 23 25 28 31 33 34 35 36 39 40 39
3 1 4 2 3 4 6 5 3 2 3 4 5 5 8 10 9 4 7 11 14 13 15 18 19 17 13 14 16 16 16 15 14 15 17 20 23 25 27 29 32 32 34 35
5 3 3 2 4 8 3 2 2 4 5 5 2 7 7 8 7 4 4 8 11 11 11 12 17 21 23 19 13 10 7 5 4 6 10 14 17 19 22 24 26 29 30 32
1 4 4 6 3 2 3 5 6 4 3 4 3 13 3 10 4 12 10 15 16 16 21 18 24 26 25 22 18 14 9 7 7 10 17 19 21 22 24 25 26 27 29 31
2 1 3 6 3 3 3 2 3 1 4 12 4 14 2 7 14 19 12 19 25 30 27 14 21 21 23 24 25 21 18 21 21 22 23 21 24 26 28 29 30 31 30 33
7 2 4 6 4 3 3 4 4 2 3 3 14 20 21 8 11 22 31 36 39 33 28 33 28 28 30 27 25 22 21 22 26 28 28 29 28 30 31 31 31 33 34 35
5 5 2 3 2 3 3 6 5 5 6 5 14 10 29 15 14 20 27 29 30 26 25 35 38 36 34 32 27 27 26 27 24 27 31 32 30 31 34 35 34 35 36 37
1 3 2 2 5 5 6 11 10 12 16 14 20 22 23 32 27 17 22 22 26 27 25 25 25 24 24 27 33 32 30 27 28 33 34 32 32 31 34 37 38 38 38 36
5 5 3 4 1 4 5 11 12 7 6 8 14 20 19 15 14 9 19 11 15 20 21 21 19 17 17 19 22 24 27 31 33 34 33 31 31 31 30 31 32 33 33 32
7 5 3 4 4 1 8 4 0 6 7 9 10 6 6 9 19 14 2 17 22 21 23 24 25 24 24 25 25 25 25 25 27 30 30 29 28 28 29 29 29 29 29 30
6 4 1 3 4 5 10 8 6 6 5 2 2 4 8 15 21 10 11 25 28 24 23 25 26 27 28 26 25 26 25 23 22 23 25 27 28 29 29 29 27 26 26 27
4 5 5 2 5 8 8 1 13 7 4 6 3 3 7 11 7 7 25 27 28 25 24 26 29 29 29 29 29 27 25 26 25 23 22 23 24 25 25 24 24 24 23 22
5 5 15 11 7 6 14 8 4 4 7 5 1 8 14 4 13 29 30 32 28 26 25 28 30 29 28 35 31 28 26 25 24 24 24 23 23 22 21 20 20 20 21 20
7 8 5 3 4 11 16 3 7 3 1 2 8 20 20 24 26 27 31 30 28 28 29 28 29 30 30 28 29 25 24 24 23 24 23 22 21 20 20 18 16 15 15 14
2 7 5 9 7 9 3 5 7 2 4 16 18 19 20 19 21 22 26 30 30 28 28 29 30 31 29 29 27 25 23 24 24 24 22 20 20 18 16 15 12 11 11 9
4 3 4 4 8 9 13 12 7 16 10 18 20 17 16 19 23 25 26 31 31 31 31 29 29 28 29 28 26 23 22 21 22 22 20 18 16 14 12 10 8 7 6 7
7 3 3 3 7 7 13 16 19 19 26 28 25 22 22 25 28 26 29 31 31 30 28 27 25 25 25 26 25 23 21 22 20 19 16 13 10 8 6 4 4 4 7 8
7 4 3 4 9 7 17 31 35 35 37 29 28 26 27 20 23 27 28 26 25 26 27 26 25 25 25 28 29 26 21 19 17 13 12 10 7 6 6 7 9 10 8 9

GFSCGP_850_spd_078.txt.gz
Wind_Speed
3 4 6 10 8 4 5 4 3 2 3 4 7 7 11 22 21 23 27 28 30 31 29 28 25 26 29 32 33 33 35 37 39 42 42 41 41 39 39 40 38 36 35 33
5 4 8 2 4 4 3 2 4 2 1 3 4 10 10 13 21 29 29 28 29 31 30 30 28 28 29 31 34 36 36 38 40 43 44 44 41 42 39 42 42 40 39 39
6 4 7 6 5 6 5 5 3 4 1 1 3 8 6 5 7 14 21 22 20 19 17 16 21 25 27 32 32 36 37 38 38 40 44 46 46 45 43 45 44 44 42 42
5 4 5 5 5 5 5 5 3 2 3 4 2 5 5 7 10 8 23 17 14 13 15 14 13 14 19 25 26 34 39 40 38 40 44 45 46 48 45 45 45 46 44 44
7 6 5 4 6 5 6 3 2 2 3 2 3 1 7 4 8 10 14 6 9 11 10 7 5 6 9 12 16 22 35 42 41 40 41 42 45 46 45 43 43 45 48 47
5 1 5 7 3 2 6 6 7 5 3 3 7 6 5 4 4 4 7 9 9 8 8 7 5 6 10 12 16 20 23 32 39 39 39 40 40 42 43 43 42 43 43 44
1 1 1 4 5 4 4 6 2 3 2 6 2 2 7 7 6 2 6 9 9 9 11 11 10 9 11 11 11 13 17 20 27 33 36 36 38 39 41 41 40 40 41 42
7 3 7 5 7 9 7 8 6 7 4 4 1 5 5 1 4 9 10 13 14 15 15 18 19 19 16 13 9 9 12 15 18 23 27 30 32 36 37 37 37 38 39 39
6 5 1 1 4 8 5 4 5 6 3 3 4 5 10 6 4 12 14 16 16 19 20 23 24 27 28 23 17 14 13 15 16 18 22 25 27 29 31 31 31 34 35 35
7 3 1 1 3 4 5 7 3 3 2 4 4 4 6 3 3 8 11 16 17 16 16 22 17 21 24 24 24 23 16 12 11 12 12 13 16 19 22 24 26 28 29 31
6 4 2 4 5 8 3 3 3 5 5 5 1 5 7 5 9 7 7 14 18 23 26 25 15 20 20 21 21 20 19 15 7 5 7 13 15 16 18 21 23 25 26 29
4 5 4 5 2 3 3 6 6 5 4 3 3 7 5 8 12 9 10 15 22 26 25 19 20 20 18 19 21 21 21 20 18 17 17 20 18 19 24 27 28 29 29 30
6 1 3 4 3 1 2 1 3 4 3 6 4 5 3 10 6 1 7 18 26 25 23 21 20 24 28 30 29 24 20 19 18 20 23 25 25 24 25 29 31 31 32 33
5 3 5 7 4 3 5 3 3 3 3 4 13 10 11 11 10 24 30 32 29 25 17 20 22 25 28 30 31 24 18 19 21 24 27 28 28 30 33 33 34 34 34 35
3 4 2 3 5 4 5 6 5 5 4 4 1 9 5 7 10 19 18 15 17 17 19 18 19 20 22 25 26 24 24 24 25 28 30 31 31 34 36 36 37 38 38 37
4 2 2 2 4 5 5 10 8 8 5 11 7 20 12 19 7 8 12 13 13 15 15 16 17 18 20 21 22 25 27 27 28 29 32 33 34 35 36 36 35 36 37 38
4 5 3 2 4 4 7 10 13 8 6 9 11 17 4 3 3 7 10 7 13 16 16 17 18 19 20 22 25 27 29 32 32 32 32 33 34 33 32 33 34 33 32 31
7 6 3 3 2 3 6 2 3 12 9 10 7 2 2 5 10 9 7 11 16 19 20 19 19 20 21 22 22 25 28 30 31 31 32 31 31 32 31 31 33 34 35 34
2 4 2 5 4 6 8 6 7 8 8 7 6 4 1 10 13 4 8 16 18 20 21 20 21 23 23 24 25 27 27 32 31 31 31 31 32 32 31 30 30 31 32 31
1 3 4 3 5 8 6 2 5 5 4 9 8 5 1 5 4 4 15 21 20 21 19 21 24 25 25 26 27 29 29 29 32 33 32 31 30 30 31 32 30 28 29 30
5 4 10 4 3 8 10 9 4 5 7 14 9 4 1 4 9 24 26 25 23 21 23 23 23 25 26 28 27 28 29 28 28 28 29 30 30 29 28 30 31 28 26 26
7 7 5 4 6 11 9 6 8 4 12 8 3 8 12 14 20 22 25 22 19 21 23 25 27 28 28 28 30 31 27 27 28 28 27 29 30 29 28 27 27 26 24 22
2 6 6 9 7 6 7 5 8 4 6 3 4 9 14 18 21 20 21 26 28 25 25 26 27 29 28 28 29 29 28 28 28 28 30 29 29 29 27 25 23 21 20 18
4 5 3 3 6 8 12 3 1 10 2 14 14 18 16 18 20 22 26 28 28 29 30 30 28 27 28 27 27 28 29 31 31 31 30 29 27 24 22 21 18 16 15 12
6 7 5 3 6 3 5 4 7 17 22 21 27 27 23 21 23 24 26 25 28 29 29 29 30 31 30 30 28 28 29 30 31 29 27 25 22 20 18 18 15 12 11 11
8 6 5 5 6 2 14 22 24 22 24 24 26 28 25 21 20 20 23 26 28 29 31 31 31 32 32 31 29 28 27 27 29 28 23 21 21 19 17 13 11 5 3 3

GFSCGP_850_spd_081.txt.gz
Wind_Speed
2 4 6 9 6 3 5 4 4 2 1 3 5 6 12 23 20 23 24 25 26 28 28 28 26 26 26 30 33 33 35 37 39 42 41 42 41 40 38 37 35 34 34 34
5 4 7 5 5 3 3 3 2 2 1 3 3 9 10 15 20 26 30 30 24 20 19 20 23 26 27 26 27 32 34 34 36 40 40 42 41 43 41 39 38 36 38 37
6 2 10 6 5 6 3 4 3 5 1 3 4 8 7 5 10 15 17 16 19 20 19 12 9 9 16 23 25 28 30 34 36 36 41 44 46 47 46 46 44 41 36 39
3 3 6 4 5 6 5 7 5 4 3 3 2 5 6 5 11 7 18 10 8 8 8 8 6 3 5 10 17 20 25 32 37 39 41 42 42 45 42 45 45 44 41 39
7 8 6 4 6 6 6 4 4 3 4 3 3 1 7 3 6 6 12 12 13 15 12 11 8 7 5 4 6 12 18 23 29 37 41 42 42 42 44 44 44 43 42 41
4 1 4 7 3 3 9 6 7 4 3 2 5 5 5 3 3 3 5 10 12 14 14 13 11 10 10 11 12 13 13 13 15 22 32 37 40 40 41 41 41 41 39 37
1 1 0 3 6 4 4 6 2 3 2 5 1 3 8 5 1 3 4 11 16 20 25 27 27 24 20 16 14 12 10 9 10 13 18 26 31 35 38 39 39 38 38 38
7 4 7 5 7 8 7 7 6 7 4 3 3 5 5 2 3 7 10 14 21 25 23 24 24 25 25 28 26 20 15 11 10 12 13 16 21 26 31 33 35 36 38 37
6 5 1 2 4 8 6 4 5 7 3 3 3 5 6 3 6 9 18 26 25 24 24 18 19 22 23 23 25 25 25 20 13 10 11 12 16 20 24 26 28 30 32 31
8 3 1 2 4 4 4 8 3 2 2 3 3 3 5 6 7 5 14 19 22 24 23 18 15 17 17 18 19 19 20 20 19 14 11 10 12 13 15 18 20 23 26 26
5 4 0 4 6 9 3 3 3 5 5 5 1 5 6 7 8 8 12 16 17 17 17 19 17 15 15 16 17 16 15 12 13 13 13 11 13 18 20 21 23 24 24 26
6 5 4 6 2 3 3 7 6 5 5 2 3 5 2 9 13 12 6 9 13 11 11 10 11 15 17 19 19 18 15 12 11 12 13 15 18 21 23 23 25 27 29 29
7 3 3 2 2 2 4 3 4 5 3 7 6 5 2 8 9 5 6 12 13 11 11 12 13 15 18 19 19 19 16 14 14 17 19 20 21 24 26 27 27 29 33 36
4 3 5 10 2 4 5 3 2 4 4 4 7 5 7 6 6 7 10 11 11 13 15 16 17 20 22 23 24 25 25 24 24 23 23 24 25 27 29 30 32 35 36 37
3 4 4 5 4 3 3 5 7 6 5 8 2 5 4 7 7 5 9 12 15 16 17 18 18 19 21 23 25 24 25 27 31 32 33 32 32 31 32 33 35 36 37 38
3 4 3 1 3 2 3 6 7 5 4 5 4 15 9 5 9 4 7 8 9 11 12 14 15 16 17 19 21 22 24 27 29 31 33 33 32 32 32 33 34 34 35 35
5 6 3 4 1 4 7 7 9 5 5 6 9 8 6 3 6 5 5 3 4 7 10 11 13 16 18 20 23 24 26 28 30 31 31 32 33 32 32 32 32 31 31 32
6 5 3 3 1 4 2 2 2 8 9 8 9 3 6 6 4 2 2 3 4 6 10 12 13 14 17 19 21 23 26 28 30 32 33 33 34 35 34 33 33 33 33 33
2 5 2 4 3 6 5 6 7 8 7 10 8 3 5 4 1 4 14 6 9 11 15 16 17 19 19 20 21 23 24 27 28 28 30 34 36 37 37 36 34 35 35 34
3 5 3 2 5 9 4 3 5 6 5 8 14 8 6 4 0 3 13 8 14 13 13 15 17 18 21 23 25 26 27 29 31 32 33 33 33 34 37 37 38 37 36 36
4 2 6 4 3 8 7 8 3 6 7 8 12 11 6 2 4 7 10 14 12 10 12 15 17 20 23 24 26 28 29 30 32 33 33 33 34 36 36 36 38 37 38 35
8 7 4 3 2 9 11 4 6 4 11 14 10 5 4 8 12 17 17 14 11 14 18 20 23 25 27 28 29 29 29 30 32 33 35 36 35 37 37 38 37 34 32 30
2 6 6 8 6 1 21 1 8 13 15 8 4 3 6 11 15 18 22 19 20 22 23 23 25 29 28 29 31 33 32 32 33 33 33 35 35 34 34 34 33 33 29 27
4 4 3 4 6 6 11 12 6 10 12 3 4 9 15 18 20 22 24 26 25 24 25 27 28 30 32 30 31 33 33 34 35 34 33 33 33 33 30 29 28 28 26 25
5 12 6 3 2 6 10 8 11 3 5 10 12 14 18 18 23 24 26 27 28 25 27 29 31 33 35 33 33 32 32 33 35 35 32 32 31 29 29 27 26 24 23 21
10 6 6 5 8 6 7 14 7 7 8 12 15 19 20 19 21 21 25 27 26 28 31 33 34 33 32 31 29 28 28 29 32 33 33 31 28 26 26 24 19 16 13 9

GFSCGP_850_spd_084.txt.gz
Wind_Speed
3 4 7 8 5 3 6 4 4 2 1 3 4 6 12 22 18 22 22 21 20 23 24 22 23 25 25 25 28 32 32 33 35 37 37 39 39 36 35 35 33 31 29 28
4 5 7 7 6 5 4 4 3 1 2 2 4 9 10 13 16 20 23 26 21 16 14 14 12 16 23 24 24 26 30 32 33 36 36 39 39 39 37 36 37 36 35 34
6 2 11 6 4 6 2 5 4 3 2 4 5 9 6 5 6 10 10 11 10 10 8 4 2 2 4 15 21 23 24 29 33 35 37 39 42 43 42 42 42 40 39 39
3 4 7 5 4 5 6 7 4 6 3 2 3 5 6 5 9 8 13 12 13 15 15 15 14 11 8 3 6 13 17 22 26 32 38 40 40 41 36 36 36 39 41 42
5 8 6 4 5 7 4 7 5 3 4 4 3 2 7 5 4 5 11 13 15 16 17 16 14 12 12 10 8 4 5 11 16 23 29 35 39 40 40 39 38 37 37 38
3 2 3 6 4 2 9 7 7 5 3 1 5 5 5 2 3 2 7 14 20 25 27 28 27 23 20 17 13 11 9 4 5 10 14 21 26 31 35 37 38 37 36 35
2 1 1 4 7 4 4 6 2 2 2 5 1 3 8 3 1 2 7 17 20 22 26 28 28 28 28 28 27 24 18 13 9 6 4 7 12 18 22 26 30 32 33 34
7 4 8 4 6 9 6 7 5 7 4 2 3 5 5 1 7 13 17 18 21 22 21 22 22 22 22 23 23 23 25 22 16 12 10 8 9 11 15 19 23 26 28 29
5 3 1 1 3 7 6 5 5 7 3 3 4 6 3 5 6 15 13 18 20 19 18 18 18 17 17 18 19 19 18 17 15 15 13 10 9 9 9 12 16 19 22 23
7 4 2 1 4 4 4 8 4 3 3 3 3 4 4 6 8 4 8 16 16 17 17 14 13 12 14 15 15 14 16 16 16 13 11 8 6 8 11 13 15 16 16 18
5 4 1 3 6 8 3 3 3 5 4 5 2 5 5 10 9 8 9 11 10 11 11 10 11 12 13 12 12 13 13 13 12 12 12 12 12 13 15 18 19 21 21 21
6 5 4 7 2 2 1 6 6 5 5 1 3 5 4 10 14 12 9 7 7 8 8 7 7 9 11 13 14 14 13 12 13 14 16 18 19 21 22 24 26 26 27 27
7 3 3 3 3 2 4 4 4 5 3 7 6 5 3 11 10 7 7 7 9 7 6 7 9 12 14 15 16 16 16 16 16 17 17 17 19 21 23 26 28 30 31 32
3 3 8 11 4 6 6 5 5 6 4 5 6 7 6 6 5 7 8 8 7 8 9 9 10 13 15 17 19 20 20 21 22 23 24 25 25 24 22 23 25 27 30 33
3 5 4 4 5 3 3 7 9 10 13 10 10 11 18 14 7 15 10 10 8 7 7 9 12 14 15 17 19 21 23 26 27 29 30 30 28 28 29 28 28 28 28 28
3 3 3 3 0 5 1 5 7 2 2 1 3 4 6 5 14 12 11 10 8 7 7 9 11 13 16 18 20 21 23 25 27 29 30 31 32 33 32 31 31 31 31 32
2 4 2 4 2 5 5 12 8 5 4 6 7 6 8 4 6 6 7 5 5 5 6 8 10 12 14 17 19 20 21 22 24 26 28 30 32 34 34 35 35 34 32 33
5 4 2 2 2 3 4 4 3 7 4 8 3 5 9 10 10 9 7 7 4 1 4 6 9 10 13 16 18 20 23 25 28 29 31 33 35 37 38 39 39 38 37 36
4 4 3 4 3 5 3 5 7 7 8 12 8 9 10 12 9 6 10 9 3 3 6 8 9 11 13 15 17 20 21 23 25 27 28 31 34 37 38 39 41 42 43 42
3 6 2 4 5 7 4 2 8 6 5 4 12 11 16 14 3 4 17 6 6 9 8 8 9 11 13 15 17 21 23 25 27 28 30 31 33 35 38 39 40 41 41 43
4 2 6 2 3 7 6 6 6 6 7 3 8 16 19 5 5 8 11 7 10 9 9 11 13 15 16 18 21 23 25 27 29 30 31 32 33 35 37 39 40 40 40 39
8 7 4 3 2 9 14 4 9 4 5 10 13 12 10 8 5 1 3 5 7 10 13 16 16 16 18 21 24 26 27 30 31 33 34 34 34 35 36 37 39 39 38 38
4 5 6 8 6 2 19 4 8 9 18 13 12 9 5 1 2 6 9 11 12 14 17 17 19 20 20 24 27 29 31 33 33 33 33 33 34 35 35 37 37 37 36 35
3 3 3 3 3 5 17 8 12 14 18 14 10 6 4 8 11 14 16 16 17 18 19 20 21 23 25 28 30 32 33 34 34 34 33 34 34 34 34 34 34 33 31 31
5 11 6 2 2 9 11 13 19 19 15 10 5 4 6 11 14 18 21 20 20 19 20 21 23 27 30 32 34 33 34 34 34 35 34 33 33 33 33 32 30 31 28 26
9 6 5 5 17 6 16 22 19 17 14 9 7 9 11 15 18 21 23 24 24 24 24 25 29 32 33 34 35 35 34 33 34 36 36 35 34 32 30 29 27 24 22 20

GFSCGP_850_spd_087.txt.gz
Wind_Speed
3 5 7 9 5 4 6 5 4 1 1 2 3 5 11 17 13 17 16 14 16 18 18 16 18 21 23 22 25 27 27 28 29 30 32 33 34 33 32 31 27 27 26 25
5 5 6 8 7 6 4 5 3 2 3 2 3 8 10 11 7 8 13 13 10 10 10 8 10 12 18 24 25 26 26 29 29 29 30 33 33 33 32 31 31 30 31 31
6 2 12 7 4 7 2 6 5 3 1 3 4 7 6 3 4 7 7 4 7 9 10 8 5 1 2 11 21 24 22 23 26 29 30 31 32 33 34 34 33 32 32 33
3 2 8 7 5 5 5 5 6 6 4 3 3 4 5 3 3 8 13 13 12 12 13 14 14 13 11 8 2 10 16 19 21 24 28 30 32 33 32 32 32 33 33 32
5 7 8 5 5 6 4 6 6 4 4 4 3 2 6 3 4 5 11 16 19 20 20 21 20 18 16 12 9 5 2 7 13 18 21 24 27 30 30 32 31 31 31 30
3 1 3 6 4 3 10 7 7 4 3 1 3 4 6 3 4 3 5 16 22 25 28 29 28 26 26 22 17 12 9 6 2 2 8 12 15 17 21 23 25 26 27 27
2 1 1 5 8 5 3 6 2 2 2 5 2 2 7 1 4 6 9 14 19 22 24 25 26 26 25 25 25 25 20 15 12 9 5 1 2 6 9 13 16 18 21 22
7 4 8 3 6 9 7 6 5 7 4 2 1 6 4 1 5 13 12 14 18 20 20 22 21 20 20 19 19 19 19 19 18 16 13 10 7 4 4 6 9 12 15 18
6 4 1 2 2 6 6 5 5 7 3 3 4 5 4 4 5 9 11 17 19 17 18 18 16 16 16 15 15 15 14 14 14 13 11 8 7 6 6 7 8 10 12 14
7 4 1 1 3 3 5 8 4 2 4 3 3 4 5 8 10 6 7 16 16 16 15 13 13 13 13 13 13 12 13 13 13 12 10 9 8 8 10 13 14 16 17 18
5 4 0 4 6 8 3 3 4 5 4 6 3 6 6 16 13 10 13 14 14 13 12 11 10 11 11 11 11 12 12 12 11 12 13 13 13 14 15 17 19 21 21 23
5 5 4 7 2 1 0 6 6 5 5 1 3 5 1 13 17 20 16 14 14 13 11 10 10 12 12 12 12 11 11 11 13 14 15 15 15 16 18 19 20 22 23 24
8 3 3 4 3 2 5 5 4 5 4 7 6 5 4 15 13 16 17 15 15 11 11 13 12 11 10 10 10 10 10 11 12 12 14 15 16 17 18 19 20 21 23 24
5 4 9 13 4 7 6 6 5 5 4 5 7 6 4 7 9 14 15 16 13 13 12 11 9 8 8 9 9 10 11 13 14 16 17 18 19 19 20 21 21 22 23 24
4 6 4 3 3 4 5 9 11 11 15 9 13 11 21 17 11 21 18 16 15 14 12 9 8 7 7 8 10 11 13 15 17 19 20 21 22 23 24 25 25 26 27 27
2 4 3 4 2 4 2 5 15 19 6 1 6 5 5 20 17 19 19 19 17 15 11 8 6 5 5 7 10 12 14 15 17 20 23 24 26 27 28 29 31 32 33 33
2 5 3 4 5 4 5 12 11 7 4 12 10 7 7 7 17 25 24 23 22 16 12 7 4 3 4 6 9 11 14 17 19 21 23 26 28 30 32 34 36 37 37 37
3 3 2 2 5 9 5 2 4 7 7 6 5 7 17 20 24 21 23 23 19 15 10 6 2 1 3 6 9 12 15 17 20 23 26 28 31 33 34 36 37 39 40 41
5 4 3 4 2 5 2 5 7 9 10 10 8 7 11 15 18 11 17 17 15 11 6 3 2 2 4 7 9 12 14 17 21 24 26 27 30 33 35 36 37 38 40 41
4 3 4 2 3 7 4 0 4 3 4 7 19 15 16 19 5 4 22 19 11 5 3 4 3 4 7 10 12 14 16 18 21 23 26 27 29 32 33 34 35 37 38 40
5 3 7 4 3 7 6 6 8 6 6 4 12 22 26 6 6 14 25 15 3 2 4 3 5 8 10 13 14 16 19 22 24 25 27 28 29 31 31 33 35 36 38 39
6 7 4 3 3 8 14 6 11 5 8 11 15 23 23 20 18 18 20 8 5 3 4 7 9 10 13 15 17 18 21 25 27 29 30 30 31 31 32 34 36 37 38 37
4 5 6 7 6 2 25 2 11 13 20 19 24 23 21 19 16 12 9 5 4 5 7 11 13 14 16 18 20 22 25 28 29 30 31 32 32 32 33 33 34 36 35 34
3 2 3 3 3 3 19 8 14 15 19 21 20 22 18 17 12 8 5 4 5 8 11 14 16 17 18 20 23 27 29 31 32 34 33 32 33 33 33 34 34 35 34 32
4 10 5 2 1 2 13 12 17 19 20 22 20 17 13 9 6 3 5 7 9 11 13 14 16 18 19 23 26 28 30 32 33 34 34 34 34 34 34 33 32 32 30 27
8 6 5 5 15 8 18 22 22 23 23 21 20 15 10 6 6 7 9 10 12 13 15 17 19 21 22 24 27 29 33 35 36 38 37 36 36 36 34 34 33 26 24 22

GFSCGP_850_spd_090.txt.gz
Wind_Speed
2 7 13 15 8 3 9 5 6 2 2 3 7 11 12 9 9 12 10 8 4 9 11 13 16 18 20 21 24 27 27 27 29 29 29 30 30 28 27 26 23 22 23 23
5 13 7 9 9 8 6 9 4 3 2 3 1 10 11 7 4 5 9 6 4 5 7 8 11 14 18 23 25 26 28 29 29 28 29 29 30 30 29 27 26 26 27 27
9 2 14 8 6 10 3 8 5 2 4 2 3 6 5 2 2 4 2 1 2 4 3 4 5 6 9 13 21 28 26 26 27 26 25 26 27 28 27 28 28 26 26 27
3 3 10 10 7 6 6 5 7 9 6 4 2 3 3 1 4 5 4 5 6 8 10 11 10 9 6 3 5 14 20 20 22 23 25 27 27 27 27 26 26 25 24 25
6 9 10 8 7 7 3 7 6 4 4 1 3 4 2 2 4 4 6 7 10 12 14 16 15 14 13 11 8 7 6 12 16 18 19 20 22 21 19 20 22 23 23 24
3 2 4 3 3 1 14 10 6 3 2 4 6 5 5 5 5 7 7 10 13 16 20 21 22 21 19 16 13 11 9 6 5 6 9 11 12 13 14 14 16 17 18 20
3 3 3 5 9 5 4 14 3 3 4 5 2 4 6 5 4 13 16 14 13 15 19 22 23 23 23 23 22 19 16 15 12 9 7 4 3 5 7 9 11 13 15 17
10 6 10 7 6 9 12 9 6 7 5 4 3 7 3 3 3 14 14 14 15 16 18 20 21 20 20 19 19 18 16 17 16 15 13 10 8 6 4 4 4 6 9 11
9 5 2 2 3 7 6 8 4 7 2 2 5 4 5 4 9 13 15 16 15 16 18 19 19 19 18 17 17 15 14 14 13 12 10 8 7 5 4 5 6 8 10 12
6 4 1 1 3 2 5 11 3 1 6 5 5 5 6 13 18 15 16 19 17 17 17 17 17 16 16 15 14 13 12 11 11 9 8 7 7 7 8 9 11 12 14 16
6 3 3 3 8 13 5 6 2 3 3 5 4 6 6 21 23 21 22 20 18 18 17 17 16 15 13 12 12 12 11 10 10 9 8 7 7 8 8 10 11 13 14 16
4 5 5 13 2 3 2 7 11 6 7 2 0 4 2 14 23 25 21 18 18 18 18 16 15 14 13 12 11 10 9 8 8 8 8 8 9 9 10 12 13 15 16 18
8 5 4 3 2 1 7 6 11 3 3 7 6 6 4 17 21 22 22 19 20 19 18 17 17 16 13 11 9 8 6 5 6 6 7 8 9 10 12 14 15 17 18 20
12 4 13 14 14 8 9 11 9 12 6 8 10 8 8 16 18 21 20 21 20 19 20 19 17 14 12 10 7 6 5 5 6 7 8 9 11 13 15 17 19 21 23 24
4 8 8 10 2 7 8 15 17 17 24 13 21 13 19 23 22 27 21 19 19 22 22 19 17 14 12 9 7 6 5 5 6 7 9 11 13 16 18 20 22 25 27 29
1 3 5 4 1 5 6 13 20 25 23 19 12 14 12 30 23 22 25 26 24 24 22 20 17 15 11 8 6 4 4 6 8 11 14 16 18 21 23 25 26 27 28 29
6 6 4 7 6 2 7 20 19 18 21 23 18 16 11 18 21 27 29 29 29 28 26 22 18 14 11 9 5 3 4 6 9 12 16 19 22 23 25 27 29 31 31 32
5 5 1 4 6 8 5 3 7 18 9 16 11 9 24 30 39 27 31 33 30 29 25 21 18 14 10 6 3 0 3 6 9 12 16 20 23 25 27 28 30 32 34 35
3 4 3 5 9 5 5 6 8 12 15 15 14 10 13 16 24 13 28 29 30 27 22 17 13 11 9 6 4 5 7 9 12 16 19 23 25 27 28 29 31 32 34 35
3 3 4 3 7 11 1 3 5 5 11 13 18 16 17 24 12 8 27 26 26 23 18 14 12 10 7 7 7 9 11 13 17 19 22 24 27 29 30 31 31 32 33 36
4 4 8 6 3 5 4 5 8 8 4 8 21 23 26 11 6 20 30 29 25 20 16 13 11 8 9 9 10 12 15 17 19 22 24 26 27 29 31 32 33 34 35 35
9 8 4 3 5 9 10 7 7 2 4 11 19 25 24 16 17 31 33 27 21 17 16 14 11 10 10 12 14 16 17 19 21 23 25 27 29 31 33 34 34 34 35 37
5 5 7 8 6 1 20 1 11 9 14 14 20 25 31 26 28 36 30 22 19 17 14 13 11 11 13 15 17 18 20 22 24 26 28 29 30 30 31 34 35 36 35 36
4 3 3 4 5 5 19 8 11 11 15 18 23 30 29 30 31 29 23 19 16 14 13 11 11 12 15 17 18 20 22 24 26 27 28 30 32 33 33 34 35 36 35 34
3 10 4 3 1 3 15 16 18 18 18 23 26 29 28 28 25 23 21 17 15 12 11 11 11 12 14 16 17 21 23 26 28 31 32 33 34 35 36 36 35 35 33 31
8 6 7 7 13 8 12 28 22 22 25 26 29 26 23 21 22 20 17 14 12 11 10 10 10 11 13 15 18 22 24 27 30 32 33 34 35 36 36 37 37 34 34 28

GFSCGP_850_spd_093.txt.gz
Wind_Speed
13 10 16 18 15 13 16 14 10 8 3 6 12 12 12 10 7 8 10 9 6 5 8 12 14 17 19 20 21 21 22 21 22 25 25 25 26 25 24 23 23 21 19 21
7 16 14 10 7 7 8 13 11 4 4 4 4 11 11 12 9 6 6 8 8 5 5 10 13 17 20 21 22 22 22 20 21 25 25 25 24 26 24 24 23 23 22 22
14 10 11 7 8 10 10 14 11 4 6 1 2 8 11 5 6 5 4 7 6 5 4 4 7 10 13 18 22 25 24 21 19 21 20 22 25 26 22 22 22 21 20 21
9 5 11 12 15 13 9 1 10 11 9 5 3 4 7 9 7 5 4 6 6 5 5 5 5 6 8 9 12 17 23 23 21 19 17 19 20 20 19 17 18 19 18 17
7 9 14 13 14 10 5 7 7 6 5 2 7 5 5 7 8 8 8 7 7 7 7 7 8 8 7 6 6 6 12 18 20 20 18 17 17 18 15 13 13 13 15 17
4 2 6 6 6 5 15 12 10 5 2 6 11 9 8 8 12 10 10 10 10 11 9 10 11 11 10 10 10 9 8 9 11 13 13 12 10 9 11 10 11 13 13 15
5 5 2 7 9 8 9 15 4 5 5 7 4 4 12 4 4 12 15 15 13 13 12 11 13 16 16 15 15 15 13 13 11 8 7 6 5 6 6 6 7 8 8 10
12 8 13 10 7 9 16 15 6 7 5 4 2 8 4 8 5 14 16 17 15 13 12 13 16 18 19 19 19 19 18 18 16 14 12 11 9 7 5 4 3 3 5 7
14 8 3 5 1 12 7 9 3 6 1 2 6 6 4 7 9 16 18 17 16 14 13 13 15 17 18 18 18 18 17 17 15 14 12 10 8 7 5 3 3 5 7 9
5 5 3 2 2 0 6 11 4 3 5 5 6 6 7 13 17 16 19 21 19 16 14 15 16 17 17 17 17 16 15 14 13 12 10 8 6 4 3 3 5 6 8 10
7 2 3 5 10 14 5 6 6 4 3 4 4 6 2 19 21 21 24 25 23 20 17 17 17 17 17 16 16 15 13 12 10 9 8 6 5 4 4 6 7 9 11 12
2 4 5 8 4 3 6 11 12 6 5 4 2 4 4 5 19 26 26 25 23 20 18 18 18 18 17 16 16 14 12 10 8 7 6 5 5 5 6 7 9 11 14 16
9 3 4 2 2 2 7 12 16 16 3 6 5 7 3 6 18 25 26 26 23 21 19 20 20 19 18 16 14 12 11 9 7 6 5 5 5 7 8 11 13 15 17 19
18 4 13 14 17 7 8 15 14 17 8 12 11 12 4 12 17 23 26 27 25 24 23 20 19 20 19 17 14 11 10 8 6 4 3 3 5 8 10 12 15 17 19 21
8 8 12 20 10 6 12 15 17 19 25 16 23 17 12 18 20 31 31 27 27 26 24 23 24 22 19 17 14 12 10 8 5 2 2 4 7 10 13 15 17 19 21 23
4 3 9 2 6 3 2 9 19 22 25 22 23 16 6 21 25 25 28 29 29 29 26 25 25 23 20 18 15 12 10 6 3 1 3 7 11 15 18 20 22 24 26 27
8 6 3 4 5 4 5 21 17 20 25 21 24 26 7 13 22 30 32 34 31 29 28 28 27 24 21 18 15 11 8 4 1 2 6 11 15 18 21 23 25 27 28 30
4 5 2 4 4 8 7 2 22 22 16 22 22 14 15 22 34 36 35 34 30 31 31 31 28 25 21 17 14 10 7 4 2 5 10 14 17 20 23 25 27 28 30 32
5 7 3 6 9 10 14 4 7 11 20 22 22 16 13 19 19 19 24 26 29 34 34 31 27 23 20 17 14 11 6 4 5 9 13 17 20 23 25 27 27 29 31 33
2 4 8 5 7 12 3 8 6 6 17 13 19 13 12 22 12 10 33 35 36 35 32 30 26 22 20 17 12 8 7 7 9 13 16 19 22 25 26 28 30 31 33 34
5 4 15 8 7 7 4 10 13 9 6 3 23 26 28 16 16 22 38 38 34 33 33 29 25 22 19 14 11 10 9 10 13 16 18 21 24 27 29 31 31 32 33 35
8 7 5 4 8 15 13 6 8 1 1 2 11 17 22 18 14 23 36 37 34 35 31 28 25 21 16 13 11 11 13 14 16 18 21 24 26 27 29 31 32 34 35 37
5 3 5 6 3 3 23 2 12 0 3 7 13 16 26 22 22 29 36 37 36 34 31 27 22 17 14 12 12 14 14 16 18 20 22 24 25 28 30 33 34 35 35 37
2 1 2 2 3 2 7 10 5 8 7 8 11 20 24 25 28 31 36 35 32 29 26 22 18 14 12 13 13 14 15 16 18 20 22 25 28 30 32 33 34 36 36 37
2 9 4 5 1 2 8 17 12 10 10 11 13 17 23 27 30 34 33 30 28 25 21 17 14 13 13 13 13 13 14 15 18 21 24 27 29 31 33 35 36 37 36 34
7 5 6 5 10 4 4 14 21 16 15 17 22 25 24 26 33 33 30 27 24 21 18 16 15 14 13 12 12 13 14 17 19 21 23 26 28 30 32 34 35 34 36 36

GFSCGP_850_spd_096.txt.gz
Wind_Speed
15 5 11 10 8 9 8 8 5 5 2 4 7 5 8 16 12 9 10 15 13 11 14 16 17 20 25 24 23 22 21 23 22 21 22 22 21 20 18 18 18 17 17 16
4 10 10 9 11 8 2 8 6 5 5 1 6 9 7 10 11 13 13 13 12 13 14 16 17 17 19 22 25 26 25 24 24 23 21 21 21 21 19 19 19 19 18 15
7 6 7 5 3 5 4 6 5 5 4 2 1 5 7 3 7 10 12 11 10 11 11 12 10 13 17 20 23 26 27 25 22 24 21 19 20 19 17 16 16 16 15 15
5 3 7 8 5 7 5 4 9 11 7 3 5 4 6 6 7 7 10 11 11 12 12 10 9 12 13 14 16 21 25 27 24 22 21 18 18 17 15 13 11 11 11 12
4 6 7 4 5 4 3 7 6 5 4 1 3 2 4 9 7 7 12 12 11 8 10 11 10 9 8 9 10 12 18 23 27 24 17 12 12 13 12 11 8 7 7 9
3 1 2 4 4 5 7 8 6 3 3 1 7 6 4 5 8 7 14 14 15 13 12 11 9 8 9 8 7 8 11 16 19 24 22 15 14 8 9 9 7 6 6 7
4 3 2 2 8 2 5 7 2 1 0 5 6 4 8 2 1 10 14 18 16 15 12 13 12 11 12 11 12 12 12 14 14 16 17 18 11 9 8 7 4 4 4 3
8 4 9 5 5 8 8 7 5 6 5 4 5 6 6 2 4 21 23 22 18 18 17 15 14 16 16 15 16 17 17 18 17 16 15 13 11 10 9 8 6 4 3 2
7 3 4 3 3 6 6 6 3 7 2 3 4 5 1 3 3 17 24 24 21 19 19 18 17 18 19 19 19 20 20 21 20 18 16 15 13 10 9 7 5 3 3 5
3 5 3 0 1 1 3 7 3 1 5 4 5 4 6 7 10 10 15 24 23 22 21 20 19 19 19 19 19 19 18 18 18 16 14 13 10 8 7 6 4 4 5 6
0 5 0 3 6 8 3 5 4 5 5 5 3 6 3 14 18 16 19 25 28 26 24 22 21 20 20 19 18 18 18 17 16 14 12 10 9 7 5 4 5 5 7 8
2 5 4 2 1 2 3 5 7 5 5 1 4 5 2 3 17 24 25 28 28 27 25 24 23 21 20 20 19 18 17 15 14 13 11 10 8 7 5 5 6 7 9 11
8 3 4 3 3 1 5 5 5 2 3 5 5 6 3 1 13 23 25 29 31 29 26 25 24 23 21 21 20 18 17 15 14 12 10 8 6 5 4 6 8 11 13 15
13 3 6 10 5 7 6 8 8 7 3 5 7 8 4 6 12 20 27 31 33 31 30 28 25 24 23 22 20 19 18 16 14 11 8 6 4 4 6 8 10 12 14 15
6 8 8 13 8 6 8 12 13 11 18 10 23 14 8 10 12 26 29 29 33 34 32 32 30 28 26 25 23 20 17 15 12 9 6 4 3 4 6 8 10 13 16 18
2 3 8 5 8 1 3 9 18 22 25 18 18 12 8 22 26 24 32 34 34 37 36 35 33 32 30 27 24 21 18 14 11 8 7 4 2 3 7 11 14 17 20 22
8 5 3 5 4 5 4 16 12 16 19 20 21 27 3 7 17 25 30 39 40 39 40 40 38 35 32 29 25 22 19 15 12 10 6 2 4 8 12 15 19 22 23 24
6 5 2 3 3 4 14 5 17 17 14 19 19 13 11 16 31 37 44 47 38 38 41 42 40 37 33 30 26 22 18 15 12 9 5 4 7 11 15 18 22 23 25 26
4 5 3 4 4 6 10 6 8 10 20 15 20 20 17 16 20 24 40 40 42 45 45 45 41 38 34 29 26 22 19 14 11 7 5 7 10 14 18 21 23 24 26 27
4 0 6 4 7 13 8 14 12 7 16 11 18 15 11 19 9 10 34 40 40 41 45 45 40 37 34 30 26 22 17 13 10 6 7 10 13 17 20 22 23 25 27 30
8 6 13 11 5 8 5 5 18 10 8 5 11 24 23 12 19 22 34 37 40 44 45 41 39 37 33 29 25 21 16 12 8 7 10 13 16 19 20 21 24 26 27 30
10 10 5 5 8 13 9 2 14 1 2 1 2 9 18 24 10 15 34 41 43 44 42 41 39 35 31 27 23 18 13 11 9 11 13 15 16 18 19 22 23 26 29 31
2 1 5 7 5 0 19 2 9 2 1 2 4 6 14 21 14 22 32 37 41 41 40 39 37 34 29 24 19 15 13 12 12 12 13 13 14 17 20 23 24 26 27 30
2 1 2 2 2 2 18 9 6 13 6 5 5 8 12 18 19 25 30 35 38 40 42 39 36 33 28 22 18 16 14 13 12 12 11 13 16 17 19 21 23 26 27 29
3 6 5 3 4 3 9 17 22 14 11 8 6 8 12 18 22 25 30 34 36 36 34 31 28 24 21 20 18 15 14 13 11 10 12 13 15 16 19 21 24 26 27 30
5 5 4 4 5 3 3 3 12 18 15 11 10 12 16 19 23 26 31 35 37 36 33 29 25 24 22 20 17 15 14 13 11 11 12 13 15 18 21 24 26 26 29 31

GFSCGP_850_spd_102.txt.gz
Wind_Speed
9 6 20 19 4 5 6 5 6 3 3 5 8 5 9 15 15 17 22 24 27 29 24 23 28 29 28 27 26 25 24 23 23 23 22 20 23 22 21 19 18 16 15 13
4 18 9 9 8 5 5 7 5 1 1 3 4 9 5 8 12 24 23 24 29 28 27 28 25 27 30 28 27 26 25 22 23 23 19 18 17 21 18 16 15 13 14 14
13 9 9 8 6 8 5 6 5 4 4 2 5 6 4 8 16 18 20 24 28 31 28 29 30 29 29 30 30 30 30 27 25 21 19 19 15 17 17 18 17 15 16 17
5 7 12 7 16 13 9 7 8 7 5 5 4 5 6 8 9 9 23 25 30 30 28 28 30 31 32 32 31 32 32 32 31 27 24 23 17 18 17 15 14 15 15 15
8 9 7 14 15 9 8 7 9 7 4 5 3 2 7 2 8 9 23 30 27 30 32 31 29 28 28 31 34 36 34 32 32 30 26 23 21 17 16 16 15 15 14 13
6 4 8 9 4 7 8 7 6 5 3 3 6 7 5 6 9 9 9 31 31 28 29 27 25 24 24 25 27 31 35 37 34 30 28 25 21 20 18 17 16 15 14 12
3 3 1 3 6 2 5 9 2 0 1 6 2 3 8 5 8 7 16 31 30 28 29 28 26 24 23 22 23 24 27 33 34 29 28 26 23 20 20 20 18 15 13 12
10 6 7 5 6 7 6 9 6 7 4 3 3 6 6 7 9 11 15 31 27 27 27 25 23 22 21 21 20 20 22 25 29 31 30 31 23 23 18 19 18 17 15 10
7 4 2 2 2 8 6 5 6 7 3 3 5 6 9 4 7 6 13 26 32 30 27 23 22 21 20 19 19 19 22 24 26 28 30 30 25 22 21 21 18 15 14 11
6 3 1 1 2 1 7 8 3 2 5 4 4 4 5 7 12 9 12 26 32 28 25 24 22 21 20 20 19 19 21 25 26 27 27 26 24 21 21 20 19 16 13 11
5 4 1 3 6 9 4 4 2 5 4 5 1 6 8 13 17 14 16 28 32 30 28 25 22 22 22 21 21 21 23 25 26 26 26 25 26 24 21 19 18 16 13 10
3 5 4 5 1 2 1 7 6 7 7 1 3 6 3 7 8 15 20 29 30 29 28 26 25 25 25 25 25 25 25 26 27 28 29 27 26 24 22 19 17 14 11 8
8 2 3 4 3 2 5 4 5 5 3 8 5 6 1 2 5 13 23 29 32 31 29 27 27 28 28 29 28 28 28 29 29 29 27 27 25 24 22 19 16 13 10 6
14 4 8 10 6 9 7 8 6 5 2 4 7 10 6 5 6 7 21 30 33 34 33 32 32 32 31 30 30 31 30 29 30 28 27 26 25 23 20 17 14 11 8 5
8 7 5 1 5 5 3 10 15 13 22 11 24 10 12 8 8 15 19 23 30 34 37 38 38 37 35 34 34 33 32 32 31 30 29 27 25 22 19 16 13 10 5 2
1 2 5 3 5 5 2 8 15 20 15 15 14 13 8 10 11 15 24 29 35 40 43 42 41 40 40 39 39 37 36 35 33 31 29 26 25 23 20 16 11 7 4 4
9 6 4 13 3 6 3 14 13 14 18 20 17 24 7 7 11 22 26 31 38 42 45 47 48 47 45 44 43 43 40 38 36 33 31 28 25 22 18 14 10 6 5 6
6 7 3 3 2 5 14 5 11 16 9 21 17 5 9 16 26 27 30 34 39 40 43 46 47 48 48 46 45 43 41 40 38 35 31 29 25 21 17 13 9 7 7 7
3 5 2 5 4 5 9 9 9 10 20 12 20 17 9 12 12 19 30 34 38 38 40 43 46 50 51 50 48 46 44 42 40 36 33 29 24 20 16 13 10 9 8 8
3 3 4 3 7 11 9 8 13 8 18 14 19 17 11 16 7 17 32 36 39 40 42 43 44 48 51 52 50 48 48 46 42 38 34 29 24 20 16 12 10 9 9 10
3 2 12 3 4 9 7 5 17 9 11 6 25 22 14 10 22 23 14 24 35 41 43 43 44 46 50 52 52 51 49 46 41 36 32 28 24 19 14 12 11 11 11 9
9 8 5 3 2 16 9 5 15 6 1 1 2 5 9 21 27 27 23 23 24 27 35 42 42 43 45 46 53 53 51 45 41 38 33 28 23 18 14 13 13 12 10 9
6 6 8 12 8 2 13 1 3 2 4 2 1 2 4 6 6 8 13 15 21 25 29 35 41 43 41 44 53 54 50 46 43 37 32 26 21 17 14 14 14 12 11 10
3 2 3 3 3 4 10 7 10 8 2 2 5 8 7 6 6 6 8 11 16 21 26 32 37 39 40 45 51 50 47 45 40 35 30 24 20 17 16 15 14 13 12 12
2 5 4 4 2 2 3 11 6 4 7 9 6 8 8 8 8 9 10 12 15 20 25 30 34 35 38 45 50 47 46 43 38 33 27 23 18 15 20 18 15 14 14 14
5 4 3 2 3 5 2 6 6 6 8 10 10 8 8 9 10 11 12 13 15 19 23 27 30 34 40 46 47 45 42 39 34 27 20 16 20 25 21 18 16 15 15 14

GFSCGP_850_spd_105.txt.gz
Wind_Speed
16 10 19 17 12 5 5 7 5 4 3 5 8 8 9 13 18 20 29 31 32 32 29 28 27 28 30 30 29 29 30 27 26 23 23 24 24 23 24 22 21 19 16 13
4 21 12 8 8 9 8 7 6 1 1 3 3 11 4 8 14 29 32 33 34 32 32 31 31 33 35 33 32 33 30 30 28 27 25 24 22 20 23 21 20 18 16 14
14 4 9 11 7 13 10 11 5 4 4 1 3 7 4 6 15 15 26 29 31 32 34 33 34 33 35 37 34 32 30 30 29 26 25 25 21 18 19 21 20 17 15 14
7 16 8 5 15 14 17 4 6 5 5 5 4 5 6 7 10 9 27 27 30 31 35 33 34 32 33 35 34 34 33 32 31 28 26 27 24 22 18 18 16 16 19 20
10 14 12 17 19 10 11 6 6 4 3 3 2 1 7 1 10 10 21 32 34 32 33 35 34 32 32 33 34 35 35 35 34 33 30 28 26 22 17 19 20 20 20 19
9 8 18 21 11 14 7 4 6 4 2 3 8 7 5 7 8 9 28 36 40 34 34 33 32 32 33 34 34 34 34 34 35 35 33 31 29 25 20 21 21 20 20 17
4 4 2 6 8 4 9 8 2 1 2 9 0 4 13 5 8 8 13 33 42 37 36 37 37 35 33 33 33 34 36 38 36 34 34 34 30 26 25 24 22 21 19 17
13 9 9 6 7 9 7 10 5 7 4 2 2 7 6 9 11 22 20 20 27 37 35 36 36 35 33 32 32 31 32 34 37 37 34 35 34 29 26 22 20 20 18 17
10 10 2 1 3 11 5 7 6 6 2 3 5 7 9 5 9 12 18 17 24 37 40 36 34 33 31 30 29 28 27 28 30 34 34 35 35 30 24 22 21 21 20 18
6 5 2 1 2 1 9 10 3 2 4 4 4 5 5 5 11 12 11 28 27 34 39 36 32 30 28 26 24 23 23 23 25 28 31 36 34 32 26 24 23 23 20 18
5 4 2 4 6 8 3 4 2 3 5 6 1 6 9 14 17 14 14 19 24 30 32 30 28 26 24 24 24 23 23 23 24 26 31 33 34 30 25 23 24 22 21 19
4 5 4 4 0 0 2 6 12 7 9 1 3 7 3 9 9 11 11 16 20 25 27 26 25 25 25 24 23 24 25 26 27 28 31 33 31 28 26 26 25 23 21 18
7 2 4 4 2 1 5 4 4 5 4 8 5 10 2 4 7 8 11 17 22 26 27 25 25 26 26 26 27 26 26 27 29 30 32 32 30 30 30 28 26 24 20 17
11 4 8 12 8 8 5 6 5 6 4 5 10 11 6 6 7 4 7 14 22 26 27 28 29 28 28 28 27 26 26 28 30 30 31 32 32 31 29 27 24 22 19 17
5 6 5 3 4 7 6 10 14 10 19 11 26 13 16 11 7 8 8 13 20 27 30 33 33 32 31 30 29 28 28 29 31 32 32 33 32 30 29 27 25 22 20 16
3 5 5 3 3 3 5 10 13 19 18 21 13 20 8 11 16 9 13 17 23 29 34 37 36 35 35 35 35 34 34 34 33 33 34 34 33 31 29 27 25 23 19 15
11 6 4 8 4 5 3 13 13 14 18 19 18 20 6 6 9 20 21 22 25 28 32 38 40 39 39 40 39 39 39 37 38 37 36 35 33 32 30 27 24 21 17 13
6 10 3 3 3 5 9 6 10 16 13 20 20 3 4 13 25 26 26 27 29 32 32 36 39 41 41 42 43 42 42 42 42 42 40 38 36 33 30 27 23 20 16 13
2 6 3 6 4 5 8 8 7 6 16 14 19 11 17 14 8 22 26 31 33 33 29 31 36 40 43 46 46 47 46 46 45 44 42 40 37 34 31 27 24 20 16 14
3 3 5 3 6 15 19 10 11 9 17 17 15 12 12 14 7 17 31 34 38 38 37 37 37 39 43 46 49 50 50 50 50 47 44 41 37 34 31 27 23 19 16 14
3 3 9 3 3 10 6 4 21 9 13 4 8 20 16 10 21 14 17 18 23 30 37 39 37 39 40 43 48 52 54 55 51 48 44 41 37 34 30 26 22 18 16 15
8 7 3 3 3 15 9 6 17 7 1 2 5 2 10 19 22 26 28 29 27 23 24 26 33 38 39 41 44 51 55 53 51 48 45 42 39 36 31 26 21 18 16 13
7 6 7 9 8 4 19 3 9 4 5 3 3 3 3 5 6 9 10 11 13 18 21 23 26 32 37 39 41 46 51 53 52 49 47 44 40 35 29 24 20 18 15 16
3 2 3 4 3 3 13 9 7 6 8 7 2 2 3 6 7 8 8 7 8 10 13 16 22 28 32 33 35 38 46 53 52 51 49 44 39 34 28 23 20 17 14 15
2 4 3 3 1 3 2 10 5 6 2 0 1 3 5 7 8 9 9 10 9 10 12 13 16 21 25 28 32 37 42 49 52 51 48 44 38 32 26 22 18 12 20 24
4 3 3 3 5 6 5 5 4 4 1 2 3 3 5 7 9 10 10 11 12 11 11 13 16 18 21 25 30 35 39 45 50 50 47 41 35 30 23 18 16 20 27 23

GFSCGP_850_spd_108.txt.gz
Wind_Speed
9 5 8 10 7 2 9 6 9 2 4 2 7 9 11 6 13 16 25 30 31 32 29 29 31 32 32 31 30 28 27 25 24 24 23 23 23 21 19 20 18 16 15 13
4 10 7 5 4 6 2 3 10 4 3 3 2 12 8 6 11 27 31 31 32 31 31 27 30 34 36 34 33 31 29 28 28 27 25 24 21 22 20 20 21 20 19 16
11 4 14 12 7 11 10 3 4 1 3 1 3 7 6 6 14 18 28 28 30 33 33 30 31 33 34 36 35 34 33 32 32 32 30 28 24 23 23 19 22 20 18 15
5 7 16 8 11 9 8 6 1 2 3 6 1 7 7 7 9 9 29 29 33 33 33 33 33 35 35 36 35 34 34 34 34 34 35 32 29 26 25 20 17 17 20 20
8 12 6 16 9 7 4 5 3 4 4 1 5 3 7 2 7 8 20 34 36 36 35 35 34 35 35 34 36 36 36 35 34 34 35 34 32 26 22 22 18 22 22 22
8 7 9 7 5 8 8 6 7 2 4 6 12 7 6 6 7 6 21 34 38 38 38 34 29 32 35 34 34 36 37 37 36 35 35 36 33 27 28 25 21 23 22 22
3 3 3 14 7 5 7 11 2 2 3 8 5 3 12 5 8 8 14 35 40 38 38 36 34 37 39 38 35 35 36 36 37 37 37 37 36 32 32 30 25 21 22 23
10 7 9 4 7 6 13 11 6 7 3 3 0 8 6 10 13 20 20 24 24 29 41 46 43 40 40 37 36 36 36 35 36 37 37 37 38 36 34 30 26 24 23 23
7 5 1 3 5 10 6 15 6 4 4 3 6 6 8 6 9 12 23 24 30 30 32 38 45 41 39 38 37 35 35 34 36 37 38 39 38 38 36 32 27 24 22 22
6 4 3 4 5 2 11 12 7 2 5 5 4 5 5 3 10 11 12 28 41 33 29 30 36 36 36 35 33 33 34 34 34 34 36 38 37 37 35 32 26 24 23 23
6 5 1 5 8 9 3 10 3 5 4 5 0 7 8 12 12 11 12 13 22 25 22 25 31 32 32 32 31 31 32 31 31 30 30 32 33 35 34 34 26 25 24 24
8 6 4 6 2 0 4 8 12 7 10 1 2 15 5 9 6 10 20 22 19 19 19 19 28 30 30 29 28 28 28 27 26 24 25 27 30 34 35 33 29 27 26 25
8 3 4 4 2 0 6 4 7 4 4 10 4 15 3 4 5 8 13 14 14 15 15 19 25 28 28 28 27 27 25 24 23 21 22 28 32 34 33 33 29 28 27 26
17 4 7 10 5 8 5 5 3 5 3 6 11 3 5 6 8 4 6 10 9 11 15 20 25 27 26 26 26 25 24 24 23 23 26 30 33 34 34 31 30 30 29 27
7 8 5 3 5 6 7 13 14 12 16 9 30 16 12 11 5 6 10 8 8 12 17 22 25 26 26 27 27 26 25 25 26 28 30 31 32 33 33 32 32 31 29 25
2 3 5 3 2 6 6 11 14 20 21 21 18 22 2 9 16 15 22 12 14 17 20 22 25 27 29 29 29 29 28 28 29 30 32 33 34 35 35 34 33 31 28 25
8 6 3 7 2 3 3 14 16 13 16 18 17 19 6 3 8 17 20 22 25 26 24 22 25 28 30 31 32 32 30 30 31 32 34 36 37 37 36 35 33 30 27 23
5 12 3 3 3 5 7 5 13 17 14 21 20 2 7 13 24 21 20 24 29 29 27 26 27 29 31 33 34 32 33 33 34 35 36 38 38 37 36 34 32 29 26 24
6 4 2 5 4 6 11 8 7 7 14 14 13 8 15 18 13 26 28 27 27 30 29 29 29 30 31 33 35 36 37 38 38 38 39 40 40 39 38 35 33 30 27 24
2 9 10 4 7 11 20 10 12 6 16 9 13 12 11 12 5 13 23 20 25 30 34 35 34 33 33 32 33 38 41 43 45 44 43 42 42 41 39 35 33 30 26 23
3 2 13 4 7 10 6 5 22 8 11 3 2 16 19 9 9 5 7 10 12 15 19 25 29 33 34 32 32 36 43 47 46 46 45 45 43 41 38 35 33 30 28 24
8 8 4 3 2 19 8 6 19 8 4 6 8 6 13 21 17 16 18 20 22 23 23 23 24 24 25 30 31 34 40 43 47 47 46 46 45 43 40 38 35 32 28 25
4 5 7 12 9 3 22 3 13 4 5 6 5 5 5 5 4 4 6 8 13 14 14 15 19 21 23 25 28 32 34 39 44 47 48 49 47 44 42 40 36 33 29 25
3 1 3 3 1 1 14 7 10 4 5 8 7 4 3 2 0 3 4 6 9 10 11 11 12 14 16 19 23 27 30 32 37 44 49 49 48 47 44 40 36 32 28 25
2 3 3 2 3 4 3 5 5 7 8 5 4 4 3 3 4 5 6 7 8 10 11 10 10 10 11 14 18 23 25 27 32 39 46 49 49 48 45 41 36 31 26 21
3 3 3 2 2 5 5 6 6 5 5 5 5 6 5 6 6 6 7 8 9 10 12 13 12 11 11 12 14 19 23 26 30 36 42 49 50 48 45 40 35 30 25 20

GFSCGP_850_spd_111.txt.gz
Wind_Speed
7 3 9 14 8 5 8 4 10 1 4 1 5 8 11 8 12 16 19 27 29 30 25 26 27 29 30 30 29 28 26 24 23 24 24 24 24 22 19 18 17 16 15 13
4 2 5 13 10 8 7 6 1 4 1 2 5 10 11 10 11 20 26 26 31 29 29 28 28 30 32 32 33 32 29 28 26 26 25 24 22 22 19 20 18 18 17 16
6 3 7 10 8 8 4 7 2 2 2 3 4 9 8 6 15 20 20 27 27 31 32 31 30 31 31 36 36 35 33 31 30 28 27 27 26 24 22 21 19 20 19 19
4 3 12 8 10 10 6 8 6 4 3 4 3 6 6 5 10 9 28 25 31 31 33 32 32 32 32 33 34 34 33 33 31 31 32 33 32 27 24 24 21 20 19 20
5 3 8 6 7 8 3 11 5 4 2 2 1 2 7 3 7 7 21 32 31 34 35 35 35 34 32 32 33 33 34 34 34 34 35 35 35 32 26 25 24 24 20 21
6 4 7 9 7 9 7 8 8 5 2 4 6 5 5 8 7 6 14 34 34 35 37 37 34 30 33 34 36 37 37 38 37 36 36 36 35 34 31 30 27 23 21 21
3 3 4 10 11 4 8 9 3 1 2 7 2 7 13 8 7 8 13 27 34 37 34 36 36 36 36 37 40 40 39 40 39 38 37 37 35 34 33 31 29 28 24 19
9 5 8 5 9 8 9 7 5 7 5 4 1 8 6 13 21 19 22 21 22 26 36 38 36 39 39 38 39 39 37 35 36 37 37 36 36 35 34 33 32 31 27 21
5 3 2 5 6 12 4 9 4 3 2 2 5 6 9 8 9 13 19 21 26 24 26 30 35 40 39 38 38 39 36 34 34 35 35 36 37 37 37 36 36 32 28 24
7 5 0 3 8 2 11 10 5 1 2 4 4 5 6 3 9 7 7 19 24 26 29 29 29 30 31 37 37 37 36 35 34 34 35 35 35 37 37 37 37 35 30 26
7 4 1 6 9 11 5 7 4 5 4 4 1 5 7 11 10 8 3 9 17 24 22 18 23 27 25 28 36 37 37 35 32 32 34 34 36 38 37 35 34 36 30 27
8 6 4 8 3 5 8 8 14 6 4 2 3 7 2 7 6 5 6 9 12 18 21 17 17 19 22 27 32 32 31 32 33 33 33 33 33 35 35 34 33 35 31 27
10 4 4 4 3 2 8 6 15 5 3 8 4 10 4 3 5 10 8 8 10 12 12 10 15 18 22 25 28 30 30 30 29 29 28 28 28 30 31 33 34 32 34 26
17 4 8 12 7 7 7 9 10 17 5 14 9 18 9 8 7 5 7 7 9 7 7 8 12 16 20 23 25 26 27 27 27 26 25 25 25 27 29 31 38 35 33 28
6 9 5 1 5 6 6 10 13 14 23 13 33 23 14 11 7 16 17 11 7 8 12 11 12 13 17 22 24 25 26 26 24 24 24 23 23 25 30 36 39 32 33 27
3 4 6 2 3 4 5 9 15 22 23 18 26 22 3 22 27 14 20 19 23 24 21 19 16 16 19 22 23 25 25 25 24 24 23 24 27 29 33 36 35 35 30 31
13 7 4 13 3 5 3 15 15 15 18 19 21 25 5 7 10 19 20 18 23 25 20 18 18 20 21 22 23 24 23 24 24 24 24 27 28 31 34 35 36 33 34 34
11 13 3 3 3 7 10 4 14 18 17 21 23 4 8 19 29 23 23 23 22 23 24 22 21 21 20 21 22 24 24 25 26 27 27 29 32 33 34 35 36 35 36 34
3 6 2 6 4 5 12 13 8 8 14 13 15 12 14 13 10 25 27 23 27 26 27 25 25 23 23 23 22 23 27 29 29 30 31 32 35 36 37 39 38 38 36 34
5 4 4 3 6 12 18 9 11 8 16 18 17 12 13 13 4 11 22 16 17 19 21 21 21 23 24 23 23 23 25 31 33 34 34 34 36 38 40 40 41 39 37 34
4 1 13 5 5 8 7 3 23 9 10 3 13 19 20 8 13 8 4 3 7 12 15 17 19 18 16 17 20 24 25 29 31 34 34 36 37 38 40 41 41 39 37 35
7 7 4 3 9 15 5 6 15 11 4 7 6 8 17 20 15 12 11 9 7 8 11 14 17 19 20 19 18 20 23 22 28 33 36 38 39 41 42 42 41 40 39 38
4 7 7 12 8 2 15 1 8 8 7 6 6 7 8 9 8 5 3 3 7 11 12 11 11 11 11 12 14 16 16 19 22 28 36 40 42 44 44 45 44 43 42 39
3 2 4 4 1 1 14 4 3 2 5 8 7 6 7 7 5 3 2 1 3 6 9 9 9 9 10 10 10 10 11 15 18 23 29 36 42 45 46 46 46 45 44 42
3 6 6 1 2 4 3 3 6 10 10 10 9 7 7 7 6 5 5 4 4 5 7 9 10 9 8 7 7 8 9 13 16 20 25 31 39 44 47 48 48 47 44 40
4 5 4 3 5 5 2 7 7 8 9 9 9 10 9 9 8 8 8 8 7 7 8 10 11 11 11 10 9 9 9 12 16 19 22 27 34 41 47 49 49 46 40 36

GFSCGP_850_spd_117.txt.gz
Wind_Speed
6 5 12 17 21 16 16 14 11 9 8 7 17 18 20 26 14 11 13 17 19 21 20 22 25 27 27 28 30 30 30 30 28 28 28 28 28 27 25 23 21 18 16 14
5 7 14 14 13 11 14 15 14 8 5 5 11 18 16 21 26 23 19 17 20 19 19 22 24 27 29 28 28 30 33 32 32 31 31 29 28 27 26 25 23 21 19 18
10 13 7 16 14 13 12 14 11 7 4 8 9 16 21 22 27 28 24 19 19 19 21 22 25 29 31 33 32 33 34 34 35 33 31 30 26 25 26 27 27 23 21 20
3 10 13 15 17 16 8 2 3 8 4 6 7 9 12 19 23 20 31 30 26 22 22 23 26 29 34 38 37 36 35 34 35 35 34 33 33 32 31 29 27 22 24 21
6 14 17 14 13 17 6 9 8 5 2 5 8 5 7 4 14 19 25 33 33 31 28 26 28 33 36 35 38 40 39 39 37 37 37 37 37 34 27 27 28 26 25 24
9 18 14 10 13 8 17 13 10 4 2 5 13 11 11 13 13 14 22 29 33 32 32 33 30 33 34 36 37 38 40 41 40 38 40 41 40 37 32 30 30 29 29 27
9 13 4 19 13 8 1 11 3 2 4 6 3 12 16 9 11 9 14 22 25 30 32 33 35 35 36 37 39 39 40 40 42 43 43 43 43 40 38 37 35 33 33 32
13 7 13 19 8 13 12 6 5 7 6 3 2 9 4 9 9 17 15 12 12 25 28 31 35 37 38 36 38 39 42 42 41 42 43 44 43 42 42 40 36 37 37 35
14 6 12 17 6 20 7 5 1 2 2 1 6 8 10 12 14 9 15 10 10 8 11 19 26 31 35 35 37 40 42 43 43 44 43 43 44 44 44 42 40 39 37 35
13 7 10 6 10 7 12 13 4 4 4 6 6 7 8 7 6 8 8 14 11 12 14 15 17 21 25 30 34 35 38 42 42 43 45 44 45 47 46 44 43 40 39 40
18 7 9 8 11 14 5 13 6 4 4 3 4 5 3 3 2 3 3 4 4 5 8 12 15 18 20 23 27 29 32 37 41 42 44 45 47 47 46 44 43 43 41 40
4 6 11 20 3 9 15 14 15 6 6 8 3 9 7 5 4 3 3 2 2 3 7 7 8 12 18 22 25 28 31 32 36 39 42 43 46 44 41 40 39 39 40 38
11 7 9 7 7 7 22 17 19 11 1 6 6 8 12 8 3 6 6 8 0 1 8 10 12 12 11 13 18 21 25 29 32 34 35 37 38 38 37 37 37 36 36 37
10 7 10 12 7 14 14 21 17 18 6 12 14 22 7 6 4 3 2 3 5 11 14 18 20 18 17 16 15 15 18 19 22 25 28 31 33 34 34 35 37 37 37 39
8 6 9 7 10 17 17 19 21 22 28 15 21 22 18 13 10 12 13 17 15 18 15 18 14 15 18 19 18 17 16 16 18 21 24 27 29 30 33 35 35 37 38 38
11 5 9 2 4 12 11 16 22 28 29 22 22 23 11 16 16 16 18 20 19 20 17 13 20 20 18 20 19 20 18 19 19 21 22 25 28 30 32 33 33 34 34 33
12 5 4 4 6 6 1 23 23 25 25 25 22 31 8 10 9 12 17 20 22 18 20 26 21 16 12 14 16 16 18 20 21 21 22 24 25 27 28 29 30 30 30 31
8 6 3 3 4 5 17 14 22 25 23 26 28 25 10 10 14 16 22 24 22 24 26 22 16 14 15 16 15 16 18 19 21 23 24 25 26 26 25 26 27 27 28 29
14 8 5 6 11 4 14 10 12 19 22 22 24 25 25 21 9 24 26 27 32 25 25 22 23 23 20 19 18 19 19 20 22 24 26 26 25 26 26 26 26 27 29 31
4 12 4 5 7 12 9 15 11 8 19 16 24 20 15 13 10 16 23 28 26 22 16 13 13 12 12 13 13 15 17 19 21 23 23 25 27 27 26 25 25 27 28 31
7 2 15 6 6 6 3 9 22 11 5 9 25 26 22 13 24 15 9 12 11 8 5 5 4 5 11 13 13 14 15 14 15 18 21 22 24 27 26 26 25 26 28 31
11 11 7 6 8 19 9 11 18 10 5 2 5 8 10 13 15 11 11 9 8 7 5 2 2 4 8 12 11 9 10 12 15 17 17 19 20 23 25 27 26 26 31 32
9 10 8 13 11 2 17 13 24 14 6 11 12 10 6 12 14 14 11 9 9 8 5 3 1 1 4 7 9 9 10 11 13 14 15 15 17 19 22 25 27 29 32 34
3 9 4 4 8 5 15 18 20 17 12 12 13 11 11 15 15 15 14 12 9 7 6 4 2 2 2 4 7 8 8 9 10 11 12 13 14 15 18 22 25 28 32 35
3 8 6 4 3 3 5 21 22 22 16 15 14 13 13 14 16 14 13 10 9 7 7 5 4 2 4 5 6 8 9 10 10 11 11 11 14 15 17 19 22 26 30 33
6 5 9 10 16 14 10 29 24 18 18 16 16 15 13 13 15 14 13 11 9 8 6 5 5 5 6 6 7 9 11 12 12 12 12 12 13 14 16 18 20 24 27 31

GFSCGP_850_spd_120.txt.gz
Wind_Speed
11 5 14 18 14 5 16 12 9 12 9 6 13 12 12 17 14 14 15 18 23 24 22 25 26 30 28 29 31 30 30 30 30 30 30 29 28 27 26 24 22 21 20 19
5 15 12 13 15 13 9 14 10 8 6 4 7 14 13 16 18 22 21 19 19 20 22 25 28 30 31 34 34 34 34 31 31 31 30 30 29 28 26 25 24 24 24 20
14 6 12 12 14 13 15 13 9 5 5 3 4 7 9 9 24 27 29 24 22 22 22 23 26 30 31 35 36 37 36 34 34 33 31 30 28 28 28 29 28 28 27 23
6 10 19 15 15 9 5 1 7 11 7 2 6 5 7 14 19 19 28 32 33 31 25 29 29 31 33 36 37 35 36 37 35 35 35 36 36 37 35 32 31 30 29 25
8 15 17 18 16 11 2 9 9 7 5 3 5 2 5 2 12 18 25 31 33 37 35 31 32 35 32 33 37 39 39 38 37 38 38 38 38 37 35 33 32 30 27 27
8 13 10 6 6 9 13 13 11 6 3 3 7 6 5 5 5 4 13 31 36 36 34 36 35 34 33 32 35 39 42 41 38 39 39 40 40 39 38 36 34 32 30 31
9 13 5 18 14 11 2 9 3 2 2 5 1 6 12 7 8 1 7 10 16 32 34 34 37 36 34 35 35 37 39 42 43 42 43 43 42 41 41 39 37 37 34 33
8 4 9 15 10 11 16 2 5 7 5 2 2 7 5 6 9 11 14 14 14 5 27 31 32 35 35 36 34 36 39 41 42 42 45 45 44 43 43 42 40 40 40 38
12 4 13 18 8 15 6 4 3 6 2 3 5 5 7 12 7 9 8 6 7 7 4 9 22 27 32 34 36 35 36 40 42 43 44 44 45 45 45 44 42 42 42 41
8 8 3 11 12 2 7 8 4 1 5 4 5 4 5 4 6 6 6 11 10 6 8 12 14 19 22 26 29 33 36 38 39 41 44 45 45 46 46 44 44 44 44 40
14 6 3 5 6 11 5 6 4 5 4 4 0 4 3 7 5 3 8 5 6 5 5 8 10 11 13 17 21 24 28 33 37 38 40 43 45 46 46 46 45 44 41 38
4 6 7 7 2 4 4 8 4 4 4 3 3 5 5 7 6 7 10 7 4 8 10 10 13 10 5 5 12 17 21 25 28 33 37 38 42 42 43 45 45 44 41 40
10 5 8 4 5 3 9 11 13 4 3 6 5 5 7 9 5 7 12 4 7 7 5 7 12 11 6 8 9 10 12 17 21 24 28 32 36 40 42 43 43 41 40 41
9 5 6 12 6 11 8 11 12 5 3 3 8 5 4 6 7 8 7 6 6 4 9 14 13 7 7 10 11 11 11 12 14 16 19 23 26 30 34 36 37 36 35 35
6 5 6 7 12 15 24 26 18 19 21 12 19 13 10 7 9 13 7 3 9 14 12 12 14 7 13 15 15 15 13 13 11 12 15 15 16 19 23 27 30 30 32 33
4 4 5 5 9 12 15 17 23 27 24 20 13 15 4 18 16 6 1 2 7 9 9 15 8 16 14 14 14 13 13 13 13 13 12 13 15 18 20 23 25 28 31 33
11 6 5 2 6 8 1 25 25 22 18 25 15 18 4 6 6 7 9 13 16 16 16 14 15 15 11 9 10 12 13 12 12 13 14 15 16 18 19 21 23 26 27 29
10 6 3 3 5 3 7 18 19 24 24 26 23 13 7 10 18 18 15 20 24 21 20 17 16 10 12 14 15 15 14 14 14 14 15 16 17 17 19 20 21 22 23 25
5 5 4 6 3 4 7 13 20 14 18 22 27 19 22 21 19 26 26 22 25 25 22 19 20 17 17 17 15 15 15 15 16 18 18 17 19 20 20 19 19 20 21 21
4 3 3 4 6 11 3 13 24 9 18 16 21 18 17 20 10 16 18 25 28 30 31 22 18 15 12 10 9 10 10 11 12 15 17 18 18 19 21 20 18 18 19 20
12 14 14 3 4 7 7 11 24 11 8 11 31 30 20 9 20 13 11 14 16 16 14 12 10 7 5 4 5 8 9 10 12 14 15 17 17 17 17 19 20 17 18 19
11 12 9 3 2 14 13 13 20 7 6 8 9 18 20 20 16 16 12 11 11 10 9 10 9 6 4 1 1 3 6 7 9 10 13 15 16 17 17 17 18 18 18 18
5 7 9 12 8 3 19 13 20 21 15 8 12 12 9 9 11 13 11 10 10 11 11 10 7 5 3 2 2 3 6 8 10 11 10 12 13 14 16 16 16 17 17 18
2 5 4 4 7 7 17 8 25 18 13 11 10 11 9 11 14 14 13 13 12 12 9 8 6 5 3 2 3 4 5 6 7 9 11 12 12 11 12 13 13 14 16 18
5 10 7 2 2 6 3 19 18 23 22 16 15 13 12 14 17 16 17 17 17 15 12 9 7 5 4 3 3 3 4 5 6 9 10 12 13 13 12 12 11 11 11 14
3 5 8 7 18 10 9 29 25 24 23 19 16 15 14 15 18 20 21 19 17 15 13 11 9 7 6 4 3 3 3 5 8 9 10 11 12 13 14 15 14 13 13 13

GFSCGP_850_spd_123.txt.gz
Wind_Speed
14 8 21 14 16 5 12 8 10 9 8 7 15 6 12 14 15 19 22 19 30 33 27 24 27 34 31 32 33 34 33 32 35 34 32 32 30 28 26 26 24 22 21 20
8 23 17 12 14 13 8 14 8 3 8 9 6 14 8 14 15 21 22 23 23 34 34 28 26 33 34 36 34 36 36 34 35 35 33 34 32 31 28 27 26 25 24 23
21 12 17 13 14 15 10 12 7 5 5 1 3 6 8 9 26 30 32 32 29 29 35 33 31 32 35 38 39 40 38 36 35 35 34 34 34 32 32 31 30 30 28 26
14 12 19 19 18 15 16 7 5 7 12 4 6 5 5 12 15 20 34 35 37 34 31 36 36 37 37 36 36 39 40 38 37 36 37 38 38 39 37 34 32 31 31 30
15 20 25 20 25 18 6 7 8 4 4 4 3 1 7 4 9 18 26 31 38 37 36 33 38 37 36 34 35 39 40 40 39 39 40 39 40 39 37 36 34 32 33 33
5 12 13 11 3 10 11 7 8 5 2 4 8 7 5 5 6 4 14 29 40 38 37 36 35 38 37 36 34 36 39 41 41 41 42 42 41 41 40 40 38 37 35 34
6 9 3 18 10 6 7 11 3 3 4 7 2 5 9 7 6 4 5 9 27 36 38 40 41 36 38 37 35 35 37 40 41 40 41 42 42 41 42 41 41 40 38 37
18 12 16 8 9 13 12 9 5 7 5 4 1 7 6 9 21 16 11 15 10 9 19 37 40 40 42 40 38 36 36 37 40 41 42 42 42 42 42 41 42 43 42 40
16 7 6 14 5 15 5 6 4 6 2 3 4 6 8 9 8 7 9 6 11 11 9 15 30 33 37 38 38 38 36 35 39 42 42 42 42 43 43 43 43 43 43 42
5 7 6 6 9 2 13 11 5 1 5 3 4 4 6 5 7 7 6 13 12 10 10 10 15 23 28 30 32 33 34 33 33 36 39 41 43 44 45 45 45 44 44 43
5 6 3 9 7 13 5 11 4 6 5 5 3 6 7 10 7 8 9 10 13 12 10 12 14 15 17 22 27 29 31 32 34 35 35 38 41 43 45 46 47 46 45 44
6 6 6 4 3 6 4 13 4 7 6 3 3 5 4 6 8 10 11 12 12 10 12 13 10 7 7 10 14 18 20 23 23 26 31 35 38 40 43 45 46 45 44 41
9 5 9 3 6 3 8 9 7 5 4 6 5 5 2 2 7 12 15 13 16 18 15 9 5 1 5 5 4 6 9 10 15 21 26 29 32 36 40 42 43 40 39 38
10 5 6 19 29 9 10 8 5 5 4 5 8 3 4 7 7 10 12 13 19 13 5 1 2 3 4 2 2 5 6 8 8 10 13 17 21 25 29 34 38 39 36 35
6 5 4 7 10 9 18 17 13 10 11 9 16 13 9 11 9 20 21 18 15 10 7 4 2 7 4 6 7 9 10 11 11 12 12 11 13 16 20 23 26 28 31 32
2 5 5 3 11 15 21 23 24 26 22 17 4 7 11 17 16 18 22 18 13 10 7 6 8 8 9 11 10 10 9 9 11 11 11 12 13 14 15 18 20 22 25 27
10 7 6 5 8 11 2 27 29 24 21 25 13 19 9 9 12 17 18 18 15 13 11 9 8 9 10 9 8 7 8 10 11 12 12 13 13 13 14 17 19 22 25 26
7 8 3 5 11 4 8 18 24 26 27 27 21 8 11 13 28 19 18 17 17 16 16 14 13 12 10 10 11 12 12 12 11 11 12 13 14 15 16 17 17 18 21 24
5 4 5 7 5 4 6 7 25 19 26 25 28 13 9 11 9 12 18 24 28 24 20 16 15 15 14 15 17 15 11 11 12 13 14 15 16 16 17 18 19 20 20 20
8 8 5 4 6 12 5 7 18 5 13 19 23 17 11 15 8 12 30 27 25 23 21 19 18 17 17 16 11 9 8 8 9 9 10 12 14 16 17 19 20 20 20 20
9 3 7 9 2 7 8 8 30 9 10 16 33 36 34 16 26 12 20 19 24 25 22 20 17 15 14 13 11 10 7 5 4 5 8 9 11 13 13 13 16 18 19 21
9 10 5 4 2 13 14 21 22 7 4 9 14 25 32 33 21 22 20 20 17 16 16 15 15 16 15 13 11 9 7 4 1 2 4 6 8 9 11 11 11 13 15 17
5 10 10 13 8 1 17 12 23 27 19 10 14 17 27 30 26 24 24 20 18 16 17 18 17 16 15 13 11 8 6 4 2 1 3 4 6 7 8 9 10 10 11 12
3 5 4 5 7 4 13 9 21 20 19 15 15 18 19 23 21 22 22 20 19 18 18 18 17 15 14 12 11 9 7 5 3 1 1 3 5 7 7 8 9 10 11 12
3 8 6 3 3 1 13 18 23 15 16 17 18 19 18 16 21 21 24 23 23 22 22 21 19 16 13 11 9 7 6 4 2 1 3 6 8 9 10 11 10 10 10 11
4 1 8 4 12 8 14 28 25 27 25 20 19 19 18 18 21 24 24 24 23 24 23 21 18 15 14 11 8 7 5 3 2 2 4 5 6 7 8 9 10 11 11 10

GFSCGP_850_spd_129.txt.gz
Wind_Speed
16 9 19 27 19 7 7 6 7 4 5 5 15 16 15 25 10 17 31 30 34 38 31 32 33 32 33 35 37 36 35 37 34 32 30 31 32 30 28 27 26 25 24 23
8 21 29 13 12 11 6 8 10 4 5 7 4 17 15 10 16 27 30 33 40 41 39 38 34 33 36 35 38 38 38 37 37 37 35 35 34 32 29 28 28 28 28 27
20 22 17 16 14 15 15 13 5 2 3 2 5 10 5 11 27 27 35 40 35 38 42 40 37 36 36 39 37 38 40 39 37 38 37 38 36 35 35 34 32 31 30 29
13 21 22 18 18 14 20 5 4 3 3 4 6 6 6 7 12 11 29 35 42 39 39 40 39 38 37 38 36 38 38 39 39 38 40 42 42 40 37 37 35 34 32 31
19 19 23 25 29 23 10 9 6 3 2 1 3 4 6 1 7 11 19 33 43 47 42 42 42 38 40 36 37 37 39 39 39 40 42 43 45 43 39 39 39 37 34 34
9 10 12 8 4 9 7 5 4 2 2 8 9 8 6 8 12 6 12 33 42 44 46 44 38 35 35 38 39 38 40 40 40 40 40 43 44 45 43 39 39 38 37 37
23 14 6 19 11 5 9 9 4 7 6 10 6 8 17 6 7 7 10 24 29 34 41 46 48 48 42 39 42 42 40 39 38 39 40 41 42 43 42 40 38 39 37 37
14 10 19 18 18 16 29 22 5 9 8 6 3 10 6 13 31 25 28 16 12 16 25 31 36 40 42 44 41 42 43 40 39 37 37 37 39 39 39 39 40 39 39 38
12 10 19 15 7 15 14 16 10 5 2 3 6 8 8 10 15 14 23 30 27 18 16 19 23 29 38 41 41 42 42 40 41 37 34 35 35 36 37 36 37 37 36 37
7 7 22 6 6 1 15 16 11 2 5 5 5 6 8 9 14 12 10 28 38 26 22 19 17 21 29 36 39 39 40 41 39 37 37 35 34 33 33 35 36 36 36 36
6 4 7 12 16 20 8 17 9 5 5 6 2 7 8 12 15 12 11 26 30 27 25 26 22 21 21 27 35 37 38 38 39 39 38 37 35 34 34 35 35 36 35 36
29 8 13 27 5 1 20 19 20 12 16 4 0 6 2 11 4 12 19 28 27 23 21 20 21 20 19 21 24 26 29 33 33 32 32 33 35 35 35 35 34 34 35 34
16 7 7 9 4 4 14 17 23 11 3 13 12 9 1 3 6 12 15 25 24 21 23 22 20 18 17 17 19 21 23 26 27 28 29 31 32 33 34 34 34 35 34 34
25 7 24 17 30 24 18 33 28 24 15 23 19 14 5 5 7 6 12 17 19 21 22 20 20 20 20 20 20 20 19 19 21 23 25 26 28 29 31 32 33 33 33 34
16 19 17 24 19 14 21 25 24 28 32 16 27 12 8 9 10 18 21 18 18 20 23 24 21 20 19 18 17 16 15 14 15 17 18 19 20 22 23 23 24 25 25 26
13 10 7 4 9 22 23 22 25 23 28 22 26 17 8 19 14 9 20 23 23 29 32 27 21 18 20 20 18 16 15 16 16 17 18 18 18 18 18 18 18 17 17 17
9 9 14 19 5 12 10 25 28 28 28 29 27 33 8 7 8 21 28 29 33 40 39 29 24 21 22 21 18 17 16 16 16 16 16 16 16 16 16 16 15 15 15 16
14 13 6 5 11 15 8 17 24 30 29 29 27 13 19 20 31 36 35 38 42 43 40 30 24 24 21 23 19 18 17 15 14 13 13 15 15 15 15 15 16 16 17 18
25 15 4 6 12 3 4 9 30 24 32 29 26 29 18 19 20 21 43 45 46 41 43 33 27 26 24 23 19 17 16 16 16 17 17 17 16 16 16 16 17 18 19 19
20 22 10 5 8 14 22 10 20 4 19 19 30 33 30 18 10 19 46 46 41 43 38 35 31 26 26 24 21 20 18 18 19 20 20 19 18 17 17 17 16 15 15 16
14 11 14 10 4 7 7 13 33 13 20 24 36 43 34 15 33 51 29 39 43 40 38 33 28 30 29 27 25 23 21 21 22 22 20 19 18 17 15 14 12 12 12 12
8 9 5 4 3 13 14 25 24 18 7 4 30 45 34 46 35 32 32 31 43 44 40 33 30 30 30 28 25 24 24 23 24 23 21 19 16 14 12 9 7 6 6 7
8 8 8 11 13 1 39 10 17 18 9 14 15 24 41 44 42 38 35 36 40 43 34 28 27 29 30 30 28 26 25 25 24 22 19 17 14 12 9 7 5 4 4 5
1 3 5 5 4 5 22 4 22 5 8 10 11 14 22 36 39 38 30 34 33 31 30 29 31 30 29 28 27 26 25 25 24 23 21 17 14 11 9 7 6 6 7 8
1 4 4 1 3 2 2 22 7 23 4 7 9 10 16 23 28 35 37 32 28 26 26 28 29 28 27 26 27 28 27 26 26 23 21 19 16 13 10 8 7 6 6 4
8 5 1 0 6 6 4 14 11 15 24 13 9 9 9 12 15 24 29 33 33 32 31 31 28 26 26 25 26 27 26 25 24 23 21 18 16 14 13 11 9 7 6 4

GFSCGP_850_spd_132.txt.gz
Wind_Speed
14 7 8 17 17 2 6 5 9 3 6 5 10 16 15 22 12 14 25 33 34 35 31 33 33 33 33 35 36 37 35 34 32 30 29 29 29 27 27 26 24 23 22 21
6 15 16 10 10 7 3 4 4 3 2 5 6 14 12 12 13 27 33 34 32 39 36 37 35 35 36 36 37 38 39 38 36 34 32 32 30 30 28 27 27 26 25 24
16 22 16 10 10 14 13 15 3 3 3 3 6 14 13 9 26 30 33 39 39 42 37 41 38 38 37 40 40 39 40 41 39 37 36 35 34 33 32 32 31 30 28 27
17 17 17 17 19 15 21 6 6 5 1 4 5 7 6 6 16 10 31 38 45 44 44 39 36 38 42 41 39 39 40 42 41 39 39 39 39 38 35 33 31 31 31 30
12 14 17 21 24 19 11 10 6 1 2 3 4 5 7 2 8 12 20 35 38 42 42 46 44 35 34 39 37 38 40 40 42 42 42 41 41 41 37 37 35 33 32 32
12 3 12 9 8 17 8 6 4 2 1 9 16 11 9 9 12 10 10 28 30 32 40 42 43 38 35 37 36 38 38 38 41 42 42 44 42 41 41 40 38 35 33 33
20 10 7 13 9 15 17 10 3 6 6 12 4 10 19 7 9 8 10 26 27 26 33 38 40 44 39 41 38 40 40 42 41 40 41 41 41 42 41 39 37 36 36 36
17 13 15 17 14 10 27 15 5 8 6 8 5 10 6 12 28 32 29 26 19 17 24 29 35 39 42 44 40 38 37 39 40 39 39 39 40 41 39 39 38 37 37 35
7 17 17 11 5 15 12 11 11 5 2 2 5 9 7 11 14 15 21 28 35 28 19 21 26 32 36 47 47 44 41 38 40 41 38 38 37 38 37 36 36 35 34 34
4 5 18 10 11 6 12 16 11 3 4 5 6 7 12 4 20 12 12 24 34 32 28 21 20 24 29 36 43 45 44 42 40 38 39 38 37 35 35 37 34 32 31 31
6 4 8 11 16 20 8 12 7 6 5 5 8 11 8 17 18 16 19 31 36 34 35 28 22 18 22 26 31 38 39 39 39 38 39 40 39 36 35 35 32 30 29 29
21 3 3 24 6 19 23 8 18 9 13 5 0 14 1 9 8 6 16 21 31 27 33 28 25 25 19 19 24 30 34 36 35 35 35 36 35 34 35 34 32 30 29 28
9 9 9 4 4 3 17 15 23 13 3 18 13 21 3 2 7 13 17 19 19 23 23 22 20 23 25 24 24 25 28 31 31 32 31 31 31 31 31 31 31 30 29 30
12 12 15 13 13 6 23 29 26 27 15 22 23 36 17 5 6 8 13 19 19 23 24 24 24 22 21 21 21 22 23 23 24 26 27 28 27 28 28 28 28 29 29 28
16 18 23 31 26 14 18 24 28 25 31 21 30 31 27 11 11 9 16 16 13 18 21 22 24 24 23 22 21 21 21 21 21 22 22 23 23 25 26 27 27 26 26 25
14 16 18 27 21 29 24 24 27 26 30 28 30 29 24 19 28 17 21 18 20 21 24 26 26 25 24 23 21 20 20 19 18 18 18 19 21 21 20 20 19 19 19 19
10 15 10 23 29 18 26 31 32 29 34 32 29 39 17 7 10 25 33 27 28 30 29 29 29 26 24 24 22 20 19 18 16 15 16 16 16 16 17 17 17 17 17 17
11 10 14 13 10 22 19 26 26 32 36 36 31 24 26 28 30 33 35 36 34 35 35 32 30 27 26 26 24 22 20 19 19 18 17 17 18 18 18 19 19 18 18 18
19 10 6 8 17 3 6 12 32 25 35 32 29 33 28 13 22 25 41 43 41 41 40 35 36 33 28 27 28 26 24 23 21 20 19 19 19 19 19 18 18 18 17 17
20 19 10 5 13 17 31 11 14 11 22 21 33 38 34 19 11 19 45 52 50 52 45 37 38 34 33 29 30 28 26 24 22 20 19 20 21 21 21 20 19 19 17 16
11 14 19 20 9 7 4 13 32 18 25 21 38 45 40 17 35 67 38 43 55 54 44 41 37 44 35 32 32 31 29 26 23 23 24 25 25 24 22 20 18 15 13 12
12 10 7 13 15 20 14 21 25 34 5 16 35 47 30 41 48 52 40 42 41 44 50 51 44 45 40 37 37 33 30 28 27 27 26 26 25 23 20 17 15 14 12 11
7 9 8 11 12 3 32 11 3 6 15 4 22 29 42 43 48 44 43 45 41 36 38 46 44 42 42 39 36 34 32 31 28 27 26 25 23 21 18 16 14 13 10 8
5 3 5 4 8 6 24 2 6 6 6 6 10 13 17 37 40 47 49 49 46 44 42 44 44 44 40 38 37 35 32 30 29 27 25 24 22 21 20 17 14 11 9 7
5 5 3 4 4 3 4 11 15 12 9 11 10 13 18 19 24 32 39 41 40 42 41 40 44 43 39 37 36 36 34 31 28 27 26 26 24 22 21 19 17 14 10 7
8 8 4 2 10 9 7 21 19 16 10 10 11 9 10 9 13 16 23 27 31 34 34 36 36 36 35 34 33 33 32 30 29 28 28 27 26 25 23 19 16 12 9 8

GFSCGP_850_spd_135.txt.gz
Wind_Speed
19 9 12 18 15 4 6 5 6 3 4 4 6 16 17 19 19 24 21 29 36 37 36 32 29 31 31 32 33 34 34 33 31 31 29 29 30 28 27 26 24 23 22 22
6 19 22 5 9 8 3 4 4 4 2 6 6 15 15 15 15 28 31 36 33 29 33 35 33 33 36 34 35 37 36 36 35 35 33 33 29 30 28 25 26 26 26 25
20 5 16 15 10 14 13 10 3 4 3 3 5 10 15 8 23 29 34 40 40 41 40 36 38 40 35 37 37 37 37 38 38 37 37 35 34 33 31 32 31 29 28 27
12 13 12 8 8 13 18 11 9 7 3 5 2 8 11 5 10 14 29 35 46 45 43 40 40 37 41 41 38 36 38 39 39 40 41 40 40 39 35 34 31 30 29 29
11 13 17 10 16 11 4 6 9 6 4 3 6 6 8 3 7 15 18 33 41 49 46 43 43 42 40 41 41 39 40 41 41 40 44 44 43 42 39 37 33 31 30 30
8 1 5 17 10 18 9 4 2 3 4 9 17 11 10 10 15 18 13 26 35 37 39 43 44 43 42 42 40 40 45 43 41 41 43 47 46 43 41 39 37 35 33 32
18 10 2 4 9 7 15 11 5 6 5 10 6 10 24 7 7 11 11 27 31 31 32 34 37 41 41 46 45 39 43 42 40 42 44 44 44 43 42 39 37 37 35 35
12 8 15 12 17 10 22 16 5 8 7 8 3 10 8 14 28 34 27 33 30 24 28 32 34 36 39 41 45 42 43 42 41 42 42 40 42 43 41 41 39 37 35 33
12 14 3 10 7 16 9 11 9 4 2 1 5 10 7 8 10 17 25 26 32 36 35 27 25 33 35 39 43 45 44 43 41 40 38 40 40 42 40 37 38 36 33 31
3 6 8 7 7 7 13 10 7 4 8 7 6 8 12 2 15 17 13 23 36 34 33 37 31 28 30 33 38 43 46 44 42 39 38 39 39 37 37 37 36 33 30 26
1 6 1 11 13 19 8 10 7 5 3 5 9 10 8 16 12 16 15 23 25 30 36 32 33 26 22 25 30 36 42 46 45 42 40 38 38 38 37 36 34 31 29 26
13 3 5 11 3 16 19 10 12 7 7 4 2 13 3 8 9 7 14 23 22 22 23 27 26 30 25 20 24 28 32 41 47 46 43 41 38 37 37 36 34 31 28 27
8 6 8 4 5 2 13 19 17 15 1 14 12 17 6 7 6 10 13 16 18 17 17 19 23 32 27 24 22 24 27 30 37 39 38 37 35 34 34 33 31 30 30 28
14 4 8 11 5 3 13 20 25 24 15 22 16 31 24 5 8 7 10 11 15 15 17 18 19 24 26 26 27 25 25 26 29 33 35 35 33 31 30 29 29 29 29 29
6 4 5 15 18 12 10 16 21 25 27 17 28 29 35 20 14 17 21 17 18 19 18 17 21 22 23 23 24 24 24 26 27 30 30 30 29 29 29 29 29 28 28 28
5 9 12 22 19 16 22 23 18 25 26 25 31 29 31 22 23 27 36 36 32 30 25 21 22 24 25 24 24 23 23 23 24 24 25 25 27 27 27 27 27 26 26 26
4 1 4 22 6 12 17 28 30 30 26 26 29 40 45 11 12 21 27 36 43 43 40 31 29 27 26 25 25 26 24 23 23 23 23 23 23 23 22 22 23 23 22 21
5 5 3 14 6 16 17 16 24 28 33 29 31 38 35 28 36 33 36 39 44 47 47 46 37 30 27 25 25 23 25 25 24 23 22 21 21 21 21 21 22 22 21 20
20 10 6 7 11 12 18 16 12 24 36 32 30 35 37 51 9 20 43 47 45 44 40 42 40 35 27 27 28 29 28 27 26 24 22 21 20 21 21 22 21 21 20 20
15 16 10 8 7 10 25 11 21 17 23 31 31 40 40 40 11 26 48 47 48 55 53 51 46 31 30 34 34 35 33 30 28 26 24 22 22 22 21 21 21 20 20 19
3 7 19 20 16 9 20 10 15 15 22 30 40 44 43 20 35 67 52 41 53 53 50 52 53 42 37 37 37 38 35 34 30 28 26 24 23 22 22 22 22 22 21 21
11 7 9 12 9 19 9 8 18 16 41 17 31 49 43 44 51 55 53 47 43 44 46 50 56 47 40 40 44 40 39 34 32 31 30 27 25 25 25 24 24 23 22 20
13 15 11 8 8 5 14 8 3 7 13 11 16 23 34 42 46 55 48 46 47 51 49 46 50 54 52 43 50 46 42 40 39 36 33 30 28 27 26 25 24 23 23 22
5 10 13 15 22 6 16 9 19 19 20 21 14 13 13 28 41 39 42 45 46 47 46 48 42 44 46 46 51 49 44 43 40 38 37 33 30 29 28 26 25 25 24 24
1 8 10 8 5 15 5 20 35 27 23 22 17 12 12 17 22 26 32 35 34 33 33 41 43 40 39 40 47 48 45 44 42 40 36 32 30 29 29 28 27 26 23 18
7 5 2 4 16 13 21 25 35 32 31 27 26 22 10 18 18 19 18 13 15 20 23 30 37 37 36 37 43 44 43 42 40 38 35 32 31 30 30 30 30 27 22 21